GFSWCAN_sfc_dewp_000.txt.gz
Dewpoint
41 41 40 41 41 40 40 40 40 38 39 40 41 43 45 47 48 49 49 50 48 43 43 41 40 41 42 41 38 41 42 42 42 39 37 37 33 34 33 33 33 33 34 33 33 29 26 34 30 25 29 34 34 34
41 41 42 41 41 40 39 40 40 38 39 40 40 43 44 45 48 49 47 50 51 46 44 46 44 43 43 43 43 43 42 42 42 40 39 40 33 35 34 30 34 34 36 35 34 32 34 35 35 37 33 34 34 34
41 42 42 41 41 40 40 39 40 40 39 40 40 43 44 45 47 49 48 49 48 45 44 43 42 45 48 48 49 42 44 45 44 44 40 37 32 34 33 34 33 35 37 35 34 34 34 35 36 36 35 34 34 34
41 41 41 40 40 40 40 39 40 40 40 40 41 43 43 44 46 48 47 49 48 45 41 42 45 44 47 48 48 48 47 47 46 47 42 36 35 35 33 31 34 36 37 33 32 32 32 34 34 34 34 34 34 34
41 40 40 41 41 39 40 40 40 40 40 39 41 42 43 44 45 47 48 49 50 46 42 43 43 45 47 47 47 47 46 46 45 44 43 40 39 38 36 35 33 32 35 34 33 32 32 32 34 34 33 33 34 33
41 42 42 41 41 40 40 40 40 40 40 39 40 41 43 43 44 46 45 49 50 49 43 40 45 44 46 47 47 46 46 45 45 44 43 44 42 41 34 33 35 34 33 35 33 34 33 34 33 34 34 34 34 33
42 42 42 41 41 40 40 40 40 40 38 40 41 43 43 43 43 42 43 47 50 49 43 38 40 44 45 46 46 46 47 46 45 44 43 41 40 41 36 34 36 36 34 34 34 33 33 33 33 33 33 33 33 31
42 41 41 40 39 40 40 40 39 38 40 40 42 44 43 43 44 44 48 49 49 46 45 36 37 41 44 44 43 47 44 45 44 43 40 39 38 38 35 38 34 33 33 33 34 34 34 33 32 30 30 30 29 28
41 40 40 40 40 39 39 38 37 39 40 42 42 43 43 44 43 47 50 49 49 45 39 38 35 34 43 42 42 42 44 41 43 40 39 38 36 33 35 36 33 33 33 33 33 32 32 31 29 28 27 27 27 27
40 40 40 39 39 38 38 38 37 37 39 41 43 41 39 44 50 50 47 44 41 43 42 39 38 38 42 40 38 39 39 38 34 38 38 37 35 38 38 38 35 34 34 33 31 28 29 28 28 26 26 26 27 27
40 40 40 39 39 38 38 36 36 38 39 39 35 35 36 40 46 45 39 38 39 36 40 40 40 38 40 37 37 37 34 34 33 32 36 33 35 36 37 39 35 34 34 33 33 32 31 28 25 25 26 27 28 29
40 40 39 39 39 38 37 36 38 37 37 38 38 39 36 37 37 33 33 35 36 34 38 39 38 38 38 39 36 35 31 31 31 35 33 32 34 32 33 34 34 34 33 33 32 29 27 25 25 26 26 27 28 29
40 40 39 39 39 37 36 37 38 39 41 39 36 31 32 34 31 31 30 33 33 36 37 36 34 36 36 36 33 30 32 32 29 29 29 31 30 31 31 33 33 33 31 28 25 25 26 27 27 27 27 29 29 29
40 39 40 39 37 35 38 38 38 39 38 32 29 27 29 30 30 30 32 33 34 36 36 36 33 34 34 31 31 24 31 28 25 24 24 28 27 32 32 32 31 29 27 25 25 26 26 27 27 28 28 28 28 27
39 40 41 38 35 38 38 37 39 40 35 29 31 26 31 33 32 33 30 33 34 39 36 34 34 32 32 31 28 29 27 24 24 24 27 26 22 28 29 28 26 25 26 26 26 26 27 27 26 25 24 24 25 24
39 39 33 35 38 38 37 39 38 37 33 30 30 29 34 32 31 32 33 33 36 38 34 34 31 29 30 29 23 19 21 21 25 27 26 25 29 27 25 26 26 26 25 25 25 25 25 25 24 22 21 20 19 18
38 33 35 39 38 37 37 36 34 32 31 31 31 34 32 32 31 33 34 36 39 36 33 28 24 22 22 20 19 20 21 26 24 27 21 23 26 25 26 26 25 25 24 24 24 23 22 20 19 18 16 14 14 14
33 35 39 38 36 35 34 34 31 30 28 29 28 30 33 35 33 33 35 38 37 34 31 28 27 24 22 18 18 24 23 28 21 22 24 26 25 26 26 25 25 25 24 24 22 22 21 20 18 15 15 15 14 13
36 37 36 36 35 32 30 30 32 20 23 30 29 30 33 34 35 35 36 38 35 35 33 30 25 21 23 22 21 25 14 21 26 27 26 25 25 24 24 25 25 26 25 24 22 20 19 17 15 14 13 13 12 11
37 35 36 35 34 29 27 23 29 26 16 22 31 27 31 31 33 33 35 34 34 33 32 25 25 26 27 27 25 24 22 26 28 25 24 24 24 25 25 25 25 25 24 23 22 21 17 15 15 14 13 13 12 12
34 33 34 31 26 30 27 24 18 26 27 24 20 26 29 32 32 32 32 33 33 33 32 31 27 26 27 28 29 29 27 30 29 27 25 22 24 24 24 24 25 23 22 21 19 20 18 15 15 16 16 14 13 10
30 34 29 25 19 14 19 25 16 20 25 17 19 24 23 25 28 29 31 29 28 26 27 29 28 27 27 26 27 27 28 28 27 27 27 26 23 23 23 24 24 24 23 21 19 16 15 15 14 13 13 14 12 9
31 24 17 15 11 8 11 16 13 11 13 13 16 19 23 23 26 30 24 23 24 27 26 26 24 25 26 27 27 28 28 27 26 25 25 24 24 25 24 24 23 21 19 16 17 17 16 18 16 11 11 8 8 8
24 15 12 10 8 5 12 5 13 12 11 13 13 15 20 23 26 23 19 18 24 27 25 26 26 25 25 25 24 25 28 28 26 26 25 23 22 20 20 19 18 18 18 18 18 18 15 13 15 8 7 7 6 4
9 1 4 -5 -0 4 -0 4 1 7 5 9 11 14 20 23 22 19 17 16 18 18 18 24 26 25 22 22 22 22 24 25 24 22 22 20 19 17 17 16 15 16 18 18 16 15 13 11 10 8 7 6 4 2
-0 -2 1 -1 -1 5 5 6 0 2 8 9 14 18 21 21 17 13 11 10 11 15 13 15 16 23 22 23 21 22 23 23 22 20 22 25 22 19 17 16 15 14 16 16 15 13 10 9 7 7 8 10 13 3
1 -0 14 20 15 15 10 11 11 7 1 5 12 13 16 14 13 11 11 11 10 13 14 16 21 20 18 18 19 20 20 22 21 19 21 21 20 20 21 18 16 14 15 15 13 11 9 8 9 9 6 4 2 1
12 10 5 4 8 6 2 2 -0 -0 5 12 12 9 9 9 10 7 9 12 12 13 16 18 18 18 18 18 19 19 18 19 19 18 17 17 19 19 19 17 17 18 14 13 13 12 11 9 7 5 3 2 1 0
18 15 11 -1 -0 0 1 2 3 9 12 5 3 8 7 7 5 5 8 10 11 17 16 15 16 18 18 17 18 19 21 22 21 17 15 13 13 13 16 16 15 15 15 14 16 12 9 8 7 5 4 3 1 -3
15 18 7 -4 -1 1 1 4 -1 12 9 9 10 8 7 7 8 9 9 10 12 13 16 17 18 18 18 17 16 16 16 18 21 19 16 14 12 14 14 14 13 13 13 12 12 13 17 11 9 3 2 1 -1 -4
12 9 1 -0 -2 -4 -1 4 5 13 1 -3 3 3 7 5 9 10 8 8 11 16 17 16 17 18 17 17 17 16 13 14 14 14 13 13 14 14 14 13 14 13 13 12 10 8 6 0 -2 -3 -5 -7 -6 -7
10 2 2 -1 -3 1 1 -3 -8 -7 -8 -5 -3 0 7 10 9 8 7 9 15 14 18 17 16 14 16 16 16 16 17 14 14 13 13 13 13 13 12 10 10 9 7 5 4 2 -0 -3 -4 -5 -6 -11 -12 -12
6 9 -5 -8 -5 -3 -0 -3 -5 -7 -9 -11 -6 -2 6 9 10 7 10 10 9 11 12 13 14 15 15 15 14 14 14 12 14 17 18 17 17 14 9 7 7 6 5 3 2 0 -2 -5 -5 -6 -9 -12 -14 -13

GFSWCAN_sfc_dewp_003.txt.gz
Dewpoint
42 43 42 41 41 41 41 40 40 40 40 39 40 41 43 45 47 47 45 48 48 43 42 42 42 41 41 40 38 41 41 42 41 37 37 35 33 33 30 30 31 31 31 30 30 27 24 34 32 27 29 33 33 33
43 42 41 42 41 40 40 40 39 40 40 40 41 40 42 44 46 47 45 50 51 46 43 46 44 43 43 43 42 43 41 42 43 40 39 39 35 34 33 29 33 32 33 31 31 30 34 34 34 35 34 34 34 34
42 41 40 40 41 41 39 40 40 40 40 40 40 40 42 43 45 46 46 49 49 45 44 44 43 45 47 47 47 42 43 45 44 44 42 39 32 36 32 33 31 34 36 35 35 33 33 34 35 35 34 34 35 35
42 42 42 42 41 41 41 40 40 40 40 40 40 40 41 43 45 44 44 46 47 46 41 40 45 43 46 48 47 47 46 47 47 46 43 37 34 35 33 33 34 36 36 34 33 32 32 34 34 34 34 34 34 34
42 41 42 42 41 41 40 40 40 40 40 41 39 40 41 42 44 44 44 46 48 47 41 42 43 44 47 47 47 47 46 45 45 44 43 40 38 37 35 34 33 34 36 34 34 34 33 33 34 34 33 33 33 31
41 42 41 41 40 39 40 41 41 40 40 37 39 40 41 42 43 43 42 49 50 50 43 40 45 45 46 47 47 46 46 45 46 44 43 44 43 41 33 32 36 34 34 37 36 34 33 34 33 33 33 33 32 32
41 42 40 40 39 40 39 39 39 37 37 38 39 40 42 42 42 39 40 45 46 48 43 38 40 44 46 46 46 46 47 46 46 45 43 43 42 42 38 32 35 36 34 34 34 33 33 33 32 33 33 33 33 32
41 41 40 40 39 39 38 38 37 38 36 37 38 40 41 42 42 41 43 45 47 47 45 36 37 41 45 44 43 47 44 45 44 43 42 41 39 39 36 37 35 34 34 33 33 34 33 32 32 31 31 31 30 29
41 41 40 40 39 39 38 38 37 36 37 39 40 42 43 41 40 45 50 49 49 46 39 38 35 34 44 43 42 43 44 41 43 41 40 39 37 34 36 36 35 33 33 32 32 32 31 31 29 29 29 29 28 27
41 40 40 40 39 39 39 38 36 35 39 39 39 37 38 40 40 47 47 44 42 43 42 39 39 37 42 41 38 40 39 38 34 39 39 37 37 39 39 37 36 34 33 31 30 27 28 27 28 27 27 27 27 26
39 40 40 40 39 39 39 36 36 38 38 36 36 33 38 40 39 44 37 38 39 36 41 38 38 37 40 38 38 38 35 34 30 32 36 33 34 36 36 38 36 34 32 32 32 31 31 29 26 25 25 26 26 25
39 39 40 39 40 40 38 36 38 37 37 37 37 39 36 34 35 33 32 35 36 35 38 39 37 37 37 39 37 36 33 34 30 34 34 32 34 31 33 35 34 33 33 32 31 29 27 26 25 25 26 27 27 27
38 39 40 39 40 39 35 38 38 37 38 38 36 31 31 31 29 30 29 33 33 36 36 36 33 36 35 37 33 32 32 32 29 29 29 31 28 30 31 32 33 33 31 28 26 26 25 26 26 26 27 28 28 27
39 39 39 40 37 36 38 38 37 38 38 31 28 24 26 29 31 31 31 26 29 35 37 36 34 35 34 32 31 25 32 29 26 25 24 26 26 30 31 31 31 29 27 26 25 26 26 26 26 27 28 28 27 26
39 39 39 36 37 39 38 37 39 40 36 29 30 24 29 33 32 32 33 33 35 37 36 34 33 34 32 31 27 29 27 25 26 25 25 25 21 27 30 30 28 26 26 26 27 26 26 26 26 26 26 27 26 25
39 38 32 36 39 38 37 37 38 38 33 30 30 28 33 32 32 32 32 33 36 38 34 35 32 29 30 30 23 20 22 23 27 26 23 22 27 27 27 27 26 26 26 26 26 26 25 25 25 24 23 23 22 20
38 33 36 39 38 37 37 36 35 32 30 28 31 34 32 32 32 32 34 34 39 36 35 32 30 26 24 21 20 21 23 28 27 22 23 21 23 25 26 26 26 26 25 25 24 24 23 22 21 21 18 15 15 14
34 34 39 38 36 34 31 34 31 28 26 28 26 24 30 32 33 35 35 36 37 34 32 31 27 23 20 19 19 25 26 28 24 20 23 25 25 26 26 25 25 25 24 24 23 23 23 21 19 16 15 15 14 13
36 37 36 36 34 28 22 29 32 24 18 28 29 26 31 31 33 36 36 36 37 36 33 31 24 21 23 23 23 20 20 23 26 26 24 25 26 25 25 25 25 24 23 23 22 21 19 18 16 14 13 13 11 10
38 35 36 34 34 24 22 24 26 26 23 18 27 28 26 28 32 33 33 34 34 33 32 30 26 25 26 27 26 27 25 25 26 24 23 23 24 24 25 25 24 23 22 21 20 19 15 14 13 13 13 12 11 11
33 32 33 29 25 29 27 25 20 24 26 25 20 20 25 26 31 32 32 32 32 32 32 31 28 27 28 28 29 29 28 29 28 27 24 20 23 24 24 24 24 22 21 19 17 19 17 14 13 15 15 13 10 8
30 33 27 23 17 11 21 26 17 19 23 23 18 15 23 21 22 25 29 29 28 25 26 27 29 27 27 27 27 27 29 28 27 27 27 26 23 23 24 24 23 23 23 22 18 16 15 15 15 14 13 12 11 9
30 24 17 14 10 6 8 13 11 9 17 11 12 10 10 14 23 28 24 23 24 27 27 26 26 26 26 27 28 28 28 27 25 25 25 24 24 25 24 24 24 22 20 18 18 16 16 19 17 13 12 9 9 10
23 13 12 10 6 2 10 2 11 9 5 9 4 7 7 12 17 22 21 20 21 22 20 22 27 26 26 25 25 27 27 26 25 24 24 24 23 22 22 21 21 21 19 18 18 18 16 14 16 10 9 10 8 4
11 3 4 -5 -2 1 -1 2 -3 5 3 1 4 4 11 18 15 12 17 15 15 16 16 17 21 25 24 23 23 25 28 27 25 24 23 21 18 18 18 18 18 19 20 19 17 16 15 12 11 10 9 8 5 3
4 0 2 -3 -3 2 4 0 -1 1 1 -0 4 10 13 17 12 5 9 10 12 14 13 13 13 15 22 23 22 23 24 26 25 22 22 22 21 20 18 17 17 16 18 18 16 13 12 11 10 9 7 9 12 4
3 2 11 17 14 13 9 9 9 5 -2 -1 2 3 7 9 9 9 11 11 10 13 13 13 15 17 20 19 20 21 22 24 23 21 23 24 24 23 22 20 18 16 17 17 15 13 11 9 8 9 8 6 4 4
13 10 6 6 8 5 1 1 -1 -0 2 10 9 0 3 11 12 6 5 7 10 11 11 17 18 19 19 19 19 19 19 20 20 21 20 20 20 20 20 19 18 20 18 16 15 13 11 10 9 7 4 3 2 0
18 15 10 -2 -1 2 2 4 3 7 11 4 2 3 3 6 1 1 4 7 9 11 15 16 16 18 18 18 19 20 21 22 22 18 15 14 14 15 19 19 19 20 19 17 17 14 11 9 7 6 5 2 -1 -3
12 16 6 -4 1 3 1 3 -0 11 8 7 9 6 6 2 2 4 6 8 9 11 16 17 18 18 18 18 17 16 17 20 22 20 17 14 13 16 18 17 16 15 15 14 13 14 17 12 11 5 3 1 -1 -3
11 9 -0 -1 -1 -5 -4 2 3 12 -1 -5 -1 0 0 -2 3 8 8 8 10 15 17 16 16 18 18 18 18 17 14 16 18 18 16 16 16 16 15 14 14 15 14 13 11 9 6 3 2 0 -2 -3 -2 -5
6 1 2 -1 -3 -2 -0 -6 -9 -7 -9 -4 -3 -6 -2 4 4 7 9 9 14 14 18 17 15 14 16 17 18 19 19 16 16 17 16 14 13 13 13 13 13 11 9 7 5 3 1 0 -1 -2 -4 -7 -10 -11
3 -2 -7 -9 -6 -4 -1 -4 -5 -9 -9 -11 -6 -5 2 6 5 8 11 11 10 12 12 13 14 14 14 14 15 15 15 14 16 19 19 18 17 15 11 9 8 7 5 3 2 0 -1 -2 -4 -6 -8 -11 -14 -13

GFSWCAN_sfc_dewp_006.txt.gz
Dewpoint
41 42 43 42 41 42 41 40 41 40 40 41 40 41 40 43 46 46 45 49 47 43 43 42 41 40 39 39 36 41 40 41 40 37 37 36 35 32 29 29 30 31 30 29 29 27 22 34 33 31 32 33 33 34
41 42 42 42 42 42 42 41 41 41 40 41 40 41 40 41 44 46 43 46 49 45 42 45 44 43 42 41 41 42 41 41 42 40 38 39 36 32 31 27 31 31 32 31 31 29 32 34 34 35 34 33 33 34
42 43 42 42 42 41 41 40 40 40 41 40 41 41 39 41 43 45 43 45 47 45 44 42 42 44 46 46 45 41 43 44 44 46 42 38 35 35 31 31 29 32 35 34 33 32 34 33 34 34 34 34 35 35
42 42 41 42 41 40 39 40 41 41 41 41 41 39 40 41 42 43 42 44 43 45 40 38 45 43 45 47 46 46 46 47 47 46 43 39 35 35 33 33 33 35 35 34 33 34 32 33 34 34 34 34 34 34
43 41 42 41 40 40 40 39 39 39 38 38 38 38 39 40 42 42 43 44 44 45 41 42 42 43 46 46 45 47 46 45 44 43 42 40 38 36 34 34 32 35 36 34 34 35 33 33 34 34 33 33 33 32
42 41 42 40 40 40 39 38 38 38 37 38 37 37 38 39 41 41 39 48 49 49 44 39 45 44 46 47 46 46 46 45 45 44 43 44 42 39 33 32 35 35 35 37 36 33 33 34 33 34 33 32 32 31
42 41 41 40 40 39 39 38 38 38 37 37 38 38 38 39 39 37 38 44 44 45 44 38 37 44 45 44 46 46 47 45 45 43 43 43 42 42 39 35 36 36 35 34 34 33 33 33 33 33 33 33 33 31
42 39 40 40 40 40 39 39 38 38 36 37 38 39 40 41 40 39 42 44 44 43 45 36 37 40 45 43 42 46 44 45 44 43 43 41 40 40 37 37 35 34 34 33 33 34 34 33 33 32 31 30 29 29
40 38 40 40 40 40 39 39 39 37 38 41 39 41 43 41 38 42 43 44 46 46 39 38 35 32 43 43 42 43 44 40 43 41 41 40 38 35 38 37 36 34 34 32 32 32 32 32 31 31 30 29 28 29
41 38 40 39 39 40 40 39 37 37 39 38 39 36 37 37 41 42 45 43 42 43 43 39 38 37 40 41 39 40 40 38 34 39 39 38 37 39 39 37 37 35 33 32 30 29 29 30 31 30 29 28 28 28
41 38 37 38 40 40 40 38 36 38 37 35 32 34 38 40 39 42 37 38 39 36 41 39 36 37 39 37 38 38 35 34 33 32 36 33 34 36 36 38 38 34 32 32 32 31 31 31 29 27 27 27 26 26
41 39 39 39 40 40 38 37 38 36 35 36 36 38 38 34 33 32 33 35 35 32 38 39 37 36 37 39 37 36 31 34 30 32 34 31 32 31 33 35 34 33 32 32 31 31 30 29 27 27 26 25 25 24
40 40 39 40 40 37 38 39 38 37 38 38 35 31 31 31 28 30 28 32 33 36 36 36 33 35 35 35 34 32 32 31 29 30 30 30 28 30 31 33 32 33 32 29 28 28 27 27 27 26 26 26 24 23
40 40 40 40 38 38 39 38 37 39 38 29 26 20 26 26 30 31 31 32 32 33 36 36 30 31 35 30 31 31 32 30 28 26 23 25 25 28 31 31 32 30 29 27 26 26 27 27 27 27 27 26 24 23
40 40 40 36 37 39 38 37 39 40 35 29 28 20 25 32 32 33 33 32 34 37 35 35 33 32 31 26 27 30 28 26 26 25 25 24 21 27 29 29 28 27 26 26 27 26 26 27 27 27 27 26 25 23
39 39 31 36 39 38 36 37 38 38 33 30 26 21 31 27 26 33 33 33 35 38 35 35 32 31 31 27 25 25 22 23 26 25 23 20 26 27 27 28 27 27 26 26 26 26 26 26 26 26 25 24 23 20
38 33 36 39 39 37 36 35 34 32 29 27 29 32 29 28 31 32 34 35 38 36 34 33 30 29 26 22 21 23 24 28 29 22 28 21 22 25 26 26 26 26 26 26 25 25 25 25 24 23 21 18 17 15
34 34 38 39 36 33 29 34 31 28 24 28 27 19 28 28 29 31 35 37 36 34 33 32 28 21 19 20 20 25 27 25 26 21 22 24 24 25 26 25 25 25 25 24 24 25 25 25 22 19 18 17 15 14
37 36 38 36 33 26 20 21 31 23 24 26 27 27 26 28 30 31 32 36 37 37 34 32 29 22 23 23 22 19 18 22 25 25 23 23 25 25 25 25 24 24 24 24 23 23 21 20 18 17 15 14 12 12
38 35 35 33 33 21 13 22 26 25 23 18 26 25 26 26 26 29 32 33 33 32 32 31 30 26 26 25 23 24 23 25 25 24 23 23 23 23 23 24 23 23 21 20 20 20 16 15 14 14 13 12 12 12
32 32 32 29 25 25 22 24 23 23 24 23 24 23 22 16 27 31 32 32 31 32 32 31 30 29 28 28 28 28 27 27 27 27 25 19 23 24 23 23 22 21 20 19 17 18 17 14 13 15 14 11 9 8
30 31 26 22 17 10 20 26 21 17 21 21 19 14 21 21 14 23 27 27 26 25 26 26 27 27 27 27 27 27 28 28 27 27 27 27 23 23 23 23 22 21 20 20 18 15 14 15 14 12 10 11 11 11
28 23 16 14 11 6 6 12 10 15 17 13 8 6 4 4 11 16 21 21 23 23 22 24 23 27 27 28 29 28 28 27 26 25 26 24 24 25 24 23 23 21 19 18 18 17 17 18 16 12 12 10 10 11
22 13 12 10 6 0 8 1 10 6 4 5 3 4 2 4 12 9 10 13 17 19 18 17 19 21 27 28 26 27 27 26 24 24 24 24 24 23 23 23 22 22 20 18 18 19 17 14 17 11 10 11 8 4
14 6 5 -3 -2 1 -2 -1 -4 3 3 -2 12 5 4 10 8 3 6 4 6 15 15 15 15 16 17 23 25 26 28 26 24 23 22 23 20 20 20 19 19 19 20 20 18 18 17 14 13 13 11 9 7 7
5 2 3 0 -3 1 3 -2 -3 0 -0 -0 2 4 1 9 6 5 5 6 10 8 12 11 11 11 13 18 21 24 24 27 24 21 21 21 21 21 20 19 19 19 20 20 19 16 14 13 12 12 11 12 13 4
4 3 9 14 12 10 8 8 9 4 1 7 -1 0 1 -0 -2 7 12 10 8 7 10 12 12 12 13 15 21 22 23 22 22 21 24 25 25 23 22 21 19 18 19 19 18 16 13 12 11 11 11 8 5 4
14 10 6 7 8 4 1 1 -1 1 3 9 8 -2 -2 3 6 3 2 2 4 8 8 10 14 17 17 18 20 20 20 21 20 21 21 21 22 23 23 22 22 24 21 18 16 14 13 12 12 10 6 3 3 2
17 14 11 5 -1 6 3 4 3 7 10 6 4 3 4 5 -1 -3 1 0 1 6 8 12 15 18 18 18 19 20 20 21 19 18 14 14 15 17 22 22 22 21 20 19 21 18 14 11 8 5 3 2 1 -0
11 13 6 -1 2 3 2 3 -2 3 7 6 8 5 5 3 0 -3 -2 -4 -2 5 8 13 17 17 17 17 16 16 17 20 24 18 16 14 14 18 20 20 19 19 20 19 18 17 19 12 11 5 3 2 1 -2
14 7 0 1 1 -5 -6 -0 1 11 -2 -6 -4 -1 0 -1 2 -1 -2 -1 6 7 12 15 16 16 18 18 18 17 15 17 19 19 18 18 18 18 19 19 20 20 18 15 12 10 7 5 3 2 -0 -2 -0 -4
9 4 3 -0 -3 -2 -3 -7 -10 -7 -9 -7 -6 -9 -5 -1 -1 -1 -0 5 11 13 16 15 13 13 15 16 18 20 20 18 18 18 18 17 17 17 17 17 17 14 10 8 6 5 4 3 2 1 -1 -4 -5 -6
1 -5 -10 -9 -8 -7 -3 -5 -6 -9 -9 -11 -8 -5 -7 0 2 1 3 9 10 12 12 13 14 14 15 15 16 18 19 18 21 23 23 22 20 17 13 11 10 8 6 4 4 3 2 1 -0 -2 -4 -6 -7 -8

GFSWCAN_sfc_dewp_009.txt.gz
Dewpoint
40 41 42 42 41 41 40 40 41 41 41 41 41 41 41 40 42 44 43 47 43 44 42 42 42 39 39 38 37 39 39 40 40 36 36 35 32 32 29 29 31 30 30 29 31 29 22 34 37 34 33 33 33 37
40 41 41 41 41 40 40 40 40 41 41 41 41 41 40 40 41 44 41 44 44 44 42 46 44 43 41 41 41 42 40 41 41 38 38 39 35 33 30 28 31 31 31 30 31 29 32 34 33 34 34 33 34 36
41 42 42 40 41 40 39 39 39 39 39 39 39 39 39 39 41 42 42 43 43 45 42 42 41 44 45 44 45 41 42 43 43 46 43 39 36 35 30 30 29 33 35 35 34 33 34 35 34 34 34 34 35 35
41 43 42 41 41 40 40 39 39 38 38 38 38 38 38 38 39 40 41 42 42 41 40 37 44 41 45 46 46 45 46 47 46 46 42 40 35 36 33 33 33 35 36 34 34 34 34 34 34 34 34 34 34 33
41 43 42 41 40 40 40 39 39 38 38 38 38 37 38 38 38 39 40 42 43 40 40 41 42 42 45 45 46 46 45 44 44 42 41 39 39 35 33 33 32 35 35 34 33 35 34 33 34 34 34 33 33 31
41 43 41 39 40 40 40 40 39 39 38 38 37 36 38 38 38 39 37 45 45 46 42 38 45 42 46 46 45 45 45 45 44 43 41 43 42 38 33 32 35 35 35 37 36 34 33 34 34 34 32 32 32 31
41 43 39 38 40 40 39 39 40 39 39 38 37 38 39 39 39 36 36 42 43 42 42 38 37 45 45 45 45 45 46 45 44 42 41 43 43 43 39 35 37 37 37 35 34 33 33 33 33 33 32 32 32 29
41 43 40 37 40 39 39 39 39 39 39 38 38 39 40 40 40 38 42 44 45 41 44 36 36 39 45 42 42 46 44 45 44 43 43 42 41 41 38 39 37 34 34 34 33 34 34 33 33 32 31 30 29 28
41 42 40 37 39 39 39 39 40 39 37 39 39 40 43 41 38 40 42 43 45 43 39 38 34 29 44 43 42 44 44 40 43 41 41 40 39 36 38 38 37 35 34 34 32 33 33 32 31 31 30 29 28 28
41 42 41 38 37 38 40 40 39 37 38 38 38 35 35 37 41 42 44 41 40 43 43 39 37 36 40 40 40 40 40 38 34 39 40 37 38 39 39 39 37 36 34 32 31 29 30 30 31 30 29 28 28 28
41 42 41 40 40 38 40 38 38 38 36 34 32 32 37 40 40 38 36 38 39 37 41 38 35 36 40 37 38 36 35 34 33 31 36 34 33 35 35 36 38 36 33 33 33 32 33 32 31 29 28 28 28 28
40 42 40 40 40 40 39 38 39 35 35 36 36 38 38 34 33 31 32 35 35 33 38 38 37 36 36 38 37 36 30 34 30 31 33 31 32 31 32 34 36 34 33 32 32 32 32 31 29 28 27 27 26 25
40 42 40 40 40 40 38 39 38 36 39 37 34 28 28 31 28 29 28 32 33 35 36 36 35 36 35 34 33 29 32 31 29 30 30 29 30 30 31 33 33 33 32 30 29 29 29 28 28 27 26 25 23 22
41 42 40 40 39 38 39 38 37 39 37 26 27 17 27 28 29 31 30 31 34 33 35 36 34 34 34 29 30 33 31 31 28 26 21 25 26 27 30 31 32 31 29 28 27 28 28 27 27 26 25 24 22 21
41 41 40 38 38 39 38 37 39 40 34 28 26 15 26 32 32 33 33 32 35 36 36 35 34 32 26 29 28 31 29 27 28 25 24 23 21 25 29 30 29 28 27 27 27 27 27 27 25 25 24 24 22 21
42 39 32 36 39 39 36 36 37 38 33 30 27 19 29 20 20 30 31 31 36 38 35 35 33 31 30 30 26 28 26 24 26 27 23 21 26 28 29 29 28 27 27 26 26 27 27 26 25 24 24 23 22 20
39 33 36 38 40 37 35 34 33 31 29 26 28 32 30 27 26 28 29 33 37 35 34 33 31 30 26 23 24 24 24 28 30 25 24 26 21 25 27 27 27 27 26 26 26 26 26 26 24 22 20 19 18 17
35 33 37 40 36 32 28 26 30 27 24 28 27 26 28 27 24 27 29 34 34 32 33 32 30 24 19 20 22 26 27 22 27 27 22 24 25 25 27 26 26 26 25 25 25 26 25 25 24 20 19 18 16 15
37 36 38 36 33 26 19 21 28 21 22 25 26 26 26 27 27 28 29 32 34 36 33 32 29 23 22 21 21 23 22 22 26 26 24 24 25 25 25 25 24 24 24 25 25 25 24 22 20 19 17 16 14 13
38 37 35 33 33 21 12 17 28 24 18 22 25 24 24 24 25 24 26 31 32 31 31 30 30 29 26 25 23 26 28 26 25 24 24 23 22 20 23 24 24 23 21 21 21 21 19 18 17 16 15 14 13 13
31 32 31 28 25 23 20 22 22 23 23 22 22 22 21 24 22 24 27 31 30 30 31 28 26 25 27 29 30 28 28 28 27 26 25 19 22 22 21 22 22 21 21 20 18 20 19 16 15 17 15 12 10 9
31 31 25 22 19 13 20 26 21 19 17 13 19 18 19 20 21 15 24 24 23 21 23 22 22 21 21 24 27 28 29 28 28 28 27 27 23 22 22 22 22 21 21 21 20 16 15 15 14 12 11 11 12 12
29 23 16 16 14 7 5 11 10 15 15 8 9 8 7 8 10 12 22 16 16 18 20 20 20 21 22 25 28 29 30 28 27 26 26 24 24 23 23 23 23 22 20 19 18 18 17 17 15 11 12 11 11 11
22 14 14 12 10 2 7 1 9 5 3 6 14 2 -0 0 11 7 17 8 14 19 16 12 15 16 18 22 24 26 27 28 27 25 25 24 23 22 23 22 22 22 20 19 19 18 16 13 16 11 11 12 9 5
16 11 8 1 0 1 -2 -1 -5 3 2 -3 13 7 1 14 11 1 8 6 2 13 11 11 12 13 14 15 19 21 26 27 26 25 24 24 22 21 20 20 19 19 20 20 19 17 17 15 14 14 12 10 8 8
10 7 5 5 -3 1 1 -3 -3 -1 -1 3 6 1 -2 6 7 9 6 3 9 7 6 7 9 9 10 13 15 16 20 24 26 24 23 24 22 22 20 19 19 19 21 20 19 17 16 15 14 13 11 12 14 7
9 8 8 11 10 8 7 7 7 4 1 1 -2 -0 -2 -2 -2 7 8 7 4 1 2 3 7 8 9 11 14 18 21 23 23 24 25 26 25 23 22 20 20 20 21 22 21 19 16 14 13 13 12 11 10 8
16 11 7 7 7 4 1 1 -0 1 2 7 7 -1 -0 3 6 6 5 -0 -2 -5 -1 5 7 8 10 13 16 19 20 21 21 22 22 22 23 22 23 22 23 26 24 22 20 19 17 15 13 12 10 8 7 6
16 11 11 6 -2 5 2 3 3 6 10 8 5 3 4 7 1 -2 1 -1 -8 -7 -4 1 6 6 13 15 18 20 20 20 19 17 16 14 15 18 24 25 25 24 24 22 24 19 16 14 13 11 9 5 3 2
13 10 5 0 3 4 3 3 -2 -2 7 6 7 6 5 3 0 -5 -3 -5 -5 -2 -3 -0 6 10 13 13 15 17 18 19 20 21 17 16 16 19 21 21 21 22 22 21 20 20 22 16 14 7 4 2 1 0
11 4 0 1 1 -5 -6 -3 -2 10 -3 -8 -6 -1 0 -0 2 -3 -5 -6 -4 -1 -2 3 7 9 12 13 16 16 15 18 21 21 20 19 20 20 20 21 22 22 21 18 15 13 12 9 6 4 2 2 4 1
8 2 2 1 -3 -3 -6 -9 -11 -8 -10 -9 -7 -10 -6 -4 -2 -1 -3 -5 -1 4 9 10 9 10 14 16 17 20 21 19 19 20 20 19 19 20 19 19 19 18 16 15 13 10 8 6 4 3 3 1 -0 -1
-3 -6 -9 -7 -6 -6 -4 -6 -7 -9 -10 -11 -8 -6 -8 -2 1 1 -0 1 4 7 9 12 14 15 16 17 17 18 19 19 21 23 23 22 22 20 18 17 16 15 11 7 6 5 4 4 2 1 0 -1 -2 -3

GFSWCAN_sfc_dewp_012.txt.gz
Dewpoint
39 40 41 43 41 41 40 40 40 39 39 39 40 40 39 40 40 42 42 46 41 39 42 42 40 40 40 40 36 39 39 40 41 36 36 34 33 32 32 31 32 30 32 31 32 28 29 34 36 32 34 35 34 37
40 40 42 43 40 41 40 40 40 39 38 38 38 38 38 39 39 41 40 43 44 40 43 46 44 43 41 41 41 42 40 40 41 38 38 38 34 35 32 29 33 31 33 31 32 31 33 35 36 36 35 35 35 36
39 40 42 43 41 41 40 40 40 39 38 38 38 38 38 37 38 39 41 43 40 40 45 44 42 45 45 45 46 41 43 43 44 45 42 40 36 38 33 33 33 35 36 35 35 34 35 36 36 35 35 35 35 37
39 40 42 43 41 40 40 40 40 39 39 39 38 38 37 38 38 38 40 42 41 38 39 39 45 44 47 47 45 45 45 46 46 46 42 38 37 38 36 35 35 36 37 36 36 36 36 35 35 34 35 34 34 34
39 40 42 43 40 40 40 40 39 39 39 39 39 38 37 37 39 39 40 41 41 38 38 42 44 45 46 46 46 46 46 45 44 42 41 38 41 37 37 36 35 36 36 34 32 36 35 34 34 35 34 33 32 31
39 40 42 43 39 38 40 40 38 38 38 39 39 38 38 38 38 39 37 44 42 41 38 39 45 44 45 45 46 45 45 45 45 43 41 42 43 39 38 36 36 36 37 37 36 35 34 35 34 34 33 33 32 31
39 40 42 43 40 38 39 39 40 39 38 39 39 38 38 39 40 35 35 41 42 42 38 38 38 45 46 45 45 44 46 46 44 43 41 41 42 42 40 36 37 38 37 37 36 34 34 34 34 33 33 32 31 28
38 40 41 43 41 38 37 37 39 39 39 38 38 38 39 40 39 38 40 42 44 41 41 37 37 39 45 43 41 45 44 45 44 43 43 42 42 42 38 40 40 38 36 36 35 34 34 34 33 32 32 30 29 27
38 40 41 43 42 40 38 38 38 38 39 38 38 39 43 41 37 39 41 43 44 41 39 39 36 35 44 43 43 44 45 41 44 41 41 41 39 37 39 40 39 39 37 36 34 34 34 33 32 31 31 30 29 27
39 40 41 43 41 39 39 40 39 38 38 37 37 36 35 37 40 42 41 39 40 41 42 39 38 37 41 42 41 41 41 39 35 39 40 38 38 41 41 40 40 38 37 34 34 34 35 35 34 31 31 30 29 27
38 39 41 43 40 40 40 40 38 39 36 36 32 33 37 40 40 38 34 35 39 37 41 40 38 37 42 38 39 39 38 36 34 35 36 36 35 37 36 35 37 39 36 35 34 34 34 33 32 31 29 28 28 26
39 39 40 42 40 40 40 39 39 37 36 36 37 39 38 35 34 33 32 35 36 35 40 39 38 38 40 40 39 38 36 36 33 33 34 33 36 36 32 33 35 37 35 34 32 33 33 33 31 29 29 28 27 25
38 38 41 42 40 40 39 39 37 38 39 37 34 30 31 33 30 29 27 32 33 35 36 37 37 38 38 38 36 35 34 33 33 33 30 34 36 32 29 33 34 33 33 32 32 32 32 31 31 29 28 26 25 23
38 39 42 41 40 38 39 37 38 40 36 30 28 24 29 28 30 30 31 32 35 34 36 38 36 36 36 36 34 33 33 32 30 29 30 35 32 28 30 33 33 32 31 31 30 30 31 30 29 29 28 26 23 21
38 40 42 40 37 39 38 36 38 40 35 29 28 24 27 30 33 33 33 33 35 36 36 36 35 34 34 33 31 33 31 29 29 30 34 34 29 28 31 32 32 30 29 29 30 29 29 28 26 26 27 26 22 20
39 41 36 36 38 39 36 37 38 38 34 31 28 27 29 28 27 30 32 32 36 37 36 36 34 34 34 33 30 31 29 28 32 35 35 28 29 30 31 31 30 28 28 28 28 28 27 26 25 24 23 21 20 19
40 37 36 37 39 35 35 34 35 32 28 27 29 31 31 28 27 29 27 30 34 35 33 33 32 33 30 30 28 30 30 34 32 33 29 30 30 30 29 29 28 28 27 27 27 27 26 24 23 22 21 20 19 17
38 35 37 38 35 32 30 31 31 28 24 29 26 28 28 28 27 28 30 31 30 32 33 32 32 31 29 28 29 28 29 29 30 29 28 28 28 28 28 28 27 27 27 27 27 27 27 25 24 22 21 21 19 18
39 37 38 36 33 29 25 26 30 20 23 26 27 26 26 26 28 28 28 30 32 34 33 33 31 30 29 28 28 28 29 28 28 27 27 26 26 27 27 28 28 27 28 28 26 25 25 23 21 20 19 18 16 15
41 38 35 34 32 26 21 21 28 24 20 24 25 24 24 23 24 25 26 29 32 32 30 31 30 29 27 27 28 28 28 28 28 27 27 27 25 25 27 27 26 26 26 26 25 24 21 20 19 19 18 17 15 15
34 34 31 30 28 26 24 23 22 24 24 22 23 22 21 23 22 24 26 29 30 29 29 26 24 24 24 23 24 28 28 28 28 28 27 28 26 25 25 25 26 24 24 23 22 22 21 19 17 19 20 15 13 12
32 32 25 24 22 20 23 25 23 22 19 18 20 19 19 20 21 23 23 24 26 25 23 22 22 22 20 21 23 25 27 29 30 29 30 29 27 25 24 25 25 25 25 25 23 20 18 18 17 14 13 13 13 13
29 24 20 20 15 11 12 16 15 17 16 14 14 15 16 17 19 17 22 24 22 21 21 20 19 18 18 19 22 26 28 28 27 28 28 27 27 26 26 25 26 26 24 23 22 21 20 19 17 13 13 12 12 13
23 21 20 15 13 9 10 8 12 12 12 15 16 13 10 13 17 18 20 19 18 20 18 16 13 12 14 16 16 17 22 23 25 27 28 27 26 25 24 24 23 24 23 21 21 20 18 14 17 13 12 14 12 7
20 17 13 5 8 11 7 6 6 10 6 6 14 9 11 15 17 15 16 17 13 15 16 14 12 11 11 11 13 15 19 21 22 21 24 28 26 24 23 22 21 21 22 22 20 19 19 17 16 16 14 12 11 10
18 13 9 11 9 9 7 5 5 6 5 8 9 7 7 12 10 11 13 15 14 15 14 12 10 9 9 11 11 12 14 17 19 19 21 27 26 25 23 21 20 20 22 22 20 19 17 17 16 15 13 14 16 10
15 11 10 10 9 7 8 9 8 7 6 3 6 8 8 4 6 11 13 12 13 12 11 11 9 8 9 10 11 12 14 17 20 20 22 25 27 28 26 23 22 21 22 21 20 18 17 17 16 15 15 14 12 11
17 14 12 14 11 8 6 6 6 6 6 8 10 4 5 8 9 14 13 11 10 7 7 7 7 8 9 9 11 12 15 17 20 22 23 23 24 27 28 27 26 24 23 22 22 22 21 19 18 15 13 11 13 13
17 13 14 6 4 6 7 7 7 8 10 11 10 8 8 10 10 9 8 6 2 4 5 7 9 8 8 11 13 15 16 18 17 16 17 18 18 21 25 26 27 26 25 26 27 24 22 20 17 13 12 11 11 11
16 15 9 5 7 8 8 6 5 4 9 9 9 10 9 9 8 3 4 3 5 7 7 5 5 5 7 10 12 14 16 18 19 18 19 19 19 22 25 24 24 25 25 24 23 24 25 19 16 10 9 9 7 5
12 9 6 5 6 0 -1 -1 1 8 1 1 -1 6 7 5 7 3 2 3 4 2 2 5 7 8 9 10 10 12 14 18 19 20 23 22 22 22 23 23 24 23 23 22 19 16 15 12 10 9 9 7 6 3
11 6 6 4 1 -2 -3 -4 -4 -2 -4 -2 -0 -4 -0 3 4 7 3 2 3 5 9 11 8 9 10 13 14 16 19 20 20 22 23 21 21 22 23 23 23 22 20 18 16 15 14 12 10 8 7 6 5 5
2 -1 -5 -4 -6 -5 -3 -3 -4 -5 -5 -7 -2 -2 -2 2 5 6 3 3 6 6 8 10 12 14 15 16 17 18 18 19 22 23 24 24 23 22 20 19 19 18 17 16 15 14 12 10 8 7 5 4 5 5

GFSWCAN_sfc_dewp_018.txt.gz
Dewpoint
41 41 42 40 41 43 44 42 41 42 40 40 40 39 39 38 38 39 40 43 39 36 36 39 40 38 37 37 35 40 39 39 39 36 34 34 33 32 31 31 31 30 31 31 32 30 25 34 34 33 35 37 36 36
42 41 42 41 41 42 44 42 40 42 42 40 40 40 39 38 37 38 37 41 42 37 36 40 40 41 44 44 42 41 40 39 41 38 37 38 34 36 33 29 34 29 31 32 31 31 33 36 36 37 36 36 36 36
42 41 41 41 41 42 43 41 39 39 41 40 40 40 38 38 38 36 37 41 41 37 38 41 43 44 45 46 46 41 42 42 41 44 40 39 35 39 34 32 33 32 34 34 33 34 35 36 36 36 35 35 36 38
42 42 42 42 41 42 43 43 40 39 41 40 39 40 37 38 39 36 38 39 39 35 32 40 45 44 47 46 45 46 45 46 46 45 41 38 37 39 37 37 35 36 37 35 35 36 37 35 35 35 34 35 36 34
43 43 42 41 40 41 42 44 41 40 39 40 40 41 40 40 39 38 39 39 40 35 33 37 42 46 46 46 45 45 45 45 45 42 41 38 40 39 38 37 34 35 35 35 34 36 36 35 35 35 34 34 33 32
44 43 41 41 40 41 42 43 42 40 40 40 40 40 38 38 38 38 33 42 43 40 34 35 45 44 45 46 45 44 44 45 45 43 41 42 41 40 37 34 34 34 35 36 35 36 35 35 35 34 33 33 32 31
43 43 43 42 41 40 42 44 41 39 40 40 40 40 39 39 39 35 31 39 42 42 35 34 40 45 45 45 45 46 45 45 44 43 41 41 41 42 39 35 35 35 35 37 38 36 35 35 34 34 33 32 32 29
42 42 42 42 41 40 42 44 41 40 40 40 40 39 40 40 39 37 38 40 41 37 38 34 38 41 45 42 42 45 44 44 44 42 43 41 41 41 37 37 37 37 37 38 38 37 36 35 34 33 31 30 29 27
42 42 42 41 42 40 41 43 41 39 40 40 38 40 41 39 34 38 42 42 42 38 34 38 35 34 44 43 43 42 44 40 44 41 41 41 39 36 38 38 39 40 40 38 37 35 34 34 33 32 30 29 27 27
42 42 42 42 42 40 42 42 40 40 39 38 38 35 33 36 41 41 38 36 35 38 38 38 39 38 42 42 40 41 42 39 35 39 41 38 37 39 40 39 37 38 41 37 35 32 32 31 32 32 31 30 28 27
42 42 42 42 42 40 41 41 40 39 36 37 33 32 38 40 40 37 33 33 35 34 40 40 39 38 42 38 39 40 37 36 34 35 35 35 35 37 35 33 33 35 36 37 37 37 36 35 33 32 32 30 28 26
42 42 42 43 42 40 42 40 40 38 35 36 35 38 38 36 33 32 32 34 34 34 39 39 38 39 40 41 38 39 35 35 32 35 33 32 36 35 29 30 32 35 35 37 37 35 35 35 34 33 32 29 27 25
42 42 42 43 41 40 42 39 39 37 40 39 35 31 32 34 29 29 27 32 32 34 35 36 36 38 39 39 37 36 33 33 33 32 30 30 33 30 30 32 34 35 34 34 34 34 35 35 35 32 29 27 24 21
42 42 42 43 40 41 39 39 38 39 38 31 28 24 29 28 28 30 31 32 34 34 35 37 36 34 36 35 35 32 35 32 29 28 26 33 31 31 31 32 32 33 32 32 32 33 34 35 33 31 30 28 23 20
43 42 43 42 40 40 39 38 36 40 32 29 28 25 28 31 33 33 33 34 35 37 36 36 35 36 34 34 33 33 30 28 28 26 32 31 30 31 30 30 31 31 30 31 32 32 32 31 30 29 28 25 22 21
42 42 41 40 40 38 37 36 38 38 34 31 29 28 30 30 29 30 32 32 35 34 36 35 34 33 33 33 30 29 28 27 30 27 29 31 30 30 29 29 30 30 29 30 30 30 30 28 27 26 24 22 21 21
42 38 39 39 39 36 35 37 36 32 29 27 27 30 32 30 27 27 28 29 31 34 32 32 32 33 33 31 29 30 30 30 29 28 28 29 29 29 28 29 30 29 29 29 28 28 28 27 26 23 22 22 20 19
39 40 40 38 38 32 34 35 32 29 25 28 26 29 28 29 28 27 29 30 30 31 32 31 31 30 30 29 29 29 29 30 31 27 27 29 29 28 27 28 29 28 28 28 28 27 27 26 25 23 22 21 20 19
39 39 39 39 35 33 30 31 31 24 25 28 28 27 28 27 27 27 27 29 30 30 30 32 30 30 30 29 29 28 25 28 28 28 28 29 28 27 27 27 28 27 26 25 27 26 26 25 23 22 20 18 17 16
40 40 40 40 33 31 26 27 30 26 22 24 27 25 24 24 24 24 24 27 27 25 22 25 29 29 28 28 29 28 26 26 26 25 26 27 28 26 26 25 26 26 26 25 25 25 22 21 21 20 20 18 17 16
39 39 38 35 32 31 28 26 25 26 26 24 27 23 18 20 17 21 25 28 26 18 18 24 25 23 26 24 24 24 24 24 22 24 23 24 27 28 29 24 23 26 25 26 25 23 23 21 20 20 21 18 17 16
35 36 32 32 28 26 26 27 26 25 23 23 21 20 13 12 13 17 22 23 24 21 23 23 22 22 21 19 19 19 20 21 23 25 26 25 24 26 26 29 23 21 22 23 24 23 22 20 20 20 18 17 17 17
35 33 29 27 24 21 20 23 22 22 20 18 16 12 12 12 20 22 19 18 20 23 24 21 17 16 16 18 19 19 20 21 21 21 22 22 23 25 25 26 25 22 22 23 24 23 20 22 22 17 17 16 17 18
31 29 26 23 23 19 16 19 18 19 18 16 14 7 9 11 18 18 13 18 21 23 20 14 16 16 17 17 16 17 17 17 16 18 19 19 18 21 23 23 26 25 27 26 22 22 21 20 20 17 16 17 18 15
26 22 23 18 17 14 14 14 16 16 13 13 8 8 8 10 8 7 11 16 17 18 18 16 15 16 14 14 14 15 18 16 14 15 14 17 17 19 19 22 24 25 26 27 25 22 19 21 19 18 18 18 16 14
21 20 17 17 14 13 14 13 11 11 12 7 9 9 6 8 4 4 12 14 17 18 21 19 17 16 15 15 13 13 14 15 14 13 13 15 16 18 20 20 20 22 24 28 27 25 24 21 19 19 18 19 19 14
20 17 16 14 13 11 11 11 12 13 8 6 8 7 5 1 1 10 15 16 17 15 15 16 16 15 13 11 14 14 14 10 11 12 14 15 16 16 16 16 16 19 23 27 28 27 24 23 20 19 19 19 19 15
21 16 12 13 13 15 11 10 9 7 9 13 12 4 3 5 6 12 14 12 11 9 7 8 9 8 7 7 8 11 9 11 10 10 14 15 16 17 17 19 20 23 25 27 28 28 26 24 23 21 20 20 19 17
17 18 17 14 13 12 12 10 10 12 12 12 9 8 11 15 12 10 10 7 4 4 3 4 5 4 3 5 6 10 10 8 8 7 6 8 9 10 16 20 23 25 28 27 30 29 26 25 24 23 22 20 19 18
19 20 15 12 11 10 11 9 7 6 10 11 11 12 12 12 10 7 6 2 1 1 1 1 0 -1 0 1 7 7 9 13 13 12 10 10 9 10 15 19 23 24 26 27 27 27 30 27 27 22 19 18 17 16
20 19 15 14 11 5 1 2 5 10 8 4 4 6 8 6 8 6 3 2 1 -2 -2 -3 -1 1 4 5 5 8 9 7 9 11 15 17 18 18 18 19 23 25 26 26 25 25 25 19 17 16 16 15 15 12
18 14 13 9 4 -1 1 4 6 6 4 0 2 -2 0 2 3 7 1 -1 -3 -1 7 4 2 4 5 8 12 14 18 16 15 14 11 14 16 18 20 22 25 26 25 24 21 18 17 16 16 15 14 12 11 12
8 7 9 6 2 4 4 3 3 -1 -3 -3 -1 -1 -2 2 4 6 2 0 1 1 2 2 4 7 9 12 15 17 21 19 19 23 23 24 24 23 22 23 23 22 20 18 18 17 16 16 15 14 13 12 12 12

GFSWCAN_sfc_dewp_021.txt.gz
Dewpoint
41 42 42 43 42 41 41 43 43 40 40 42 40 40 40 39 38 36 36 40 38 36 35 36 38 38 42 37 35 39 37 38 38 34 33 32 31 32 31 32 33 32 32 31 33 30 25 32 35 34 34 37 36 37
42 43 42 42 42 42 41 42 44 40 39 40 41 40 40 39 39 37 33 38 40 36 33 38 36 36 38 42 41 41 38 38 38 35 34 36 32 34 32 29 33 31 31 31 31 29 30 35 35 37 36 35 35 37
42 43 42 42 42 42 42 42 43 42 40 40 41 39 39 39 39 38 34 36 38 33 33 36 37 41 41 41 46 41 42 41 41 42 38 38 35 36 31 32 33 34 34 33 33 33 35 36 36 35 35 34 35 38
43 42 43 42 42 43 41 41 43 44 41 40 38 40 40 41 39 39 35 36 36 33 29 32 43 44 46 46 45 46 45 45 44 43 39 39 36 38 33 35 35 36 36 35 34 36 36 35 35 36 34 36 33 35
43 44 43 43 44 43 41 41 42 44 42 39 40 40 40 41 40 38 37 37 38 31 31 33 37 44 46 45 45 45 44 43 43 41 40 37 39 38 37 36 35 35 33 34 34 36 36 35 36 35 34 34 32 32
43 43 43 43 44 44 41 41 42 44 41 40 40 41 40 41 41 40 31 42 42 39 32 30 43 44 45 45 44 44 45 45 44 42 41 42 42 39 36 35 35 35 35 35 34 36 36 36 34 34 33 32 32 31
43 42 42 43 43 43 42 41 42 44 41 40 40 40 40 40 40 35 29 39 41 40 33 30 37 45 45 45 45 45 45 44 43 42 41 41 41 41 39 34 35 36 37 38 38 36 35 35 34 33 32 32 32 29
44 43 42 42 43 43 43 41 42 43 40 40 40 39 40 41 38 37 37 42 40 35 34 30 37 41 45 43 42 45 43 44 44 42 42 41 41 41 37 37 39 40 40 38 38 38 37 35 33 32 31 29 28 27
44 42 42 42 42 43 42 41 42 41 40 40 39 40 39 37 34 38 41 41 40 36 31 34 34 34 44 43 43 42 43 39 42 40 40 41 38 36 38 39 38 36 38 39 36 35 34 34 32 31 30 29 27 26
44 42 42 42 42 43 41 41 43 40 39 38 37 35 34 37 41 41 39 35 34 35 35 33 40 37 41 41 39 41 41 38 35 39 41 38 37 39 32 31 31 31 33 36 36 32 30 29 32 31 30 29 28 26
44 43 42 42 42 43 41 41 42 39 37 35 33 31 36 40 39 37 33 32 35 33 38 39 38 37 41 37 38 39 36 35 33 35 34 33 36 31 30 30 32 34 34 35 36 37 37 35 33 32 31 29 28 28
44 43 42 41 43 43 40 42 40 36 34 35 36 38 38 36 33 31 31 34 33 33 38 38 37 39 38 40 38 38 34 34 31 35 33 30 34 31 30 31 32 33 34 34 35 37 36 36 34 33 31 29 27 25
44 43 42 42 43 42 40 42 40 37 38 39 36 31 32 33 28 27 27 32 32 33 35 35 35 36 37 38 36 35 33 32 33 32 30 31 31 31 30 31 31 32 32 33 33 34 35 35 35 33 30 27 24 24
43 42 43 42 42 40 40 40 38 37 36 31 27 24 27 27 28 29 30 31 34 34 35 36 35 33 36 34 36 32 34 32 28 28 27 30 30 31 30 30 30 30 31 32 32 33 35 35 34 32 29 26 25 26
43 43 43 43 42 40 41 39 35 38 33 28 28 22 27 31 32 32 32 33 34 36 36 36 35 36 33 33 34 32 30 27 27 27 29 26 30 30 29 28 29 30 30 30 32 31 32 34 33 32 32 30 28 21
44 43 42 41 40 40 38 36 37 37 32 29 28 26 29 29 29 30 30 31 34 34 35 34 33 33 33 32 31 29 27 26 29 26 25 28 29 29 28 28 28 29 29 29 29 30 29 29 29 27 24 22 21 20
44 39 40 40 40 37 35 35 34 29 28 26 26 30 30 29 29 21 28 30 32 34 32 32 31 31 32 31 29 31 29 28 29 30 24 26 27 29 27 28 28 29 28 29 29 28 28 28 24 23 22 22 21 20
40 40 41 39 38 33 34 33 31 26 24 27 26 27 30 29 28 26 27 29 30 32 32 31 31 30 30 30 29 28 29 30 26 24 25 26 27 28 27 28 28 28 28 28 27 26 26 25 25 23 22 22 21 19
40 40 41 40 37 32 29 29 29 23 23 26 28 28 29 29 28 26 27 28 28 29 30 30 29 28 28 29 29 29 28 28 25 25 25 26 26 27 27 28 27 26 26 26 27 27 26 25 23 22 20 19 17 17
42 41 41 41 34 29 24 24 28 24 16 23 27 26 26 26 24 22 22 25 24 25 23 24 27 28 26 25 29 29 27 25 23 22 22 24 25 23 27 28 28 25 24 23 23 26 23 22 22 20 20 18 17 17
40 40 38 36 31 29 26 21 19 20 20 21 24 25 20 18 13 20 16 27 24 12 13 21 23 22 25 23 24 24 23 23 21 21 20 17 22 22 23 25 28 27 24 25 25 25 25 22 21 20 21 19 18 17
36 37 33 33 28 25 24 25 22 23 21 21 21 20 16 14 14 18 20 22 22 18 19 20 19 22 22 19 19 19 19 19 20 22 24 24 20 18 20 20 25 25 26 22 23 24 24 23 21 20 19 18 19 18
36 33 30 28 24 23 17 20 18 19 19 16 17 15 14 14 17 23 16 17 17 19 21 19 15 15 18 18 18 19 19 18 18 18 19 20 20 20 20 20 21 25 25 25 23 24 21 24 23 19 18 17 17 19
34 30 26 24 24 17 17 14 20 20 18 17 16 14 12 12 20 18 15 16 19 20 19 13 14 15 17 17 15 16 16 18 16 16 18 17 15 18 20 20 20 20 22 24 26 23 24 21 23 19 17 18 19 20
26 23 24 16 13 9 10 13 15 16 14 15 15 12 11 13 7 10 12 14 10 15 14 14 13 14 14 13 13 14 16 15 12 12 11 16 16 15 13 15 17 19 24 24 25 23 22 22 22 19 18 20 20 18
22 20 17 12 8 11 12 12 13 14 15 14 13 11 12 8 7 6 10 10 13 13 15 18 18 15 15 15 14 12 13 14 12 11 11 13 15 12 6 13 16 16 17 19 23 24 23 24 23 21 20 21 22 16
18 14 19 19 14 13 12 13 14 15 12 10 11 10 7 4 3 7 12 12 14 12 13 15 17 17 16 10 13 13 12 6 9 10 11 12 14 15 11 12 12 14 17 17 21 25 23 23 24 23 23 24 22 17
18 13 11 12 13 15 12 11 12 11 11 13 12 9 6 4 4 9 12 8 5 2 2 4 7 7 6 5 5 9 4 3 3 4 8 12 14 14 14 15 16 20 19 19 20 22 26 25 24 24 23 23 22 20
13 15 15 12 14 14 13 11 11 12 13 14 9 6 7 11 8 7 8 4 -2 2 5 4 3 -5 -2 -2 -1 -0 3 2 3 4 5 7 9 7 8 13 15 16 19 21 25 27 27 26 25 25 24 23 21 20
12 18 12 13 15 14 14 13 13 11 11 11 11 10 10 9 8 3 3 -1 1 2 -1 -4 -5 -3 -2 -4 -1 1 1 6 8 9 8 8 7 4 3 9 14 16 19 22 24 25 29 30 29 26 21 20 19 19
19 17 14 13 12 10 7 6 7 10 3 -1 -1 3 5 6 7 3 1 -2 -4 -9 -4 -4 -6 -11 -5 -3 -4 -0 7 4 5 8 11 13 14 15 15 15 15 17 19 22 24 25 27 25 20 18 18 18 18 17
18 16 14 11 8 6 6 7 5 -0 -3 -3 -1 -6 -3 1 2 7 -2 -4 -7 -4 6 -1 -4 1 1 2 4 8 17 15 15 15 14 14 14 13 13 14 17 19 21 23 24 23 19 17 17 17 17 16 14 14
6 7 10 8 6 3 5 1 -2 -2 -3 -5 -4 -5 -7 0 4 4 -1 -5 -1 -0 0 0 0 -1 1 5 10 13 16 15 17 23 24 24 24 20 16 18 20 21 21 20 19 19 18 17 16 16 14 14 14 14

GFSWCAN_sfc_dewp_024.txt.gz
Dewpoint
44 42 42 42 42 43 43 42 43 45 41 39 39 41 40 40 38 36 34 38 33 30 31 33 37 37 40 38 35 37 36 37 36 33 32 31 30 31 29 31 33 32 32 32 33 30 25 32 36 34 33 36 37 36
45 43 43 42 41 42 44 42 43 43 44 40 40 41 39 39 39 37 34 36 39 34 29 36 33 33 33 40 42 41 36 37 37 34 33 33 31 32 30 26 32 32 32 31 31 30 31 32 35 36 36 35 35 35
45 43 44 42 42 42 43 42 42 42 44 42 41 39 38 40 41 39 35 36 35 32 29 30 29 30 32 32 36 41 42 41 40 39 36 36 33 35 30 30 31 34 34 33 33 34 33 34 36 35 35 35 35 37
45 44 44 44 42 43 45 43 42 42 43 44 41 39 40 40 40 40 37 38 37 31 27 26 36 35 37 42 41 44 45 44 42 41 37 36 34 37 33 33 35 36 36 35 34 35 36 35 35 35 35 36 34 36
45 45 44 44 44 45 45 44 41 41 43 43 41 39 40 41 40 41 37 37 37 30 25 27 29 28 35 43 45 46 45 43 41 40 38 36 37 37 37 36 35 35 34 33 31 35 36 36 36 36 34 34 33 33
45 45 44 44 44 44 45 44 42 42 42 43 40 41 40 40 40 39 34 40 40 37 28 24 36 36 45 45 45 44 45 45 44 41 40 41 42 39 36 34 35 36 36 36 34 35 36 36 35 35 33 33 32 32
45 45 44 44 44 45 44 43 42 41 43 42 40 40 40 39 41 36 29 37 42 39 32 28 31 39 45 45 45 45 45 44 43 42 41 40 40 41 39 35 34 38 41 42 40 38 36 35 35 34 32 32 33 29
45 44 44 44 44 43 43 44 42 42 43 41 40 39 39 40 39 37 37 40 40 36 33 28 30 41 46 42 42 45 43 43 43 42 42 40 40 40 37 36 38 37 32 37 35 37 37 35 33 32 31 29 28 27
45 44 45 44 43 42 43 43 41 43 42 39 39 40 39 36 33 37 41 41 40 36 30 32 31 33 45 43 43 42 44 39 42 39 40 40 38 36 33 29 29 30 31 32 34 36 34 34 32 31 29 28 27 26
45 45 45 44 43 42 43 43 41 42 39 38 36 34 32 35 40 41 39 35 34 34 33 30 37 37 42 41 40 40 40 39 35 40 41 38 37 35 30 30 31 32 33 34 33 32 34 28 31 31 29 29 27 27
46 45 44 43 42 42 43 41 42 40 36 34 32 31 35 39 38 37 32 31 33 32 34 35 38 38 42 38 39 41 36 35 33 35 36 34 35 29 31 30 31 32 32 33 34 35 36 36 35 33 30 29 28 27
46 45 44 43 42 42 43 40 41 36 33 33 35 38 38 35 33 31 30 33 33 33 37 38 38 39 39 40 38 37 32 34 31 35 33 30 33 31 31 30 30 30 31 32 33 34 35 37 36 34 31 29 28 28
46 45 44 43 42 43 41 40 41 38 38 38 36 31 31 32 26 26 26 31 32 33 34 35 35 37 38 39 36 35 32 32 33 32 29 31 30 30 30 30 29 30 31 32 34 34 35 35 35 33 31 29 27 23
46 46 44 43 43 42 40 41 39 36 35 31 28 24 26 25 28 29 30 31 34 34 34 36 35 35 36 34 35 31 33 32 29 27 28 30 27 29 29 29 28 29 30 31 34 33 34 36 34 32 29 26 25 24
46 45 43 43 43 42 40 40 36 37 32 26 28 21 25 28 31 32 32 33 35 36 35 36 35 36 33 33 34 32 30 27 28 26 30 24 25 28 29 28 28 28 29 29 30 33 31 34 33 33 33 32 30 29
46 45 43 43 43 41 40 36 36 36 30 27 28 24 28 28 29 30 30 30 35 34 35 34 33 33 33 32 31 29 27 25 27 29 23 25 27 28 28 28 28 28 28 28 29 29 30 30 32 33 33 32 30 27
45 40 43 42 41 38 36 35 34 28 26 25 25 29 27 29 29 28 29 30 32 33 32 32 32 27 32 31 29 31 29 30 29 30 23 24 25 27 28 28 29 28 28 28 28 27 27 28 25 24 23 24 26 26
40 41 42 41 37 34 32 32 28 23 24 25 25 25 30 30 29 28 27 28 31 31 32 31 31 30 30 30 27 29 29 30 28 23 23 24 25 26 27 27 28 28 27 27 27 27 25 24 24 24 23 23 22 21
40 41 42 40 37 30 26 26 27 21 23 25 28 28 28 28 29 27 27 27 27 29 29 30 29 28 28 28 27 19 27 29 26 24 24 24 25 25 25 26 28 25 24 25 26 27 27 26 25 23 21 20 19 18
42 43 42 41 33 26 20 22 26 24 20 23 26 25 26 26 25 24 24 24 24 17 21 25 27 29 26 24 23 23 23 26 24 20 19 22 22 19 21 22 24 25 23 22 24 28 24 23 22 21 20 19 18 17
40 41 41 36 32 28 23 17 15 19 20 22 23 24 20 22 18 16 18 23 18 19 14 20 21 22 25 24 24 24 24 23 21 17 14 15 20 19 19 18 18 23 24 25 25 25 26 24 23 22 21 21 18 18
36 38 33 34 28 23 19 22 17 20 17 16 19 19 13 14 14 14 16 19 20 19 19 20 19 22 22 20 19 20 19 21 19 20 22 23 18 16 17 17 17 14 16 23 24 24 24 25 24 22 21 20 20 18
36 34 31 30 25 20 16 19 14 15 15 11 11 12 12 12 17 23 15 18 20 21 21 21 16 14 19 16 17 17 18 17 16 17 17 18 19 18 16 16 17 11 17 18 18 20 22 27 26 24 20 20 18 18
35 31 27 25 25 17 16 9 19 16 15 15 12 10 10 11 19 17 12 17 19 20 19 18 16 15 15 16 14 15 15 16 14 15 16 14 12 13 16 17 17 16 17 19 19 22 24 25 27 23 19 19 19 19
27 25 25 19 14 7 2 7 10 14 11 15 17 15 12 14 9 8 13 18 12 15 18 16 15 16 15 14 13 14 16 16 14 14 10 14 14 13 12 13 14 16 17 15 19 22 23 24 22 20 18 20 20 22
23 22 19 12 5 7 7 7 11 13 16 16 17 12 11 13 8 6 13 16 14 16 18 19 19 16 15 15 13 11 13 15 13 10 8 13 14 11 4 8 12 13 16 15 13 14 20 22 21 20 19 20 25 23
21 17 19 19 14 13 12 13 14 16 15 16 13 11 13 8 5 10 13 15 15 13 13 16 18 17 15 10 13 13 11 10 11 10 9 10 12 14 12 11 11 13 15 13 14 14 16 19 21 22 22 22 24 24
23 16 13 12 11 13 10 11 12 12 15 15 13 10 9 6 9 12 12 10 5 1 -1 1 4 6 6 6 6 11 4 -0 -2 -0 4 9 11 12 12 14 14 18 17 16 16 16 17 17 20 22 22 22 23 24
12 12 13 8 12 12 11 11 13 13 14 15 13 10 9 13 12 10 11 6 -4 1 5 5 4 -5 -1 -1 -2 -3 -2 -0 2 2 5 8 4 5 5 6 6 8 12 14 20 23 24 23 22 23 22 23 24 22
10 14 12 14 15 14 16 14 16 14 13 13 12 12 12 12 11 5 5 0 3 5 1 -2 -5 -1 -1 -2 -3 -2 -2 1 4 7 5 7 6 2 -2 2 7 9 11 15 17 17 22 25 27 29 25 21 20 20
17 14 14 15 15 9 7 8 10 10 7 5 4 8 8 6 8 4 2 -2 -4 -9 -4 -4 -7 -14 -6 -6 -7 -6 1 1 -0 4 7 9 11 11 12 12 12 11 10 12 15 17 19 22 24 18 17 17 18 19
14 16 14 11 9 7 8 7 6 5 4 2 2 -2 -1 1 2 8 -3 -6 -7 -3 7 -1 -5 0 -2 -1 -3 -0 15 14 12 13 13 14 14 14 15 14 10 10 12 14 17 19 21 19 18 19 18 18 18 16
10 11 10 8 7 7 5 8 5 2 1 -2 -1 -3 -6 0 4 6 -2 -6 -2 -1 -1 -1 -1 -3 -2 -1 2 6 13 8 10 20 21 23 24 24 17 14 14 15 16 17 18 19 19 19 18 17 17 15 15 15

GFSWCAN_sfc_dewp_027.txt.gz
Dewpoint
46 45 44 43 43 42 41 43 43 42 44 45 42 40 42 40 39 37 34 37 32 28 29 30 35 33 36 38 33 35 36 36 35 31 31 30 29 31 29 31 31 33 31 32 31 31 24 34 38 33 33 36 36 36
46 46 45 43 43 41 40 43 43 43 43 43 44 41 40 39 39 38 33 37 39 33 28 32 29 30 32 35 35 39 35 35 36 33 32 32 31 32 29 27 32 32 33 31 31 29 31 34 34 36 36 35 35 35
47 47 45 45 43 42 43 44 45 42 42 43 44 43 39 39 39 40 36 38 37 34 29 29 27 27 30 30 31 35 40 41 38 38 35 34 31 33 29 30 29 33 34 33 33 35 34 34 35 36 35 34 35 36
46 46 45 45 44 44 44 45 45 44 41 43 44 43 40 39 39 41 39 39 38 35 26 24 28 31 35 32 34 31 35 45 43 40 35 34 32 35 32 32 33 34 35 34 33 34 35 36 35 36 35 35 35 36
46 45 46 45 45 45 44 45 45 44 43 42 43 43 40 41 40 40 39 39 39 35 25 25 27 25 24 24 35 40 36 41 41 40 37 36 38 35 35 34 32 34 33 32 31 33 35 36 37 36 35 35 33 34
47 46 45 45 44 44 44 45 45 44 42 42 43 43 40 40 40 39 34 39 38 38 32 22 30 32 36 33 42 42 42 45 42 41 38 39 41 37 34 34 35 36 36 36 35 38 39 37 37 35 34 33 33 33
48 47 45 45 45 45 44 44 44 44 42 43 43 41 40 40 41 34 29 33 41 39 32 26 28 35 34 43 45 45 46 44 42 42 39 39 40 40 38 33 34 39 39 36 38 36 37 37 36 35 33 32 33 31
47 46 46 45 45 44 44 44 44 43 42 43 42 40 40 39 39 37 39 40 40 37 34 26 28 34 43 41 41 45 42 42 43 41 40 39 40 40 36 34 30 30 31 31 32 34 34 36 34 33 32 30 29 28
46 45 45 44 45 44 43 43 44 42 44 41 39 40 38 35 31 35 42 41 41 36 29 30 28 33 45 42 43 42 43 38 43 40 38 39 38 36 32 29 29 30 31 31 33 34 34 35 34 32 30 29 28 27
46 45 44 45 44 43 43 43 43 42 41 38 36 33 31 34 40 42 38 35 34 34 33 28 34 35 42 41 40 40 40 38 33 38 40 37 37 32 30 30 31 31 32 32 31 30 29 28 29 32 30 29 28 27
46 45 45 45 44 44 43 43 42 41 35 34 31 30 33 39 36 35 32 30 32 30 33 33 35 39 42 37 39 40 35 35 32 35 37 34 35 30 31 30 30 30 30 31 32 33 34 34 34 35 33 30 29 27
47 47 46 45 44 44 42 42 41 37 34 33 33 38 38 35 32 29 30 32 32 32 36 36 38 39 40 41 37 38 33 34 30 36 33 31 31 30 29 29 30 29 29 31 33 34 34 34 36 36 35 31 29 27
47 46 46 45 44 43 43 41 41 39 38 37 36 31 31 31 25 25 23 30 32 33 34 34 35 38 39 38 35 33 32 31 33 32 30 31 29 28 28 29 29 29 29 30 33 35 34 36 34 34 33 30 28 29
47 46 46 45 44 43 42 40 39 36 34 29 27 23 26 24 26 23 27 26 33 34 34 35 35 35 35 35 35 31 33 32 29 27 28 28 29 27 28 29 28 28 29 29 30 33 33 35 35 32 29 28 25 23
47 47 46 45 44 44 42 40 37 37 30 24 28 19 19 27 30 31 32 32 35 35 35 35 35 36 33 33 33 32 30 28 28 26 26 29 25 27 28 28 28 28 28 28 29 29 30 32 34 34 33 32 29 26
48 47 44 44 44 43 41 37 36 35 28 23 24 22 26 24 22 29 30 30 34 34 35 34 33 33 33 32 31 30 26 25 24 23 29 25 27 27 28 28 28 29 28 28 28 28 27 28 28 32 34 33 32 31
47 41 44 44 43 40 37 31 31 25 21 17 21 28 26 26 25 26 29 31 31 33 32 32 31 30 32 29 29 31 29 29 24 29 26 24 24 25 26 27 28 28 28 27 27 28 27 26 26 25 28 28 31 31
40 41 45 43 37 35 32 31 24 19 23 23 22 25 29 30 28 28 28 29 30 31 32 31 31 30 30 29 26 25 26 30 30 26 23 24 24 25 26 26 27 27 27 26 26 26 26 26 26 25 24 24 24 25
40 43 43 40 37 30 25 24 22 15 18 22 26 28 28 29 29 27 28 27 28 29 29 29 28 28 29 24 26 19 18 28 28 27 24 23 24 24 23 23 24 23 24 23 25 26 26 25 24 24 23 21 20 20
43 43 42 40 34 27 20 21 25 22 14 20 25 25 26 26 25 24 24 26 26 18 21 24 27 29 27 25 25 24 24 25 23 19 16 20 21 17 20 19 20 20 21 20 25 28 26 25 25 23 22 21 19 18
40 42 41 37 33 30 23 15 12 13 12 17 21 24 23 23 23 20 17 25 25 20 20 21 22 23 25 23 24 26 26 24 20 12 8 12 17 17 16 15 12 19 21 22 21 22 24 22 24 25 23 22 21 19
37 38 34 34 30 27 21 20 14 16 13 12 17 20 18 17 17 18 18 14 17 21 21 20 18 21 22 20 20 19 22 22 19 19 21 22 18 14 15 15 13 8 9 11 17 20 20 21 23 25 23 21 22 18
36 34 31 30 26 24 17 18 12 9 10 7 10 13 14 13 16 23 18 16 19 23 21 19 18 17 21 17 18 17 18 17 16 16 17 18 18 17 14 14 13 6 12 13 16 16 16 22 23 25 24 22 19 18
35 31 28 26 27 17 17 7 16 12 10 13 9 10 11 12 17 15 11 14 19 21 19 16 17 17 16 16 15 16 16 17 14 14 15 14 10 12 14 14 15 14 15 17 14 15 19 21 24 23 24 16 17 19
27 26 26 20 15 12 4 3 2 11 6 11 13 12 12 11 7 5 7 16 16 16 16 18 18 17 17 15 14 15 16 16 14 13 11 15 12 10 10 11 13 14 15 7 12 14 15 18 20 21 23 20 17 19
22 24 19 15 6 10 7 3 4 8 12 11 15 12 8 8 2 3 10 17 16 16 19 21 21 18 16 16 15 13 15 16 15 12 9 12 13 9 3 5 10 12 14 14 11 10 11 13 14 17 20 21 25 23
16 18 21 19 15 12 10 11 12 12 11 14 15 12 12 4 2 10 15 16 16 15 17 21 22 21 19 14 14 15 12 13 11 9 9 10 11 13 11 10 10 12 13 11 12 12 12 12 13 14 18 19 19 22
20 17 13 12 10 9 5 8 7 10 15 19 13 8 9 8 9 17 15 15 10 6 5 7 10 10 9 7 7 11 3 -2 -0 1 3 6 7 6 9 12 13 18 16 13 13 14 14 14 14 14 14 17 19 20
16 14 14 8 6 7 6 7 10 14 16 16 14 12 13 15 17 13 14 11 7 9 10 10 6 -6 -2 -2 -4 -5 -2 4 4 3 3 8 1 4 2 5 5 4 6 10 18 20 19 18 17 17 16 18 19 20
9 14 9 10 7 5 8 12 13 15 16 16 14 13 12 14 15 9 9 9 11 14 9 2 -3 4 3 1 -1 -2 -4 -0 4 7 4 7 5 2 -3 0 4 5 6 8 10 10 18 17 18 19 23 22 20 18
14 7 5 8 9 5 4 8 10 10 8 6 7 10 10 9 10 10 10 9 5 -3 -2 -2 -5 -12 -3 -6 -5 -4 2 -1 -2 1 3 5 6 7 9 10 10 10 8 8 8 9 11 12 16 18 19 18 18 18
15 11 10 8 6 6 7 5 6 7 4 3 4 -2 5 5 8 12 3 -1 -3 -0 8 3 -2 2 -1 -3 -4 -3 13 4 5 6 6 10 11 12 13 14 15 14 12 11 11 12 13 13 16 16 15 16 18 16
12 11 10 8 7 6 7 12 9 4 -2 -2 2 1 2 5 7 10 1 -4 -0 -1 -1 0 -2 -5 -3 -1 -0 0 11 3 7 18 21 22 23 21 21 23 16 14 12 12 13 14 14 15 16 16 18 17 15 16

GFSWCAN_sfc_dewp_030.txt.gz
Dewpoint
47 46 46 45 44 44 44 41 43 43 43 42 43 45 41 40 39 38 35 37 32 28 27 28 31 29 31 37 33 34 35 35 34 31 30 29 28 29 28 30 31 30 29 29 29 27 24 34 37 33 33 35 35 35
47 46 47 47 45 44 42 42 44 44 44 42 43 44 46 41 39 40 36 38 39 34 29 30 29 29 29 29 30 35 36 34 35 31 30 31 30 30 28 26 30 29 30 30 29 28 30 33 35 36 36 35 34 33
47 47 46 47 45 45 43 44 44 45 44 42 41 42 46 41 40 39 38 38 37 35 31 30 29 30 30 29 29 29 39 41 37 37 34 33 30 32 28 28 27 31 34 33 32 33 34 34 35 35 36 34 35 35
47 46 46 46 46 45 44 44 45 46 45 44 42 41 43 42 40 41 40 39 39 36 28 24 27 26 30 32 30 29 29 34 39 41 36 34 31 33 30 30 31 33 35 34 33 34 34 36 36 36 35 35 35 35
47 46 46 46 46 45 45 45 45 45 45 45 41 42 44 42 41 40 38 39 39 35 27 26 29 29 27 28 28 30 29 30 37 41 37 34 35 34 33 33 31 34 32 32 30 33 34 35 36 37 36 35 35 34
48 47 47 47 46 46 45 45 45 45 45 44 42 44 43 41 40 39 34 35 37 40 32 24 28 27 31 29 26 24 31 36 39 41 38 37 38 35 32 32 34 35 36 36 37 37 38 38 39 37 35 35 34 33
48 48 48 47 46 45 45 45 44 45 45 42 43 43 40 40 39 35 29 31 40 39 31 21 24 34 33 32 30 32 39 42 41 41 39 38 38 37 35 32 34 35 31 31 35 35 37 37 36 36 35 33 34 32
47 47 47 46 46 45 44 44 45 45 43 42 42 39 40 41 40 36 37 40 40 36 33 24 26 32 37 35 35 41 38 42 43 40 41 36 38 37 34 34 30 30 31 32 32 33 33 34 34 35 33 31 30 30
48 47 46 46 44 44 44 43 43 45 42 43 38 41 39 35 31 33 41 41 40 36 28 28 24 28 40 36 41 43 43 37 41 39 39 38 35 34 34 31 29 30 30 31 32 32 33 33 33 35 32 30 30 29
48 47 45 44 44 44 43 43 43 42 42 37 36 34 32 34 39 41 39 34 33 34 33 27 33 29 41 40 39 39 39 36 34 36 40 37 35 32 30 30 30 30 30 31 29 30 28 30 30 32 33 32 30 29
47 47 46 45 45 45 44 43 43 41 36 33 30 31 34 38 35 36 31 30 31 29 32 32 33 35 42 37 38 39 35 35 32 35 37 33 32 31 30 30 30 29 29 30 31 31 32 32 33 33 34 34 31 29
47 47 46 46 46 44 43 42 42 39 37 34 33 37 38 35 32 29 28 32 31 30 36 35 36 39 40 41 36 37 33 34 30 37 34 29 30 28 28 28 29 29 29 30 31 34 35 34 35 35 35 36 34 30
48 47 47 46 45 44 42 41 41 39 38 37 36 32 30 31 25 25 20 28 31 33 34 34 33 38 40 39 36 35 32 32 34 32 31 27 28 27 28 28 28 28 29 29 30 32 34 34 36 33 32 32 31 28
48 48 47 46 45 44 43 41 40 37 33 27 27 21 25 24 27 24 26 23 32 34 34 34 34 35 36 35 35 31 33 32 30 27 24 22 26 27 28 28 28 28 28 29 29 31 32 34 35 35 32 29 28 28
47 47 47 46 45 44 42 41 37 36 30 22 25 18 22 26 25 26 28 31 29 35 34 34 34 36 33 32 33 31 30 28 28 26 23 23 28 27 27 28 28 29 28 28 28 28 28 29 29 33 34 32 26 25
47 47 45 45 45 44 41 37 36 33 25 21 25 23 25 24 22 24 24 28 34 33 34 33 32 32 32 31 31 29 27 24 25 24 24 28 27 27 27 27 28 29 28 27 27 27 28 27 26 26 33 33 32 30
46 42 45 45 45 42 37 33 27 18 18 19 20 26 24 23 25 24 28 30 31 32 31 32 30 29 32 30 28 30 29 27 27 28 29 26 25 26 25 26 27 28 27 26 27 27 27 27 26 25 24 25 31 32
38 40 45 44 38 36 32 29 19 20 20 14 16 20 28 29 28 29 28 29 30 29 29 30 30 29 29 26 26 27 20 21 30 29 28 25 24 25 25 25 26 25 24 25 25 25 25 25 25 25 24 24 24 26
39 43 44 40 37 33 27 25 21 14 15 13 19 23 27 28 30 29 28 27 29 30 29 28 27 27 28 24 23 19 18 22 26 26 24 24 24 24 23 22 23 21 21 20 24 26 26 25 24 24 23 22 21 21
43 45 41 39 36 28 20 20 27 22 14 15 16 16 23 25 26 26 26 26 27 23 23 22 23 28 27 25 24 24 23 26 24 22 18 21 21 16 19 18 19 17 17 17 19 23 23 22 23 23 25 25 23 20
41 42 39 37 34 29 24 14 13 13 10 14 10 15 17 20 20 22 23 26 22 23 20 23 24 25 27 25 25 27 26 24 22 19 12 12 17 17 16 14 11 17 19 19 18 19 19 19 20 21 24 25 22 21
37 39 34 35 31 27 26 22 13 15 12 7 9 13 8 8 11 17 20 20 18 23 24 21 19 21 22 21 21 20 24 22 18 18 20 21 16 14 14 14 12 7 6 8 14 15 16 17 19 22 23 25 25 21
37 35 32 31 27 24 16 22 15 8 8 4 3 4 4 4 10 20 17 17 20 23 25 21 18 16 21 19 19 17 19 19 16 15 18 17 16 15 13 12 11 4 6 11 14 14 12 19 22 22 23 23 22 20
35 31 27 22 24 19 18 12 16 14 10 9 2 3 1 3 12 14 12 16 18 22 20 14 16 18 18 17 17 18 17 18 14 14 15 14 10 11 13 12 13 12 13 15 12 13 14 17 22 21 21 20 22 17
28 22 26 17 14 11 7 5 5 12 3 1 2 5 5 5 4 3 10 16 17 16 15 17 19 18 19 18 16 15 17 16 14 13 13 15 13 11 10 12 12 13 13 5 9 11 10 12 13 14 15 18 17 20
21 15 21 14 7 12 12 2 4 4 4 2 5 5 1 2 0 5 10 13 16 13 13 19 20 18 17 18 17 14 15 16 15 13 11 15 15 12 6 7 9 11 12 11 8 7 10 11 11 10 11 13 19 21
18 13 22 20 16 12 8 8 10 7 1 4 4 4 4 0 -2 7 13 12 12 11 10 15 20 20 18 17 16 16 14 16 14 13 10 10 12 13 10 7 8 11 12 10 10 10 11 11 11 11 11 11 13 14
21 16 14 13 12 8 5 6 6 7 8 13 12 4 9 8 10 16 16 14 12 9 7 8 10 12 14 13 13 15 10 7 3 3 5 7 5 3 4 6 8 17 15 11 10 11 13 13 13 11 11 11 12 13
22 16 14 3 2 5 7 7 7 11 16 15 11 9 10 14 18 15 15 13 10 11 13 13 11 4 4 5 6 5 5 10 9 6 3 6 1 6 -2 2 3 2 4 5 15 18 17 16 14 13 13 13 14 15
15 14 8 2 6 8 11 10 7 8 12 14 13 12 12 13 17 13 12 9 11 14 15 13 10 10 12 12 8 4 1 -0 4 8 5 6 5 0 -4 -2 2 5 4 5 6 6 16 14 12 10 12 15 15 16
13 6 3 6 6 6 1 2 4 10 3 2 2 5 10 9 11 14 12 14 13 8 6 4 -0 3 6 3 0 -2 4 -1 -3 -0 0 -0 1 2 5 7 8 8 8 8 9 7 5 4 4 6 8 11 15 20
14 15 12 7 5 -3 -2 -1 -2 -0 -3 -2 -0 -5 3 4 7 15 8 4 5 7 10 10 7 7 4 1 -2 -3 12 0 -2 0 0 3 6 10 11 11 11 12 12 10 8 9 8 6 6 9 12 13 15 16
14 14 11 9 4 0 2 3 2 4 -2 -2 0 1 1 6 8 14 5 1 6 7 5 4 2 -2 -2 -1 -2 -2 8 -1 5 17 19 20 22 22 23 17 15 17 14 11 10 8 6 7 8 9 12 13 14 14

GFSWCAN_sfc_dewp_033.txt.gz
Dewpoint
48 47 47 46 47 47 45 44 43 44 44 45 44 43 44 45 40 38 37 37 33 28 27 27 28 32 30 33 35 34 36 35 33 32 32 31 28 29 27 28 29 28 29 28 28 27 23 32 35 34 35 35 36 36
48 46 46 47 47 47 45 44 44 44 45 46 43 42 42 44 42 40 37 38 38 34 29 30 28 27 27 26 25 28 34 34 35 31 30 29 30 29 27 26 29 29 29 28 28 26 29 34 36 37 36 35 35 35
47 46 46 46 46 46 45 45 45 44 46 45 44 42 39 42 45 41 38 39 38 35 33 33 32 32 31 29 29 26 34 41 37 35 32 32 30 31 28 28 28 31 34 32 32 32 33 34 35 36 36 35 35 35
48 47 46 46 46 46 46 45 45 44 45 45 45 43 41 42 44 41 39 39 38 35 29 26 27 26 27 31 31 29 27 32 32 37 34 33 30 32 29 30 30 32 34 33 32 34 34 35 36 36 36 35 35 35
49 49 47 47 47 47 46 46 44 44 44 44 45 40 42 44 43 41 39 39 39 35 27 27 29 29 28 30 30 29 27 27 30 34 38 34 33 33 31 32 30 34 33 33 32 33 34 35 37 38 37 37 37 35
49 49 48 48 48 47 46 45 45 45 44 45 42 42 44 41 40 38 33 35 38 40 31 23 28 27 28 29 30 30 31 31 33 36 39 37 36 33 29 30 32 34 35 35 36 37 38 39 38 38 35 35 35 34
48 48 48 48 48 46 45 45 44 45 44 44 44 44 40 40 40 34 30 31 40 38 30 19 19 31 37 30 29 27 27 34 35 35 38 37 37 36 33 29 33 36 35 32 34 35 35 36 35 34 34 35 35 33
48 47 46 46 47 46 45 44 44 43 44 43 43 41 41 41 39 35 36 40 40 36 32 23 20 29 34 30 29 34 30 32 36 38 41 37 38 36 32 33 31 30 31 31 32 33 33 33 34 34 35 33 31 31
49 48 47 45 46 44 44 44 43 44 43 42 39 40 39 35 31 33 40 42 40 35 25 26 20 24 39 35 36 36 36 32 39 36 39 37 37 34 33 33 30 30 30 30 31 31 32 32 32 32 33 32 30 31
49 48 47 45 44 44 44 43 43 43 42 37 36 34 33 35 38 40 39 35 34 34 33 27 32 28 36 35 36 35 39 35 32 37 39 37 36 32 30 30 30 30 30 30 29 28 27 29 31 31 32 33 33 32
48 47 47 46 44 45 45 43 43 42 39 34 30 31 34 38 36 35 31 29 29 28 31 31 32 31 41 37 36 39 34 34 31 34 34 33 33 31 29 29 29 28 27 29 30 31 31 32 33 33 33 34 34 33
47 47 47 46 46 45 44 42 42 39 37 37 35 37 37 35 32 29 27 31 30 29 36 34 35 36 38 41 37 37 33 33 29 38 34 31 31 26 27 27 27 27 27 29 30 31 34 34 34 35 33 34 36 35
47 47 47 47 46 44 43 41 41 40 38 37 35 32 30 30 25 24 22 27 29 32 33 33 32 36 38 39 35 34 31 31 34 32 30 27 26 26 26 27 27 28 29 29 29 31 33 33 35 36 34 32 31 30
47 47 48 46 46 44 43 41 40 37 32 25 21 18 24 23 27 28 28 27 29 31 31 33 33 35 36 35 35 32 34 32 29 27 24 25 24 26 27 28 28 28 28 28 28 29 30 30 31 33 35 32 28 29
44 47 47 46 46 44 43 41 38 36 27 19 23 17 21 27 27 26 30 31 28 32 32 32 33 35 33 32 34 32 30 27 28 24 21 20 27 28 26 27 28 28 28 27 28 28 28 28 27 27 32 34 30 25
45 46 45 46 45 44 42 38 36 32 21 18 24 19 24 23 23 24 24 25 33 31 32 33 31 32 32 32 31 29 26 24 25 26 22 28 28 26 26 26 27 28 27 27 27 27 27 26 26 26 28 30 33 31
46 42 45 46 45 42 37 32 27 18 16 16 14 22 21 20 23 25 28 28 31 31 29 31 29 29 32 30 27 27 27 29 23 24 26 29 26 25 25 25 26 26 25 25 26 27 27 26 26 25 24 24 25 30
38 38 46 44 38 36 33 30 20 23 12 11 14 15 25 26 24 27 28 28 28 28 28 28 27 27 29 27 28 30 27 21 21 24 29 27 25 25 25 24 24 22 23 23 24 25 24 23 24 24 24 24 23 23
38 40 44 41 39 34 24 24 21 12 14 11 16 18 23 25 27 28 28 28 28 29 27 25 23 24 25 25 25 21 18 21 25 26 25 24 24 25 23 22 21 19 19 19 22 24 24 23 22 22 23 25 22 22
43 44 42 40 36 29 16 19 27 20 10 14 14 12 17 20 22 22 24 27 27 26 24 22 22 27 28 27 25 29 28 26 25 23 23 21 21 16 19 18 18 17 15 14 16 20 20 18 19 20 21 25 24 22
39 40 40 37 35 31 23 11 16 15 10 15 9 10 13 12 10 10 12 23 23 19 20 24 25 27 27 28 27 28 27 26 24 25 23 16 20 19 15 13 11 15 16 16 15 15 16 16 17 19 22 23 25 23
37 39 35 36 33 28 27 22 13 16 18 8 9 11 15 5 2 4 10 20 18 22 24 25 23 22 22 21 23 22 24 24 20 16 18 20 16 15 14 14 11 7 6 8 12 14 14 15 17 21 22 22 24 23
37 36 33 32 28 23 18 20 19 12 9 6 2 3 2 -1 3 17 14 14 18 23 24 22 18 16 18 19 20 17 19 20 18 17 18 17 14 14 13 14 12 5 5 10 12 12 10 17 18 21 22 22 22 21
35 32 29 25 27 19 18 10 16 14 14 11 5 2 -1 -2 7 14 9 12 17 22 21 18 18 18 19 19 18 18 17 18 15 14 15 15 11 12 14 13 12 11 13 14 11 12 12 15 18 20 20 14 14 16
26 24 28 23 20 17 8 5 3 12 7 2 1 3 2 2 2 -0 3 11 13 18 19 18 18 20 20 19 16 17 18 18 15 14 13 14 12 10 9 11 12 13 14 7 9 11 9 10 11 11 12 11 11 11
22 18 23 18 12 12 9 2 7 8 5 2 6 2 -3 -1 -2 3 7 11 15 17 17 19 19 19 19 19 19 17 17 17 16 14 12 15 15 13 12 10 11 13 13 12 10 9 9 10 9 8 9 11 17 14
16 13 21 22 18 13 9 8 8 5 -0 5 5 3 -0 -1 1 7 11 12 15 17 17 16 19 21 19 18 19 17 14 16 15 15 12 12 15 16 15 13 12 13 12 10 10 10 9 10 10 9 9 8 8 10
19 15 14 14 17 12 6 5 4 4 6 10 10 4 4 7 11 14 13 13 14 14 13 12 12 14 14 13 12 14 8 8 7 9 10 11 8 5 7 8 8 16 10 9 9 8 10 10 10 9 9 10 10 10
21 18 15 12 4 6 8 8 8 11 13 13 10 8 9 13 12 10 11 12 11 14 17 14 14 10 8 4 3 5 7 13 14 14 14 14 6 9 -1 1 1 -0 0 2 14 16 11 12 13 13 11 12 13 13
18 18 11 3 8 8 11 11 7 5 10 14 13 10 10 10 11 7 7 8 12 16 19 18 17 14 15 12 11 9 9 9 13 16 14 11 7 1 -5 -3 -2 -0 -2 -0 3 3 15 11 10 7 8 8 10 10
15 9 4 5 8 10 4 1 1 10 0 -2 -3 4 9 6 8 9 12 14 16 13 11 13 12 9 13 12 12 9 10 8 5 5 1 -1 -3 -3 -1 2 5 3 1 3 5 7 6 5 5 4 4 4 4 13
7 11 9 3 4 1 1 3 0 0 -6 -5 -1 -10 -3 -0 4 12 11 6 6 8 12 13 11 12 10 8 4 3 13 4 -1 -1 -2 0 -0 4 7 8 6 6 5 7 10 9 8 6 6 5 5 4 6 9
2 -1 -1 4 5 6 4 7 0 0 -7 -7 -1 -0 -2 4 7 14 7 5 5 7 8 7 7 5 3 4 4 3 8 -2 5 15 18 19 20 18 19 17 15 12 11 11 11 9 7 6 6 7 8 9 10 11

GFSWCAN_sfc_dewp_036.txt.gz
Dewpoint
48 47 47 47 46 47 47 47 45 44 44 45 45 44 43 44 44 41 39 39 35 31 27 26 25 26 26 21 33 34 38 38 37 35 32 31 27 28 29 28 28 27 27 29 28 26 22 31 35 32 35 36 36 37
49 48 46 46 46 46 46 45 45 45 44 45 45 44 42 43 43 42 38 39 38 34 31 30 28 26 25 25 23 23 32 34 37 36 36 34 31 30 30 27 32 28 28 26 27 25 28 34 36 37 36 35 36 36
48 47 46 46 46 46 45 45 45 45 45 45 45 44 43 41 43 43 40 40 39 36 34 34 31 32 33 30 29 25 25 35 36 35 37 36 33 34 30 30 32 33 33 32 31 31 32 33 35 36 36 36 36 36
48 47 46 46 46 46 46 46 46 44 44 44 45 43 41 40 42 43 41 41 39 35 29 26 28 29 29 32 31 30 27 29 33 34 37 37 33 35 32 31 31 33 34 32 32 34 35 35 36 36 36 37 37 38
49 48 48 48 47 47 48 47 45 44 44 44 45 43 42 45 42 43 41 40 40 35 27 26 30 30 29 28 30 30 28 28 28 28 32 37 37 35 34 33 32 35 34 32 31 34 33 34 37 39 39 37 35 36
49 49 49 49 48 48 46 46 45 44 44 44 44 44 44 43 40 40 34 38 40 40 32 25 30 28 27 29 28 29 30 29 30 28 30 36 38 36 35 32 33 34 35 35 34 36 38 39 38 38 35 34 34 35
49 48 48 47 47 47 45 45 43 43 44 44 44 43 43 41 42 36 30 34 40 39 32 25 25 28 35 30 30 30 31 33 31 29 29 34 39 37 35 30 32 34 35 36 36 35 34 36 36 34 34 34 36 35
48 48 47 46 47 46 45 45 44 44 44 44 43 40 40 41 40 37 37 40 40 37 34 24 25 28 32 29 28 29 28 28 31 34 33 34 39 38 34 34 35 35 34 32 33 33 32 32 33 33 34 35 34 33
49 49 47 46 46 45 44 44 44 44 44 43 38 39 41 38 34 36 40 42 41 36 28 28 25 26 36 35 34 31 30 25 32 34 36 39 37 36 35 34 34 32 32 32 32 31 31 32 33 34 33 33 33 33
49 49 48 46 44 44 43 43 43 43 42 36 36 34 33 35 37 39 39 35 34 34 33 28 33 28 35 36 34 34 33 30 31 35 39 36 36 34 31 32 32 31 30 30 30 32 33 34 35 34 34 34 34 34
49 48 48 46 45 44 44 42 42 42 39 36 33 31 35 38 37 35 32 30 31 28 31 30 31 30 38 33 35 36 33 34 32 34 36 34 32 32 30 29 29 29 29 30 30 31 31 32 33 34 35 35 34 35
48 47 47 47 45 45 44 42 42 40 39 38 38 38 38 34 33 30 28 31 30 29 35 34 35 36 36 41 37 37 34 35 31 38 34 31 32 29 28 28 28 28 29 30 30 31 33 33 34 35 36 34 32 32
46 47 47 46 46 45 44 41 41 39 37 38 34 32 30 30 27 26 24 28 29 32 33 32 31 36 37 39 36 35 32 32 35 33 31 32 29 28 28 28 28 28 29 29 29 30 30 32 34 34 35 34 32 32
47 47 47 47 46 45 43 42 39 37 34 29 24 18 25 25 28 28 29 29 31 32 31 31 31 34 36 34 35 32 34 34 31 29 28 31 29 28 28 29 28 28 28 28 29 29 30 30 29 29 33 35 30 26
44 46 47 46 46 45 43 41 38 37 32 25 24 17 23 27 29 30 30 32 33 33 32 30 31 34 33 32 35 33 31 29 29 27 31 31 29 29 28 28 28 28 28 28 28 28 28 28 27 26 29 32 33 29
44 47 45 46 46 44 41 38 36 33 27 26 25 22 24 25 27 27 28 29 33 31 32 32 31 32 33 33 32 31 28 26 31 32 31 29 29 27 26 26 27 27 25 24 27 27 27 26 26 26 25 25 25 31
44 41 46 46 45 40 37 34 30 25 24 22 22 24 25 25 25 26 26 28 30 31 29 30 29 29 32 31 29 31 30 34 33 31 30 30 29 27 25 25 26 24 22 23 26 27 26 26 26 26 25 25 24 25
39 40 46 43 39 37 34 32 27 23 19 21 22 23 24 26 26 26 29 30 30 30 29 28 28 26 28 28 29 35 33 32 30 30 30 29 27 27 24 24 23 20 21 22 24 26 26 24 21 18 21 26 26 25
39 42 43 42 39 34 30 27 26 21 20 19 20 22 24 25 27 28 29 29 29 31 30 28 26 25 26 31 32 34 31 30 29 29 28 27 26 27 24 24 22 22 23 23 21 21 22 21 20 18 18 24 26 25
44 44 42 40 37 32 27 23 27 22 18 19 20 21 22 24 24 25 26 27 28 28 26 24 24 25 29 31 32 33 32 29 27 27 26 24 24 25 25 23 18 19 20 21 19 19 18 15 16 17 21 23 24 25
40 40 40 38 35 33 30 23 21 21 18 19 17 17 21 19 21 21 22 25 26 24 23 25 25 26 29 29 29 29 29 29 28 28 27 27 23 23 22 22 21 15 16 14 13 12 14 14 15 18 21 22 22 23
38 39 36 37 34 29 29 24 21 20 20 16 16 14 17 17 17 17 17 20 22 23 25 25 26 25 25 25 25 27 28 28 27 22 20 24 21 21 20 21 19 19 18 18 14 12 13 14 15 19 22 22 22 22
37 36 34 33 30 27 23 22 23 18 16 14 12 13 13 12 12 16 16 17 19 21 23 24 24 22 22 23 22 23 23 26 25 20 18 17 16 20 21 20 19 19 18 16 15 15 16 15 17 17 21 21 19 17
35 33 26 28 28 24 20 17 17 16 16 14 13 11 11 10 12 15 14 15 16 20 21 21 21 20 21 21 21 22 23 23 24 20 18 17 17 13 14 14 13 15 16 15 16 16 15 13 16 16 18 20 19 17
24 23 27 19 25 20 14 12 9 13 14 6 6 10 11 10 12 9 11 16 17 19 20 19 19 20 20 21 22 22 21 22 22 21 18 17 14 12 14 14 12 12 16 17 16 15 15 14 15 16 16 17 17 17
21 21 23 19 18 17 14 11 9 11 8 2 7 8 7 10 5 10 13 17 16 17 18 19 19 19 20 21 21 22 22 20 20 20 20 18 16 17 18 16 15 15 16 16 17 15 14 14 14 15 14 15 17 16
18 15 20 24 20 16 13 10 10 9 3 6 9 8 8 4 7 12 13 14 17 19 19 19 19 21 22 22 22 22 18 20 21 20 16 17 19 18 20 17 16 16 15 16 15 15 15 15 14 14 14 14 14 14
20 17 16 18 17 16 14 10 8 7 9 11 12 8 8 10 14 19 18 16 16 15 16 17 17 19 21 22 21 18 17 14 13 14 16 16 14 14 15 16 15 17 16 16 15 15 15 15 15 14 14 13 14 14
20 18 16 13 8 12 15 15 11 12 13 14 13 12 13 15 17 17 16 14 12 14 16 18 21 17 17 16 14 16 16 16 17 17 16 18 16 17 9 10 11 12 13 14 17 18 15 14 15 15 15 15 16 16
15 18 16 14 14 14 15 14 13 10 12 15 14 14 14 14 15 13 13 11 12 14 17 19 22 19 19 19 19 17 14 14 18 19 19 18 17 12 9 11 12 12 10 10 10 11 14 16 15 13 13 12 13 13
20 17 14 12 11 13 11 6 5 10 7 6 4 12 15 15 12 12 14 16 17 18 15 16 17 16 16 16 16 17 17 16 14 13 11 11 10 10 11 11 11 10 10 9 9 9 10 11 11 10 10 9 7 12
10 14 11 5 8 2 -1 3 0 3 3 1 8 1 3 4 8 17 15 11 10 12 16 18 15 16 15 15 14 14 14 10 9 7 7 11 10 10 11 11 10 10 11 11 10 10 10 10 10 9 9 8 7 8
1 -1 -4 2 4 4 2 3 2 2 -2 -1 3 4 5 9 10 14 6 4 9 9 10 11 12 11 9 9 10 9 12 8 9 15 16 17 18 17 15 15 15 14 14 13 12 12 10 9 8 7 7 8 9 9

GFSWCAN_sfc_dewp_039.txt.gz
Dewpoint
49 48 47 46 46 47 46 46 46 45 45 45 45 45 43 43 44 43 39 41 34 29 27 27 24 21 22 20 28 33 36 39 38 34 33 29 25 26 25 26 26 26 26 26 26 25 22 30 37 33 35 36 37 37
49 49 48 46 46 46 45 45 45 45 45 45 45 46 45 44 42 44 38 40 38 36 29 30 29 29 28 24 24 23 30 31 38 37 35 31 26 27 26 24 28 26 26 24 26 25 29 32 33 37 36 35 37 38
49 48 47 46 46 47 46 46 45 45 45 44 45 44 43 41 41 42 42 42 40 36 31 31 29 30 33 33 30 25 24 29 35 35 35 37 32 30 26 26 29 30 30 28 28 28 30 31 34 36 37 37 37 37
49 48 47 46 47 47 47 47 47 45 44 44 44 44 43 42 43 44 41 41 40 36 29 25 28 28 29 30 31 30 28 30 31 34 32 37 36 33 28 28 29 31 33 30 30 31 35 33 34 36 37 37 38 38
49 47 47 47 48 48 47 47 46 44 44 44 44 44 44 44 43 42 41 41 41 35 28 27 31 29 29 29 28 29 28 28 28 27 30 33 37 35 33 33 30 33 32 31 28 31 31 31 36 38 38 38 36 35
49 49 48 48 48 48 48 46 46 44 44 44 44 44 44 43 40 40 34 39 40 40 33 26 30 27 26 30 27 28 29 28 30 27 26 29 35 38 35 28 28 31 33 34 32 35 36 37 39 38 37 37 35 34
49 49 48 47 47 47 45 46 44 44 44 44 44 44 42 40 42 36 31 36 40 39 32 27 27 27 31 31 30 30 30 32 30 28 25 26 33 34 37 28 30 32 34 35 38 37 36 36 36 36 34 34 35 35
49 48 48 47 47 47 45 44 44 44 44 44 44 41 41 41 40 38 38 40 40 37 34 26 26 29 32 29 27 29 26 29 34 28 26 24 27 34 35 32 33 34 35 35 35 34 33 33 32 33 34 34 34 34
49 49 48 47 46 46 44 44 44 44 44 43 39 39 41 38 34 37 41 41 41 37 30 29 26 28 35 35 32 29 27 23 25 28 27 30 27 31 37 35 34 34 34 35 34 32 32 32 32 35 35 35 34 34
49 49 49 47 45 44 44 43 44 43 42 38 34 33 33 35 38 39 39 35 34 35 34 28 34 29 35 35 33 30 30 29 28 28 35 34 34 35 33 33 34 33 32 32 31 34 37 37 35 34 35 35 35 35
48 49 48 47 46 44 44 43 43 43 40 37 35 32 35 38 37 34 32 31 33 29 32 32 32 30 37 32 34 34 33 34 29 34 32 33 33 35 31 30 30 30 30 30 31 32 32 33 33 34 34 36 36 34
48 48 48 47 46 45 44 43 43 41 39 39 38 38 37 34 34 31 30 33 31 31 35 33 31 33 36 37 35 36 33 34 32 36 34 32 32 30 30 29 28 29 30 30 31 31 33 33 34 34 35 35 34 33
47 47 47 47 46 45 44 42 41 39 38 38 33 33 31 32 28 26 24 28 28 32 33 32 28 32 37 38 35 34 32 33 36 34 30 33 31 29 29 28 28 29 30 30 31 31 30 32 33 33 33 35 35 32
46 47 47 47 47 45 44 42 39 37 35 31 28 21 29 28 28 29 28 30 31 33 32 32 30 31 36 33 35 32 35 35 32 30 29 34 31 28 28 29 28 28 29 30 30 30 30 30 29 29 30 34 34 30
47 47 47 47 47 46 44 41 37 38 34 29 28 22 25 30 32 33 34 32 33 34 32 30 31 32 32 32 34 33 32 29 30 30 34 34 31 29 29 29 28 28 28 28 28 28 28 28 27 27 28 27 27 32
46 47 44 46 46 45 41 38 37 36 33 31 28 26 26 28 31 30 32 30 34 32 32 32 30 29 31 32 32 32 31 27 32 36 34 30 29 28 27 27 27 25 23 23 26 27 27 26 26 26 26 26 25 25
45 40 46 46 44 40 37 37 34 28 29 24 27 27 28 28 28 27 24 25 30 30 28 29 27 30 30 30 31 34 33 35 35 35 32 32 30 27 24 25 26 23 19 22 27 27 26 26 23 20 20 26 27 26
41 43 46 43 40 38 35 34 32 28 26 28 26 29 25 25 26 25 26 28 29 30 29 28 28 26 27 28 30 35 35 34 33 31 32 30 28 27 24 24 23 19 20 20 23 26 25 23 20 17 19 21 27 27
42 45 44 42 41 37 34 31 31 28 29 27 25 25 25 26 27 26 27 27 30 30 30 29 25 25 26 31 34 37 36 34 33 31 29 29 28 28 26 26 24 23 23 23 20 19 19 19 17 17 18 21 23 25
45 44 43 40 38 35 31 28 29 26 24 24 24 24 24 25 25 25 26 27 27 28 25 24 24 26 27 29 34 35 34 32 30 30 28 27 27 29 29 26 20 21 21 21 21 19 16 15 15 16 20 22 22 21
41 41 40 40 38 36 33 28 27 25 24 23 23 22 23 24 24 26 26 26 26 24 24 25 25 27 29 28 28 30 30 30 30 30 29 30 26 26 27 25 24 17 16 14 11 11 14 12 14 15 20 21 21 22
39 39 38 38 35 32 31 28 27 24 23 23 22 20 21 22 23 22 21 21 22 25 26 25 27 27 25 24 25 28 27 29 29 29 27 25 24 25 25 25 23 22 21 23 16 12 12 12 13 15 19 21 22 18
38 37 35 34 30 28 25 26 25 24 23 22 20 19 20 20 19 19 18 21 22 24 25 25 27 27 24 23 25 25 25 25 26 27 26 24 22 27 27 25 24 25 24 21 18 18 19 15 15 16 16 21 20 18
37 34 31 29 29 24 23 22 21 20 20 19 19 17 20 19 17 18 17 21 22 20 21 25 23 19 19 24 22 23 25 25 25 27 23 22 21 16 19 21 16 20 22 19 19 19 18 13 15 15 15 19 20 18
27 27 29 23 27 24 20 18 17 17 17 17 15 17 18 16 18 17 16 23 24 23 26 22 19 20 19 20 22 23 25 23 24 25 26 22 20 15 18 16 13 13 19 22 19 19 20 18 17 17 17 18 18 18
20 24 24 22 23 21 19 16 14 15 16 15 14 15 14 16 14 16 20 24 22 25 23 20 19 19 20 22 22 23 24 22 22 23 26 23 21 22 24 21 19 19 18 19 22 21 20 18 17 17 16 16 18 18
20 21 23 24 21 19 17 14 14 14 14 14 16 13 14 12 15 19 19 20 22 27 25 23 22 22 22 23 24 24 24 22 24 23 18 19 22 22 24 23 21 20 19 20 20 19 18 17 17 17 17 17 16 16
22 20 18 21 20 20 19 17 16 15 16 16 14 13 12 15 18 26 26 26 25 24 23 22 22 22 22 23 26 25 23 21 20 18 19 20 19 20 21 21 20 18 20 20 19 18 18 17 17 17 16 16 16 17
22 20 19 16 16 18 19 19 18 17 16 17 17 16 18 20 25 25 26 23 21 20 21 21 24 23 21 21 21 22 22 21 20 21 21 20 23 23 19 18 18 19 19 19 19 20 17 17 17 17 16 17 18 18
20 22 20 18 18 18 20 20 22 22 17 18 18 18 17 19 22 24 23 21 20 20 22 23 24 25 23 22 22 22 20 20 21 21 21 21 23 19 15 15 15 16 16 15 15 15 16 18 18 17 15 16 15 15
22 21 19 19 17 20 22 16 14 11 14 17 17 17 16 19 19 21 21 21 22 23 23 22 22 23 21 20 20 19 19 21 19 19 21 18 17 16 16 16 17 17 15 14 14 14 14 14 14 14 13 12 10 14
20 19 18 13 16 14 10 14 16 16 18 13 16 15 14 15 15 18 22 22 21 21 22 22 21 21 22 21 20 21 18 17 15 14 13 17 15 14 15 15 14 14 14 14 14 13 12 11 12 12 12 10 9 9
12 12 11 14 16 15 12 14 14 12 11 11 12 14 16 15 14 20 14 11 15 17 17 18 17 15 12 12 14 14 14 13 12 15 15 16 16 16 16 16 17 16 15 15 16 15 12 11 10 10 9 8 7 8

GFSWCAN_sfc_dewp_042.txt.gz
Dewpoint
49 49 48 47 46 46 46 45 45 45 45 45 46 46 45 44 44 42 41 41 37 30 29 28 26 24 24 23 22 26 32 37 38 33 33 33 26 26 25 25 27 27 27 27 27 26 21 36 37 34 35 38 37 37
50 49 48 48 46 46 45 45 45 45 45 45 45 44 44 43 42 44 40 41 40 37 31 34 32 31 29 29 26 26 27 26 36 35 35 34 29 24 25 23 27 26 27 26 26 27 30 32 35 36 36 36 38 37
50 49 49 47 46 46 46 46 46 47 46 44 44 44 43 42 43 43 43 42 40 37 32 30 29 31 33 33 32 26 27 31 35 35 33 36 34 33 26 26 27 28 30 28 27 28 30 31 36 36 37 37 37 38
50 49 48 47 46 46 46 47 47 48 45 45 44 44 44 44 44 44 42 42 41 36 28 26 29 29 31 33 33 32 30 32 33 34 31 32 35 36 30 29 28 31 31 29 29 31 35 34 33 37 37 37 38 38
50 49 47 47 47 47 48 48 47 45 44 44 44 44 44 44 43 42 41 42 42 36 29 28 32 30 29 29 30 31 30 29 29 29 29 28 35 35 36 34 31 33 32 30 28 31 31 32 34 37 37 38 36 35
50 49 48 48 47 47 48 46 46 45 44 44 44 45 44 43 40 41 36 40 41 40 32 26 32 29 28 33 29 29 30 30 30 28 27 28 31 32 30 32 32 31 33 33 32 37 37 38 39 38 37 36 35 35
49 49 48 47 46 47 46 45 45 44 44 44 44 44 41 42 42 37 34 37 40 39 32 27 27 30 32 32 31 30 30 32 31 30 27 25 25 34 33 27 31 30 33 36 37 38 37 36 37 35 34 34 35 34
49 49 48 47 47 47 46 45 45 45 44 44 42 39 41 42 41 38 39 40 40 37 34 26 26 30 32 31 28 31 28 30 31 28 27 24 25 26 25 31 38 36 36 36 35 34 33 33 32 33 34 35 34 34
49 48 48 47 47 47 45 44 44 44 44 41 36 40 41 38 35 37 41 41 41 36 30 29 26 27 36 34 34 29 29 24 28 27 25 27 26 25 26 23 33 38 35 35 34 33 32 32 34 35 35 35 34 35
49 49 48 47 47 45 44 43 43 43 42 39 35 33 33 36 37 38 38 35 34 34 34 28 34 28 35 34 34 30 30 29 23 26 30 27 30 26 35 38 37 33 33 34 32 32 30 30 33 33 34 35 35 36
49 49 48 47 46 45 44 43 43 43 41 37 34 33 36 39 37 36 32 31 33 29 32 31 32 30 35 31 32 34 32 30 26 31 29 32 31 33 32 32 31 30 30 31 32 33 33 33 33 33 34 36 36 35
49 48 48 47 46 45 44 43 42 41 39 38 37 37 38 35 33 29 30 33 32 30 34 33 31 31 34 37 33 35 31 32 29 35 32 31 33 33 30 29 31 29 30 31 32 33 33 33 34 34 34 35 35 34
48 48 47 47 46 45 44 42 41 38 38 38 33 29 32 29 20 20 21 25 27 33 33 32 30 31 33 37 34 33 31 32 36 32 30 31 31 30 29 29 29 29 30 31 31 31 32 32 32 30 30 33 35 34
47 47 47 46 47 45 44 42 38 37 36 30 23 13 23 21 24 25 26 28 32 32 32 31 30 30 33 33 34 31 35 34 30 28 30 30 30 28 29 29 29 29 30 30 30 30 30 30 29 29 29 29 29 33
47 47 47 47 47 46 44 40 37 38 33 25 24 15 19 28 27 27 27 28 31 33 32 30 30 31 30 31 34 32 31 28 30 30 32 31 29 29 29 29 28 28 28 28 29 28 28 27 27 27 27 27 26 26
47 46 45 47 46 44 41 38 37 35 30 25 23 21 26 22 24 25 25 24 31 32 31 33 29 29 29 31 30 30 30 28 31 32 34 32 31 29 28 28 26 24 22 25 27 27 26 26 26 26 26 27 27 26
45 41 46 47 45 41 38 37 34 24 23 19 21 28 26 24 23 25 25 25 30 27 26 27 24 25 28 28 29 32 30 32 33 33 31 30 29 27 24 26 26 21 20 25 27 28 29 25 21 17 16 19 24 27
41 45 46 43 41 38 35 35 28 23 19 24 21 25 26 25 25 25 26 28 27 26 27 26 29 23 23 24 27 32 33 32 33 32 32 30 28 26 24 24 23 20 20 21 25 27 26 23 20 18 19 21 23 24
43 45 44 42 41 36 30 30 29 22 23 24 25 25 25 26 27 27 26 27 28 29 28 26 24 23 23 27 28 32 32 34 33 32 32 30 28 27 27 26 24 25 26 25 21 20 19 19 17 17 18 21 22 23
45 44 43 40 39 32 24 25 29 21 18 21 22 20 22 23 24 24 25 26 27 26 23 22 22 25 26 27 28 29 29 31 30 29 30 28 28 26 28 29 28 25 23 22 22 20 17 16 16 16 18 22 22 21
40 41 41 39 37 34 31 28 25 23 20 19 19 18 19 22 19 18 25 25 24 23 21 24 25 26 27 27 27 27 26 27 28 29 28 28 28 27 27 26 24 20 19 18 16 13 15 13 14 15 17 20 21 21
39 39 37 37 33 33 30 29 27 23 19 18 16 17 15 15 16 19 21 19 21 20 23 23 23 24 25 23 22 22 25 25 24 26 29 29 25 24 26 26 24 22 18 18 15 12 11 12 13 14 17 19 22 21
38 37 35 34 30 27 24 24 23 22 18 18 17 13 13 12 11 15 9 15 18 23 24 23 21 20 21 21 20 21 21 22 22 23 26 26 25 26 23 24 25 23 22 21 20 19 16 16 15 17 16 18 20 19
37 33 29 29 28 21 22 15 21 19 20 16 13 9 11 11 12 8 9 15 21 22 21 17 20 21 19 19 18 20 21 21 23 24 25 23 21 19 21 24 22 24 22 20 18 16 15 14 15 15 16 14 15 16
27 27 28 25 28 23 16 15 13 17 13 12 8 7 10 9 8 7 9 15 17 19 20 20 20 19 18 18 19 20 21 20 21 23 25 23 22 16 15 16 14 15 20 15 14 14 13 14 14 13 14 12 12 10
21 25 23 22 18 21 16 9 9 9 10 6 9 9 7 11 9 8 13 15 17 19 19 19 19 19 18 20 18 18 20 21 21 21 24 24 22 20 18 16 15 17 18 18 16 15 15 15 13 11 12 13 18 13
16 16 24 25 21 19 16 13 14 12 6 9 11 11 12 13 8 12 19 18 18 18 19 20 19 18 18 19 21 22 21 21 21 24 21 20 21 23 23 22 20 20 19 18 17 16 15 15 13 13 12 10 10 11
20 18 15 18 16 15 12 13 13 12 14 19 20 14 13 11 10 19 20 20 19 18 15 14 16 18 18 20 20 19 17 17 17 16 18 20 20 20 20 22 20 20 19 19 18 16 16 15 14 12 11 10 8 9
21 19 18 15 11 13 15 16 18 19 19 19 15 11 12 17 17 17 19 18 13 11 10 12 18 20 20 20 18 18 15 16 14 15 16 18 21 23 21 19 19 19 18 16 20 18 14 11 11 10 9 11 10 9
20 19 15 12 14 14 16 21 18 16 17 17 17 15 15 16 17 21 16 13 13 18 20 21 21 20 21 21 21 18 17 19 20 19 18 18 21 21 18 16 15 16 15 14 10 7 17 12 12 6 7 8 9 7
21 20 18 15 12 15 16 12 11 13 9 8 10 12 15 17 18 19 20 21 22 22 22 21 21 22 21 21 20 19 18 16 18 18 20 15 13 14 13 12 13 12 10 8 6 5 4 4 3 2 2 1 3 12
17 14 14 7 8 7 5 6 7 6 6 4 7 7 4 5 7 14 18 20 20 20 22 21 19 19 18 20 14 14 22 10 9 8 8 11 11 9 10 8 5 5 5 4 4 4 4 3 3 4 7 4 5 5
5 4 2 5 5 5 5 5 4 3 1 -0 5 9 12 11 10 15 7 3 9 8 6 3 3 4 2 4 5 5 10 3 7 14 15 17 17 12 5 5 7 7 7 6 6 7 8 7 6 2 5 5 4 3

GFSWCAN_sfc_dewp_045.txt.gz
Dewpoint
50 49 48 48 47 46 46 45 45 44 44 45 45 44 44 43 43 41 40 40 37 31 31 29 30 26 25 23 21 25 31 34 36 33 31 30 27 26 25 26 28 27 25 25 27 25 20 34 36 32 35 37 37 37
50 50 49 48 47 47 45 45 45 45 45 44 44 44 44 42 43 42 40 42 41 36 31 34 33 33 31 30 27 26 27 27 35 34 35 35 30 26 25 23 28 25 27 27 26 25 28 36 35 36 37 37 37 36
51 50 49 49 47 46 46 46 46 47 47 44 45 44 44 44 44 43 42 42 40 36 30 29 28 31 33 33 33 26 30 34 34 34 33 34 34 34 26 26 26 28 29 27 27 28 29 31 36 36 38 38 38 38
50 50 49 48 47 47 46 47 48 48 45 44 44 44 44 44 43 42 40 40 39 35 27 25 29 30 31 34 33 34 32 33 34 34 30 29 31 36 33 32 28 30 30 29 28 30 33 33 34 36 37 37 37 37
50 50 49 47 47 47 48 48 46 45 44 44 44 44 45 44 42 41 39 39 41 35 28 29 32 30 30 33 33 33 32 31 30 28 27 26 31 32 32 34 30 32 30 29 28 30 30 31 34 37 37 38 38 36
50 49 48 49 48 48 48 46 46 44 43 44 44 44 43 41 39 39 33 37 39 39 30 25 31 28 29 33 29 30 31 30 30 28 27 28 30 28 25 26 31 31 34 34 31 35 35 38 37 38 38 36 35 35
49 48 49 48 47 48 46 46 45 44 44 44 44 42 41 42 39 34 32 36 40 38 31 23 26 30 33 32 31 30 30 31 30 28 27 24 24 30 29 22 24 27 35 37 38 37 36 37 36 34 34 34 35 34
49 49 48 48 48 47 46 45 45 44 44 43 41 38 41 42 40 36 38 40 40 36 31 20 22 28 33 31 28 31 28 29 29 27 27 25 25 24 21 20 21 25 38 36 34 34 36 34 33 34 35 35 35 34
49 48 48 48 47 46 45 44 44 43 43 41 37 41 39 35 32 35 41 41 41 36 29 27 24 22 36 33 35 30 29 25 28 26 25 26 24 22 22 23 22 21 36 37 36 33 33 33 34 35 34 34 33 34
48 48 48 48 47 45 44 44 43 43 43 39 35 32 30 33 38 38 39 36 33 33 33 26 32 28 34 33 34 30 30 25 18 24 28 25 23 25 26 30 34 33 35 36 33 31 31 30 33 32 32 34 34 35
48 49 48 47 46 45 44 43 43 42 40 35 31 29 34 39 36 34 29 27 31 25 31 30 32 29 33 29 30 34 28 29 17 26 26 28 32 33 33 34 34 37 36 33 33 33 33 34 33 33 34 35 35 35
49 48 47 46 46 45 44 43 42 38 35 35 33 36 35 34 31 20 17 28 27 26 32 31 31 31 32 36 33 33 31 32 23 32 30 30 33 34 33 31 32 32 34 33 33 34 34 34 34 34 34 34 35 35
48 48 47 46 46 45 44 43 40 39 38 35 30 22 24 21 14 10 10 15 17 26 26 27 27 31 32 35 34 32 30 30 35 31 31 32 32 30 33 33 33 35 35 35 33 32 32 31 30 30 30 31 31 33
48 47 47 46 46 46 44 41 38 37 33 24 12 6 13 12 14 17 18 16 25 24 26 29 26 28 31 31 34 30 34 34 28 28 29 31 31 29 29 33 30 32 34 34 33 31 30 30 29 29 28 27 26 26
47 47 46 46 46 45 43 40 38 36 28 19 16 7 12 21 17 18 27 21 23 26 25 25 29 31 28 29 32 31 30 27 29 27 32 33 32 32 29 29 29 28 29 31 30 31 28 27 26 26 27 27 26 25
47 46 44 47 46 43 41 38 35 32 23 18 14 12 21 14 13 17 13 17 24 27 24 28 25 28 26 29 27 28 29 24 29 32 33 33 32 32 32 28 25 22 24 27 27 27 26 25 23 22 22 21 25 27
44 40 47 46 44 42 40 33 28 20 16 12 13 24 20 14 17 18 25 24 29 23 16 23 21 18 24 24 25 30 26 30 34 34 33 33 30 29 25 26 25 21 22 27 29 29 28 28 23 16 15 18 22 26
40 46 46 43 40 38 32 28 22 16 15 12 16 18 25 24 22 24 25 27 25 22 21 14 23 22 19 18 23 31 31 32 31 32 31 32 31 29 27 26 23 23 29 29 29 29 29 25 22 19 18 20 21 22
44 44 44 42 40 32 27 27 24 19 17 17 20 21 22 23 25 25 25 26 27 27 27 25 21 20 19 22 23 23 29 30 29 28 29 30 30 28 30 31 29 27 28 28 24 21 19 18 16 16 17 21 21 21
45 45 42 41 38 28 20 23 25 15 12 18 16 14 18 20 22 21 22 25 26 25 23 21 20 22 23 24 23 25 27 27 27 23 21 26 29 26 29 30 29 29 28 25 24 22 18 15 15 15 16 21 21 20
41 41 41 38 34 30 30 27 22 18 12 14 11 13 12 13 12 10 19 24 24 23 20 22 23 24 25 25 25 25 24 24 21 22 24 26 27 26 26 28 29 26 22 20 19 17 18 14 13 14 15 18 21 21
39 40 36 36 32 29 29 29 27 18 14 13 11 9 3 4 5 16 19 19 20 18 20 20 20 22 24 22 21 20 21 21 22 23 25 25 23 22 23 25 25 25 24 22 17 14 11 11 13 13 15 17 20 21
38 35 32 32 28 25 20 23 23 22 12 8 5 6 5 4 4 12 10 10 13 18 23 22 20 17 20 20 19 20 19 19 21 22 23 23 25 25 24 23 24 24 24 23 20 18 15 16 15 16 17 17 19 19
35 27 25 27 24 20 19 10 20 14 16 10 5 4 3 4 5 4 8 9 17 22 22 19 17 19 18 17 17 20 19 18 18 19 21 20 23 24 22 22 24 24 24 22 20 19 18 15 17 15 15 14 14 15
23 23 25 23 24 17 9 11 8 16 6 3 4 4 5 3 2 -2 7 13 12 19 22 18 19 18 16 16 17 19 20 20 16 17 19 21 23 22 19 17 16 17 20 17 15 15 15 16 15 15 14 13 13 10
21 23 22 19 16 20 15 6 6 5 5 2 5 4 0 3 6 7 9 14 17 22 19 20 19 17 17 19 18 18 18 20 15 14 17 22 24 23 21 19 20 21 18 19 17 14 14 14 15 14 14 14 19 14
19 17 24 25 20 18 14 11 11 8 -0 4 4 4 5 4 4 11 15 18 20 22 21 20 19 17 16 16 18 20 20 17 19 19 16 19 21 23 24 22 22 23 19 18 17 15 14 14 15 15 14 9 10 10
17 16 17 19 14 12 9 7 4 6 8 14 16 6 6 7 9 15 19 20 21 19 18 19 18 18 17 18 18 18 15 11 10 9 13 18 20 21 22 22 23 25 20 18 17 16 16 15 15 15 13 12 11 11
23 17 17 16 7 8 12 12 11 15 18 18 14 13 12 16 16 18 20 20 11 11 12 16 17 18 18 18 18 18 14 11 11 13 12 15 17 20 20 21 21 22 22 19 22 20 17 15 15 14 14 14 12 8
20 16 10 4 9 10 13 17 16 12 16 18 17 15 16 17 17 19 17 12 12 17 20 20 21 22 20 20 20 19 14 16 18 18 17 17 18 16 14 13 15 15 17 17 16 12 21 16 14 12 13 10 9 6
16 10 8 8 9 9 11 11 8 15 7 5 5 13 17 19 19 20 19 20 21 21 21 21 21 22 20 20 20 19 19 14 17 17 18 11 10 10 11 12 12 14 14 13 12 10 8 7 7 3 1 -1 1 10
10 11 9 5 6 5 -0 3 0 1 0 -0 8 0 2 3 6 16 13 16 19 19 21 21 19 19 13 13 15 17 24 15 9 9 8 8 7 7 9 10 10 12 11 10 9 7 4 3 2 2 1 -1 1 1
10 9 -1 1 3 3 2 3 0 0 -3 -2 4 7 8 10 10 14 6 -0 8 8 3 1 -1 -1 -0 -0 1 3 10 1 5 15 16 17 18 13 4 5 8 7 7 5 2 2 1 0 -0 1 1 1 1 1

GFSWCAN_sfc_dewp_048.txt.gz
Dewpoint
50 50 49 48 47 47 47 46 46 45 44 45 44 44 43 43 43 40 38 40 35 30 30 30 31 28 28 24 22 25 29 33 36 32 32 28 27 25 24 26 27 27 26 26 27 25 19 29 34 30 32 36 37 36
50 50 50 49 48 47 46 46 46 46 45 44 44 45 45 44 44 42 38 42 41 33 31 35 34 33 32 30 28 27 27 30 35 34 34 35 31 28 25 22 27 26 27 26 26 26 26 29 33 36 37 37 37 37
50 50 50 49 48 47 47 47 46 46 48 45 44 43 44 44 44 42 41 38 39 33 28 27 25 29 32 33 33 26 31 33 32 34 32 33 33 35 28 25 26 28 29 27 27 27 28 30 34 37 37 38 38 37
50 50 50 50 48 47 47 47 47 48 46 44 44 44 45 45 43 41 37 38 40 35 23 26 29 30 32 34 34 34 33 34 34 33 29 28 29 35 32 32 31 29 30 28 28 29 31 31 32 36 37 38 38 37
50 50 50 49 49 48 48 48 47 46 44 44 44 45 44 43 42 39 37 37 39 30 25 28 31 30 30 32 33 34 33 32 32 29 28 26 29 30 30 31 29 32 31 29 28 30 29 29 32 36 37 37 37 38
50 50 49 48 48 48 48 47 46 45 44 44 44 44 42 42 41 37 31 35 38 36 27 22 31 29 28 33 30 31 32 31 30 28 27 28 28 28 21 23 27 26 33 36 34 35 35 35 37 37 37 37 36 35
50 49 48 49 49 48 47 46 45 45 44 43 43 40 42 42 36 32 30 33 39 36 27 20 24 30 32 31 31 30 30 30 30 28 27 25 24 28 26 22 21 21 21 30 36 37 37 37 36 36 35 35 36 34
49 48 49 48 49 47 46 45 45 44 43 42 39 41 42 41 38 34 37 41 39 33 28 18 22 27 33 31 29 31 28 29 29 28 27 26 25 24 20 20 20 21 21 21 30 37 36 35 34 34 35 35 34 34
48 48 48 49 48 46 45 44 44 43 42 40 41 42 37 34 30 33 41 41 40 34 22 21 21 21 36 32 34 31 29 25 28 26 26 26 23 21 21 20 22 22 23 32 35 36 36 35 35 35 34 34 33 33
48 48 48 48 47 46 45 44 43 43 40 40 35 31 28 32 38 38 39 34 32 32 28 18 26 22 33 32 31 29 29 24 14 24 27 24 22 24 27 33 27 32 35 34 33 34 34 33 34 33 33 34 34 34
48 48 48 47 46 46 45 43 43 42 40 34 30 27 32 38 36 33 29 25 29 22 29 24 27 28 31 29 29 33 25 27 17 21 23 22 28 35 34 33 32 36 37 36 37 35 34 34 34 34 35 35 35 35
48 48 47 46 46 45 44 42 42 36 34 33 33 35 33 31 29 15 18 25 23 20 29 30 28 29 31 34 33 32 30 31 22 30 26 27 33 33 33 34 34 34 35 35 34 34 34 34 35 35 34 34 34 34
48 47 46 46 46 44 43 40 40 40 38 33 28 20 23 18 8 3 3 11 13 21 22 24 23 27 31 33 33 32 29 28 33 29 30 30 33 33 32 33 33 34 36 35 35 35 33 30 30 30 30 27 30 31
47 46 46 46 46 44 42 40 40 38 31 23 12 5 13 8 10 15 14 13 22 22 23 27 27 24 28 27 32 29 30 34 28 23 23 31 33 32 33 34 34 33 34 34 33 33 33 29 28 28 27 26 25 25
47 46 46 46 45 43 42 40 39 34 26 19 16 6 10 19 13 14 26 21 21 24 24 24 28 29 26 25 29 30 30 25 26 24 28 32 33 32 32 33 32 32 32 33 33 32 31 29 26 27 27 27 26 25
46 46 44 46 45 42 41 38 34 30 22 17 15 12 19 13 10 21 19 19 22 25 23 26 25 25 24 27 24 24 24 21 24 31 34 34 33 33 32 33 31 22 26 29 31 31 30 27 24 19 19 19 25 26
44 41 46 45 43 41 38 31 28 20 18 13 15 23 18 15 17 18 24 24 27 23 15 15 10 13 23 22 21 24 22 25 28 33 32 31 31 32 32 30 27 22 26 29 31 31 30 29 28 16 13 18 22 25
41 46 45 44 39 36 31 28 22 16 17 14 19 17 24 23 21 23 24 26 25 22 20 12 23 19 17 17 17 30 31 31 32 30 30 30 29 29 30 30 30 23 30 31 30 29 28 28 25 23 20 20 20 20
44 44 43 42 38 31 27 27 25 18 17 18 20 20 21 23 24 24 25 26 26 26 22 21 21 18 17 19 18 14 22 26 26 25 24 24 26 27 29 30 31 28 29 29 28 25 23 23 19 16 16 19 21 20
45 44 43 40 36 28 21 26 25 19 14 18 17 16 17 19 20 20 22 25 27 25 22 20 18 20 21 21 21 22 23 24 23 21 18 18 23 24 26 26 29 30 29 28 28 29 23 17 16 16 16 18 21 19
41 41 40 36 31 30 27 27 25 18 13 15 11 12 11 10 9 14 10 19 22 23 16 21 22 22 24 24 24 25 24 21 20 20 19 21 23 23 25 25 25 28 28 28 27 25 23 19 13 14 15 15 19 21
40 39 36 34 28 29 25 28 25 20 14 13 13 11 2 4 3 5 14 21 20 16 20 20 19 21 23 22 21 20 20 20 21 22 25 24 22 20 21 23 21 24 25 26 26 25 19 13 12 13 13 14 19 21
37 34 32 27 22 21 20 25 23 23 14 9 5 5 4 1 3 15 12 9 14 17 21 21 19 19 21 22 19 19 18 17 19 20 21 22 23 23 23 23 24 23 24 25 22 22 20 17 14 15 13 17 17 19
34 26 24 26 19 18 20 15 22 20 17 10 5 7 3 -0 8 4 7 9 14 19 18 17 19 18 18 19 18 18 18 17 18 19 20 19 18 21 23 23 22 23 24 24 21 21 20 16 18 17 16 13 13 14
20 20 20 18 20 14 13 15 15 17 6 -0 3 5 3 2 1 -3 5 14 10 14 18 18 18 20 19 18 18 18 18 18 18 18 19 19 17 18 21 20 20 19 21 19 19 18 18 15 14 15 13 12 12 11
16 19 16 17 16 16 15 10 11 5 2 -1 8 2 -4 -0 8 5 8 10 13 13 16 18 19 19 19 19 18 18 18 19 18 17 20 18 18 17 15 18 20 21 19 19 19 17 17 15 14 13 12 14 19 16
15 16 24 24 21 18 14 10 10 6 -3 5 3 1 -0 -1 2 9 13 13 15 16 16 19 21 21 20 19 19 19 19 16 18 19 17 18 19 20 20 20 20 21 19 19 19 18 16 15 14 14 13 10 11 12
19 19 18 19 15 10 8 6 4 5 8 11 9 2 4 6 9 13 15 17 18 15 15 18 21 22 21 20 21 20 18 10 7 7 13 17 18 20 20 21 22 25 24 20 19 18 17 16 15 15 13 12 11 8
19 17 17 16 7 8 10 11 9 13 15 14 10 9 11 14 13 13 18 18 15 9 14 19 21 19 17 18 19 20 19 12 9 9 11 15 15 15 14 16 18 17 19 21 25 23 18 17 17 16 15 14 12 5
19 16 9 7 8 10 13 15 12 10 14 17 16 16 16 18 20 20 20 20 10 17 20 21 21 20 20 20 20 19 14 16 16 17 15 16 17 12 6 7 7 10 12 14 15 13 23 17 17 14 13 11 9 8
14 8 6 6 7 7 9 7 6 16 8 7 6 14 17 19 20 20 21 21 22 22 21 21 21 20 20 20 20 19 19 13 15 16 17 17 8 6 6 6 5 5 9 10 11 11 12 12 11 8 6 5 5 11
13 8 12 10 7 4 -2 -0 -3 -2 -1 -4 7 -2 2 2 6 14 12 8 11 17 21 20 18 19 5 2 3 6 20 10 8 12 10 10 9 6 5 3 2 4 6 8 9 9 8 7 6 5 4 3 1 0
8 5 -1 0 2 2 1 1 -1 -1 -4 -4 2 0 -0 5 7 12 3 -2 3 4 1 -0 -1 -1 0 -1 -0 1 8 -1 3 17 18 18 17 12 2 -0 2 3 4 3 4 5 2 1 0 1 1 -1 -2 -3

GFSWCAN_sfc_dewp_051.txt.gz
Dewpoint
50 50 49 49 47 47 47 47 46 45 45 45 44 44 44 44 44 39 37 40 33 29 28 31 31 27 27 24 21 24 31 31 35 32 31 29 27 25 23 25 26 26 25 26 27 27 20 27 33 28 30 35 36 36
50 50 49 49 48 48 47 46 46 46 46 45 45 45 44 44 45 41 37 42 41 31 29 34 34 33 32 30 27 26 29 31 33 33 33 33 31 28 23 22 26 25 26 25 27 26 27 27 33 35 37 37 36 36
50 50 50 49 49 48 47 47 47 47 47 45 44 44 44 44 44 42 37 37 38 34 27 26 26 28 31 32 32 25 31 32 31 33 31 32 30 34 28 26 25 26 28 27 27 27 28 28 30 36 37 37 38 37
49 50 50 49 49 49 48 47 47 48 46 44 44 44 45 44 43 41 36 38 39 33 23 25 30 30 32 34 34 33 33 34 33 32 30 28 27 32 31 30 32 31 31 28 27 28 29 30 32 32 36 38 38 37
49 50 50 49 49 49 48 48 48 46 45 44 45 44 43 42 41 38 36 36 37 29 24 26 29 30 30 32 33 34 34 32 31 28 27 26 28 29 28 29 28 30 28 29 28 33 32 32 32 34 35 37 37 37
49 50 50 49 49 49 49 48 46 45 45 44 44 42 42 43 40 36 30 34 37 35 23 20 29 28 28 32 30 32 33 31 30 28 26 27 28 29 22 22 25 26 31 33 31 35 31 32 36 36 36 37 37 37
49 49 49 49 48 49 49 47 45 45 44 43 42 43 43 41 36 31 30 35 39 35 25 18 20 28 31 31 31 30 30 30 28 27 27 25 24 26 25 22 20 20 20 19 19 25 25 35 36 37 37 36 37 34
49 49 49 48 49 49 48 46 45 44 43 41 43 42 42 42 38 33 36 40 39 31 25 13 18 24 33 29 29 31 29 29 30 28 28 26 25 24 20 22 21 21 22 22 23 30 34 36 36 35 35 34 34 34
49 48 48 49 48 48 47 45 44 43 41 42 43 42 36 32 29 32 40 40 39 33 18 16 19 18 32 30 34 31 29 25 28 25 25 25 23 21 22 27 30 32 31 26 33 33 34 36 36 37 35 34 33 33
47 47 48 48 48 47 46 44 43 41 42 42 34 30 27 31 37 38 36 33 33 32 25 17 26 22 28 29 28 29 29 25 18 24 27 24 23 26 32 36 34 34 35 35 32 33 34 33 35 35 35 35 34 34
47 48 48 47 47 46 45 44 42 42 38 33 30 27 31 38 34 33 30 26 26 20 29 27 28 24 29 28 29 32 27 27 21 23 23 22 27 33 34 33 35 35 35 36 37 36 34 35 35 35 35 35 35 34
47 48 47 47 46 46 45 43 43 36 34 32 32 34 32 27 21 14 14 20 20 16 27 28 29 28 28 33 32 33 28 30 22 27 25 26 30 34 33 33 34 34 35 36 36 34 34 33 33 35 34 34 34 33
48 47 46 46 46 44 43 43 40 39 36 30 27 20 22 17 5 -2 -4 7 11 19 21 24 20 25 30 32 31 31 27 27 32 27 27 29 32 33 33 33 33 35 35 35 35 35 34 33 31 29 27 26 28 28
47 46 46 46 45 42 41 41 40 36 29 22 15 6 10 6 8 12 13 13 20 26 22 26 22 26 27 26 29 27 29 33 25 21 22 25 32 33 33 34 32 32 33 33 32 32 33 31 29 28 28 27 25 25
46 46 46 45 44 42 41 41 38 32 26 21 17 2 9 16 19 21 22 23 21 24 24 24 21 27 27 26 26 28 27 15 23 21 25 29 31 33 31 33 32 30 29 32 32 31 31 30 28 26 24 23 27 25
46 45 43 45 43 42 41 36 33 29 21 18 14 11 19 13 7 22 23 18 22 25 23 23 16 21 22 25 22 22 13 11 17 21 26 29 31 32 30 31 32 31 23 29 32 32 31 30 28 27 21 19 24 26
44 42 45 44 42 40 37 31 28 19 18 12 14 23 17 14 15 17 24 24 26 22 15 15 11 13 23 20 20 25 15 17 19 25 26 28 28 28 28 29 30 29 22 27 30 31 30 30 29 28 20 16 21 24
42 44 45 42 38 35 31 27 21 18 16 13 17 17 24 22 20 23 24 25 24 21 20 11 20 19 14 11 12 19 26 28 29 27 27 27 25 25 25 27 29 30 26 29 30 30 28 27 27 25 25 22 21 21
44 43 43 40 37 31 28 28 25 18 17 18 19 20 21 23 24 24 25 26 26 25 21 16 19 17 16 18 17 12 19 25 23 24 23 22 22 21 25 26 27 27 29 29 29 29 29 24 25 21 16 20 21 20
44 43 41 38 34 28 24 24 25 21 16 19 18 15 16 18 19 19 21 25 26 19 20 21 18 19 19 20 20 21 22 23 22 19 16 17 18 18 23 24 25 25 27 28 29 31 28 27 21 16 16 17 21 21
41 40 38 35 31 28 25 25 23 16 18 17 13 15 11 10 9 17 10 19 25 18 17 21 21 22 22 23 23 25 24 24 22 19 17 18 20 20 23 23 21 24 26 28 27 29 31 28 27 15 15 16 17 19
39 39 33 32 27 23 23 24 20 21 18 15 12 17 4 6 2 13 12 19 17 18 20 19 19 20 21 21 21 20 23 21 19 20 23 23 21 20 21 22 20 22 22 24 25 26 27 28 25 15 13 13 16 19
37 34 31 26 21 17 19 26 21 23 14 9 9 7 5 2 5 16 14 10 15 18 19 18 18 17 20 20 17 19 19 20 19 19 19 20 20 21 20 21 20 19 22 24 24 25 24 25 22 17 12 14 17 17
33 27 24 22 17 14 21 15 22 20 18 13 12 10 4 -1 10 6 8 11 14 17 16 15 14 17 17 16 17 22 22 22 22 19 19 18 16 16 18 21 22 21 22 23 22 23 23 21 21 17 15 15 14 14
19 17 18 21 19 14 12 16 16 16 14 3 11 9 2 2 1 -1 6 11 7 13 15 15 14 17 19 20 20 20 21 20 18 17 18 18 16 15 18 18 19 20 20 15 18 20 21 20 18 18 15 14 12 10
11 19 13 15 18 14 14 11 13 12 5 -1 7 -0 -5 -2 8 5 7 8 12 13 14 14 17 16 17 20 20 20 19 20 19 18 18 18 18 17 17 16 17 18 19 19 16 16 18 18 16 16 15 16 20 15
12 17 24 23 20 17 15 11 10 6 -0 7 2 0 -1 -1 1 7 12 12 13 15 16 17 17 17 18 20 21 22 22 21 20 18 16 16 17 19 19 18 18 19 18 17 18 17 18 18 16 15 15 12 13 13
18 19 19 21 15 12 10 7 5 6 7 9 8 1 2 4 8 13 14 15 16 18 17 17 17 19 20 21 22 22 22 19 10 8 9 14 16 18 18 19 20 23 23 19 19 19 18 18 17 16 14 14 14 10
18 18 19 17 9 11 11 10 10 12 14 12 9 7 8 12 12 12 16 17 16 11 15 19 21 21 18 19 19 20 19 13 13 15 14 13 10 16 13 15 14 11 13 15 23 24 19 17 16 15 14 14 14 8
16 15 11 9 11 13 12 14 10 7 12 14 14 14 15 17 20 20 18 21 20 17 19 21 22 19 20 20 20 19 15 17 18 17 17 16 16 12 5 6 6 6 5 6 10 11 22 17 15 9 7 6 8 8
14 9 5 5 6 6 6 3 3 14 9 6 5 14 17 17 18 19 19 21 21 21 20 20 19 13 15 18 17 17 18 13 14 15 16 12 7 7 7 7 8 3 2 4 5 6 7 7 5 5 5 3 4 10
15 6 13 14 10 3 -1 -1 -6 -4 -3 -4 4 -3 1 1 5 14 6 6 5 6 12 7 8 11 3 4 3 3 14 10 9 9 8 9 10 11 8 4 -1 0 2 3 2 2 2 3 3 5 4 3 2 -1
5 4 -1 1 2 2 -0 -0 -1 -1 -4 -7 -1 -2 -3 4 7 10 0 -4 1 3 5 9 9 10 8 6 6 7 11 8 7 18 21 21 20 14 1 -2 -0 2 3 1 -1 -2 -2 -2 -0 -0 1 -1 -3 -2

GFSWCAN_sfc_dewp_054.txt.gz
Dewpoint
52 51 50 49 49 48 48 47 46 46 45 45 44 44 45 44 43 38 36 39 32 28 28 31 30 25 26 24 20 23 30 31 35 31 31 29 27 24 22 23 24 26 24 24 25 25 19 27 31 28 28 34 36 36
52 50 50 49 49 49 48 47 46 46 46 45 45 45 44 44 44 39 37 39 37 30 29 33 33 32 31 30 26 25 28 33 32 33 31 32 29 30 23 21 25 25 25 24 26 25 27 28 33 33 36 36 36 36
51 50 50 49 49 49 48 47 47 46 46 45 45 44 45 44 43 41 36 36 35 28 26 26 26 28 31 32 32 24 29 32 31 33 31 31 30 35 28 28 25 25 28 27 26 27 28 29 30 31 34 35 37 37
50 49 49 49 49 49 48 47 47 47 47 45 44 45 44 43 42 40 35 36 35 30 23 25 30 29 32 34 34 33 32 33 32 30 26 26 25 30 29 30 30 32 32 29 28 28 32 30 32 32 29 35 36 37
49 49 49 49 49 48 48 48 48 48 46 44 45 44 43 43 42 38 36 35 35 29 25 25 28 29 29 32 32 33 33 31 28 25 22 25 28 28 28 27 27 28 26 26 26 33 30 29 26 22 35 36 36 37
49 49 48 49 49 49 49 48 49 46 45 45 44 43 43 41 39 34 30 34 37 34 23 20 28 27 29 31 30 32 33 31 30 27 26 27 28 29 24 21 22 23 24 27 21 22 23 23 25 27 35 34 37 37
49 49 48 49 49 49 49 49 47 45 45 44 42 43 42 41 35 31 29 34 38 33 25 18 20 27 31 30 30 29 30 29 28 27 27 25 24 26 26 21 20 22 23 26 30 23 23 23 25 33 35 35 37 34
49 49 48 48 49 49 49 47 46 45 44 43 43 43 41 41 37 33 37 39 36 30 24 12 15 23 32 29 28 30 28 29 29 28 27 26 25 24 20 21 23 30 32 31 29 27 29 32 33 33 36 35 34 34
48 48 48 48 48 49 48 47 46 45 43 43 42 42 35 32 29 32 40 39 36 30 18 16 20 15 29 28 34 31 29 24 28 25 25 26 23 21 26 28 32 33 33 32 35 36 35 34 35 35 35 36 36 34
48 48 47 48 48 48 47 46 45 43 44 44 34 29 27 31 37 38 36 29 28 27 25 16 27 21 25 25 26 29 28 25 19 24 27 23 23 25 27 34 33 32 34 34 32 32 34 32 33 34 35 36 36 35
48 47 47 48 48 47 46 45 43 44 42 33 29 28 31 38 32 29 22 20 22 17 27 27 27 22 28 21 24 30 29 25 16 24 25 24 25 29 33 33 32 32 33 33 36 35 34 34 32 34 35 35 35 35
47 47 47 47 47 46 45 44 45 37 35 33 32 33 30 26 19 12 10 18 18 14 24 23 26 27 27 32 30 32 25 28 23 28 26 24 27 30 33 32 31 31 31 32 34 35 34 34 33 33 33 32 33 34
47 47 47 47 46 46 45 45 40 38 36 30 27 20 21 16 4 -6 -8 6 8 18 23 23 16 24 27 30 27 30 27 26 30 26 23 25 30 31 31 32 32 32 32 32 32 33 34 34 32 30 28 26 26 26
47 47 46 46 46 45 45 43 41 36 28 22 14 7 10 8 7 12 10 13 19 27 22 23 18 25 27 24 26 20 28 31 20 14 16 19 26 30 32 32 31 30 32 30 31 31 31 31 30 29 26 27 27 26
46 46 45 45 45 44 44 42 38 32 27 18 16 3 9 17 20 18 20 23 21 25 24 21 19 24 21 24 26 24 20 16 16 13 16 20 23 28 30 30 29 29 31 30 30 31 29 29 29 27 26 25 28 27
45 44 42 44 43 43 41 36 32 29 22 18 15 15 19 15 11 24 24 19 21 24 24 21 14 12 15 20 21 19 21 12 14 16 21 24 24 25 26 27 27 28 30 29 28 31 31 30 29 28 27 22 24 24
43 41 44 43 43 41 36 31 28 19 19 16 16 23 18 13 16 18 24 23 25 21 14 14 5 7 21 20 18 23 21 16 15 29 27 23 23 24 25 24 24 26 29 28 27 30 31 31 30 28 27 26 25 24
41 43 44 42 37 34 30 28 23 21 18 16 19 18 23 21 21 23 24 25 24 21 19 10 14 10 12 8 11 16 18 28 30 29 25 25 23 21 21 21 25 27 28 29 28 29 30 29 28 27 28 25 22 24
42 42 42 39 36 31 27 27 25 20 20 21 22 21 21 23 24 23 25 26 25 25 21 14 16 10 15 17 15 11 12 22 25 23 23 23 20 19 19 21 22 23 22 25 28 29 30 30 29 27 26 23 21 22
43 42 40 37 33 28 23 22 25 21 18 21 21 18 17 18 19 18 22 25 23 14 14 15 16 18 19 18 20 20 21 22 21 22 21 19 17 16 19 20 22 21 21 21 26 30 30 29 29 27 20 18 20 21
40 38 37 34 30 28 25 23 22 18 18 17 14 14 10 10 10 19 12 19 16 12 13 19 20 21 21 21 22 23 23 23 22 22 22 20 18 19 21 19 16 20 21 23 25 26 28 30 30 29 25 16 19 20
39 37 32 32 27 23 23 25 20 20 17 16 8 12 2 5 4 17 18 22 18 17 18 18 18 19 20 19 19 19 22 22 22 21 24 23 21 20 19 19 18 16 16 18 22 24 25 27 28 28 27 25 16 18
36 33 28 26 21 18 21 24 19 18 10 11 8 5 4 1 0 16 16 15 16 16 19 18 16 14 17 19 17 19 19 19 21 19 19 20 20 21 21 20 18 15 17 20 21 24 24 26 26 25 19 17 14 14
32 26 23 21 19 17 19 17 21 18 18 10 11 6 2 -3 7 7 8 12 14 16 15 12 12 15 15 14 14 18 19 18 19 18 20 18 19 17 16 16 17 18 19 21 21 22 22 23 25 23 19 15 15 15
19 20 19 18 18 14 13 16 15 15 12 9 11 7 1 3 0 3 8 11 5 12 14 13 12 15 16 15 16 18 19 20 19 19 18 21 20 18 18 19 17 17 18 19 19 19 19 19 21 20 20 17 16 15
12 16 12 14 17 15 13 10 12 10 8 -1 4 -0 -4 -1 7 5 7 8 11 11 13 15 16 15 16 18 17 16 18 20 19 16 17 20 20 18 16 17 17 17 17 20 20 18 18 17 18 19 18 18 22 20
14 19 23 22 19 15 12 10 9 6 2 6 1 0 1 -1 0 7 11 11 12 14 14 17 17 17 17 17 18 20 20 18 19 19 16 17 18 19 18 17 17 18 18 18 18 18 19 19 19 18 18 18 17 16
17 20 18 18 13 10 7 5 4 5 6 9 8 2 2 4 7 12 13 14 15 15 12 16 16 18 18 19 20 20 21 15 10 6 8 13 15 16 16 18 19 22 22 20 18 18 18 19 19 18 17 17 17 15
16 18 17 15 8 12 8 9 9 12 14 11 9 6 7 11 11 9 14 13 7 6 12 18 20 16 14 14 15 16 15 9 11 14 14 16 16 17 15 13 15 8 10 12 21 23 19 18 19 17 14 14 12 8
14 12 11 10 11 12 11 13 8 5 10 13 13 12 14 16 18 17 16 14 16 20 19 15 14 9 17 18 19 19 12 13 15 17 17 17 13 14 9 6 5 3 2 4 8 9 19 15 18 15 7 5 5 4
11 8 5 5 6 6 3 2 1 12 6 3 1 10 16 14 15 12 8 3 5 4 6 7 9 5 10 12 11 10 12 10 4 7 8 12 12 13 14 10 6 3 1 2 3 4 5 5 4 2 3 2 1 6
11 5 11 12 8 1 -4 -5 -8 1 -7 -6 -1 -7 -1 2 4 11 0 -3 3 4 8 3 6 11 10 9 7 7 14 11 10 9 8 6 7 10 10 8 -0 -1 0 1 0 0 -0 -1 0 1 2 -2 -3 -4
6 2 -2 -1 4 4 0 0 -1 -2 -6 -8 -4 -7 -8 1 5 8 1 -5 1 2 3 6 9 9 7 6 6 7 11 8 9 19 21 24 25 19 4 -4 -2 -1 1 -0 -3 -3 -3 -4 -5 -5 -5 -5 -6 -6

GFSWCAN_sfc_dewp_057.txt.gz
Dewpoint
53 52 51 51 50 49 49 48 46 46 45 45 44 45 45 43 42 38 38 37 30 28 28 30 30 25 26 24 20 22 29 31 34 32 30 30 27 25 22 23 24 25 24 25 26 24 19 27 30 28 29 34 35 36
53 51 51 50 49 49 49 48 47 46 45 45 45 45 45 44 42 40 34 38 34 30 29 32 32 31 31 30 27 24 29 33 31 33 32 33 28 31 24 21 24 24 26 24 26 25 26 28 29 31 33 31 34 35
52 51 50 50 49 50 49 48 47 46 46 46 45 45 44 43 42 39 34 35 32 29 26 27 26 28 31 31 31 24 28 31 31 32 31 32 30 33 27 28 26 27 28 27 27 28 29 31 31 31 25 23 30 36
51 50 49 49 49 49 49 48 47 47 46 45 45 45 44 42 41 39 35 35 32 28 24 25 30 28 32 34 34 32 32 32 30 28 28 27 26 28 29 28 27 29 30 27 27 29 28 30 23 22 22 23 33 35
50 50 49 49 49 49 49 48 48 47 46 45 45 45 43 42 41 38 36 35 34 29 25 25 27 29 29 31 32 34 33 30 27 23 22 25 27 28 27 25 25 28 27 25 24 25 28 24 25 25 24 24 34 32
50 49 49 49 49 49 49 49 49 46 46 45 45 44 43 41 39 34 29 33 36 32 25 21 27 26 29 30 30 31 32 29 27 26 24 26 27 28 24 22 22 22 22 22 24 26 29 29 27 24 24 31 32 34
50 49 49 49 48 48 48 49 48 47 45 45 44 43 42 40 36 31 28 33 37 32 25 17 18 26 29 29 29 28 29 28 27 26 27 25 24 27 26 20 19 23 29 32 31 31 29 27 31 33 33 34 35 35
49 49 49 48 48 48 48 49 47 46 45 43 43 41 41 40 37 33 36 39 33 27 23 9 12 22 30 28 28 30 27 27 27 26 26 25 25 24 19 21 25 30 32 32 31 33 33 36 35 34 34 33 33 34
48 48 48 48 48 48 48 47 46 45 43 43 42 41 34 31 29 32 40 37 33 28 17 16 16 7 27 27 33 31 28 24 27 24 24 26 23 21 25 28 29 32 31 32 33 34 33 33 34 33 34 34 34 36
48 47 47 48 48 48 47 46 46 45 44 43 36 30 29 31 38 39 32 27 26 26 25 19 26 15 23 23 25 27 27 23 14 24 27 25 24 26 26 28 33 32 33 33 30 30 31 32 31 30 32 35 36 36
47 47 47 47 47 47 46 46 45 44 42 34 30 30 33 38 31 27 20 19 21 15 23 23 21 19 27 21 23 29 26 20 9 20 22 19 22 27 30 31 31 31 32 32 33 33 33 34 32 31 33 34 34 33
47 47 47 47 47 46 46 45 45 39 36 34 33 34 29 25 19 12 9 16 16 11 24 22 24 26 26 30 29 30 24 26 14 24 18 14 23 26 28 29 30 30 31 31 31 32 32 32 33 31 31 30 30 32
47 47 47 47 46 46 45 45 41 39 37 31 28 22 20 16 3 -2 -0 7 9 18 23 20 15 24 27 31 26 27 24 21 27 24 18 19 25 29 28 28 29 30 31 31 31 30 31 31 32 31 29 25 27 27
47 47 46 46 45 45 45 42 40 35 29 26 20 7 9 8 7 10 12 14 20 24 24 24 18 24 27 25 26 22 24 30 23 14 12 15 21 25 28 29 29 27 28 28 29 29 30 30 29 30 29 26 26 27
46 46 45 45 44 44 43 41 36 31 28 21 19 6 11 19 19 17 18 20 26 27 25 22 19 23 17 21 24 22 18 19 15 13 14 18 19 23 24 25 25 25 24 25 26 27 27 29 30 29 29 27 25 27
46 45 43 45 44 44 42 36 32 29 24 21 17 18 22 18 19 24 21 17 22 25 25 21 14 11 15 18 18 15 13 9 15 13 19 26 23 23 22 23 23 24 24 26 27 27 30 29 30 29 29 28 25 25
42 42 44 45 44 40 37 31 29 21 21 18 18 24 20 19 18 19 23 23 25 23 16 15 6 7 19 18 17 21 18 16 16 23 28 28 24 23 23 21 21 22 24 25 26 29 29 31 29 29 28 28 27 27
40 43 44 42 37 34 30 28 24 22 18 18 22 20 22 21 22 22 24 25 25 22 19 11 15 9 9 6 10 16 18 17 25 28 28 28 24 23 21 20 21 22 22 22 23 24 27 29 28 28 28 28 26 25
41 41 41 39 35 31 27 26 26 20 21 22 22 22 22 24 24 24 25 26 25 25 20 16 11 9 14 16 13 11 11 15 18 19 22 23 23 22 19 19 20 20 18 18 21 23 25 27 29 29 29 27 25 25
43 41 40 37 32 28 24 24 26 22 19 21 21 17 18 19 19 20 22 25 24 13 15 15 16 16 17 17 19 19 19 19 20 20 19 19 20 15 18 20 21 20 18 17 19 25 24 27 27 28 27 27 25 23
39 37 36 33 29 28 26 22 21 19 19 17 13 14 12 13 19 21 13 20 14 11 12 19 19 20 20 20 20 21 21 22 21 21 20 20 21 18 20 22 17 18 18 20 20 20 22 23 26 27 28 28 27 25
37 36 32 31 26 25 24 25 20 21 17 15 11 11 6 6 10 16 17 22 12 16 18 17 16 18 19 18 18 18 19 20 21 21 24 25 23 20 21 21 20 22 18 16 17 18 20 23 25 26 27 28 29 25
35 32 28 27 21 20 21 23 18 15 13 11 8 7 4 0 4 14 16 16 15 16 17 17 15 14 16 17 15 16 16 17 18 20 20 21 21 20 20 21 22 18 17 18 18 18 18 23 24 24 25 26 26 24
31 25 22 20 20 18 19 18 19 16 11 11 8 6 2 -2 6 7 7 9 13 15 14 11 11 13 14 13 13 16 17 16 17 17 19 18 18 17 17 17 17 18 20 20 19 19 17 20 22 23 23 21 22 22
21 20 19 16 18 17 16 13 14 11 8 9 11 5 1 2 0 8 3 8 4 9 12 11 11 13 14 15 16 16 17 16 16 17 18 19 19 17 17 18 17 17 20 16 16 18 17 15 18 18 19 19 19 18
16 19 15 15 16 16 14 11 9 9 6 5 7 -2 -6 0 6 2 5 7 9 9 11 12 14 14 14 16 16 17 18 17 15 15 19 18 19 19 19 17 16 17 20 19 17 17 17 16 17 16 17 18 22 22
14 16 22 21 17 15 13 10 10 9 4 8 1 -2 -1 -0 -1 7 10 9 11 12 13 13 15 15 16 17 18 19 19 13 16 19 20 16 18 19 20 17 16 18 19 16 16 16 17 17 16 16 17 17 17 17
19 19 16 14 12 10 9 7 6 5 7 8 8 2 2 4 6 11 12 12 13 9 6 9 12 14 16 18 19 19 19 17 12 14 14 14 15 17 16 18 19 22 22 18 15 13 15 16 17 16 15 16 17 14
15 18 18 15 15 11 8 9 10 11 13 10 8 5 6 10 9 7 13 10 2 4 10 16 16 7 10 11 13 16 16 16 13 15 13 15 14 12 7 7 8 9 8 10 20 21 14 13 16 17 16 17 13 7
16 16 14 11 11 10 10 10 6 3 9 11 12 11 12 13 14 11 11 10 9 9 7 5 3 1 6 6 10 11 13 14 13 14 13 12 12 10 13 10 11 6 1 5 4 4 18 14 13 11 12 13 6 5
12 7 6 5 6 2 0 -0 -1 11 3 -2 -0 7 11 7 11 4 -1 -3 -4 -3 3 6 8 -3 0 3 0 3 6 4 6 8 9 13 12 11 11 12 8 4 1 2 2 2 2 3 3 6 14 14 6 5
10 4 10 10 5 -2 -5 -5 -7 3 -7 -5 -2 -9 -1 -0 2 6 1 -5 -1 3 8 2 2 8 2 2 2 2 13 10 8 8 7 10 11 12 12 8 -1 -2 -1 1 -0 -1 -2 -2 -1 1 4 2 0 -1
7 -3 -2 7 7 3 -2 -3 -4 -5 -7 -8 -6 -8 -10 -1 3 7 -1 -6 2 2 3 3 4 6 5 3 2 2 9 5 7 17 19 22 24 22 9 8 2 0 1 -1 -4 -4 -5 -5 -6 -7 -7 -7 -7 -7

GFSWCAN_sfc_dewp_060.txt.gz
Dewpoint
45 46 51 52 51 51 51 49 48 46 45 46 46 45 43 43 42 39 39 38 32 29 30 30 29 26 26 24 24 23 30 32 36 33 32 31 28 26 26 25 26 25 25 25 25 24 21 29 31 27 30 27 27 26
45 47 52 51 51 50 50 48 48 47 45 45 46 45 44 43 42 39 36 38 35 33 30 33 33 33 32 30 27 27 31 32 32 34 34 32 28 30 27 23 26 27 27 25 27 25 29 29 30 31 24 23 23 23
44 46 51 51 50 50 49 48 48 47 46 46 45 45 44 43 42 39 39 38 37 32 28 28 27 30 32 32 32 24 30 32 30 33 33 33 29 32 26 27 29 29 32 30 29 29 26 24 31 25 27 27 27 25
44 48 52 51 50 50 49 48 48 47 46 46 45 45 43 43 41 40 39 38 36 33 28 26 30 29 31 35 34 32 32 33 32 34 30 30 29 29 28 28 29 28 28 24 24 25 24 29 26 26 29 29 26 27
44 48 51 50 50 49 48 48 48 47 46 45 46 45 43 42 41 39 38 38 37 35 28 27 29 29 31 32 34 34 32 31 29 29 31 28 30 29 27 25 24 25 23 23 22 25 26 26 29 31 30 29 30 32
44 46 50 50 49 49 48 48 48 47 46 46 46 44 42 41 37 36 33 37 38 35 34 28 28 30 31 31 32 32 32 30 30 27 27 27 27 29 23 18 21 23 23 28 28 29 30 32 32 31 30 32 33 33
44 47 50 49 49 48 48 48 47 47 47 46 44 42 41 41 40 33 31 35 37 34 32 27 28 28 32 30 31 30 31 31 30 29 27 25 25 28 25 19 19 25 28 32 32 31 31 31 31 33 35 34 34 34
45 50 49 49 49 48 48 47 47 47 46 45 43 42 41 40 37 35 38 37 34 31 30 26 23 29 31 30 29 31 29 30 30 29 28 25 25 25 20 20 22 28 30 31 31 32 32 33 33 33 32 32 33 34
46 49 49 49 48 48 48 47 46 46 45 43 42 41 37 34 33 35 37 36 36 33 27 25 23 22 29 29 33 31 29 25 29 26 25 26 23 24 24 22 24 27 29 30 31 32 32 32 33 32 31 32 34 35
47 48 48 48 48 48 47 46 46 45 44 42 36 31 32 34 39 39 34 32 33 32 30 26 27 23 28 28 29 28 28 26 25 25 27 25 25 26 26 27 28 29 29 29 29 29 30 30 32 31 30 31 33 33
48 48 48 48 48 47 46 45 45 44 41 35 31 31 35 38 33 29 27 27 23 23 28 27 26 24 29 27 26 30 27 26 24 25 25 25 25 27 28 30 30 29 30 29 28 29 30 30 31 30 30 30 30 30
48 47 48 47 47 46 45 45 44 39 37 35 35 35 32 26 23 20 16 21 19 20 28 26 27 27 29 31 28 31 25 26 22 27 24 23 27 30 31 30 30 29 29 29 29 28 29 29 30 30 30 30 28 30
48 47 47 47 46 45 45 43 41 40 37 34 30 26 25 20 12 15 9 17 22 25 27 27 25 27 28 30 27 27 24 24 28 26 23 25 28 30 29 31 29 29 27 26 27 27 28 30 30 30 29 29 22 24
47 47 46 46 45 45 43 42 40 35 33 30 26 15 21 17 16 17 20 24 24 27 26 25 26 26 26 25 25 22 25 29 24 21 23 27 27 27 25 24 24 25 25 25 27 28 29 31 30 30 30 29 26 24
47 46 46 45 45 44 42 41 36 33 31 25 25 15 18 21 22 22 23 27 27 28 26 25 26 25 25 24 23 23 21 20 21 22 25 27 27 28 26 23 22 23 24 25 26 27 28 30 30 29 31 32 29 23
46 45 43 45 44 43 40 36 33 30 27 26 23 21 22 24 22 25 23 25 28 27 25 25 23 21 22 23 21 20 18 17 22 25 28 27 28 28 27 25 23 21 20 22 26 27 28 30 30 31 31 31 30 25
43 42 44 43 42 39 37 32 31 24 26 24 23 25 24 26 25 24 22 23 26 25 23 22 16 13 22 20 19 22 21 25 28 28 27 28 29 26 26 25 23 20 20 21 24 24 26 29 31 31 30 30 30 29
41 43 43 42 37 35 31 31 27 26 21 22 25 24 21 22 23 23 25 26 26 23 22 21 20 18 16 13 16 22 26 29 26 26 26 26 25 25 24 23 21 20 23 24 23 24 25 26 27 27 30 31 29 28
42 42 42 40 36 32 29 28 28 22 22 24 24 24 24 24 25 25 26 26 25 24 23 22 18 19 17 19 22 23 22 20 17 18 19 20 21 22 22 24 22 22 23 22 20 20 21 24 26 27 29 30 28 29
42 41 39 37 33 30 26 25 29 25 23 23 23 21 20 21 21 24 25 26 25 24 22 20 18 16 16 19 23 23 22 20 19 18 16 17 19 23 24 23 22 23 22 21 21 21 20 21 22 26 28 29 28 28
39 37 36 32 30 28 25 24 22 22 21 19 18 18 18 19 23 23 23 24 25 22 22 22 20 20 21 20 20 20 20 20 19 19 17 19 19 22 23 25 24 21 18 18 17 17 18 18 20 22 24 27 30 29
36 36 32 31 27 26 25 25 22 21 19 17 17 15 16 17 18 18 18 24 22 23 22 20 20 20 20 20 20 21 20 19 20 20 23 23 21 21 22 23 23 23 24 24 21 19 18 17 19 22 24 26 28 29
34 31 29 29 24 23 22 24 20 18 19 17 15 15 12 11 11 15 17 21 20 20 21 21 21 18 19 21 19 19 19 19 17 18 18 19 20 22 23 23 23 24 23 22 24 24 23 20 20 21 22 24 25 26
30 26 23 22 22 19 19 18 18 17 16 16 13 12 10 10 9 13 14 15 16 16 17 17 17 18 16 16 16 17 19 18 18 19 19 19 20 17 18 19 19 20 22 21 22 22 21 18 20 19 20 22 22 23
22 21 23 18 20 18 16 14 13 14 10 12 11 11 9 6 12 13 12 15 13 14 16 14 14 15 15 16 17 17 19 19 19 18 19 20 19 19 21 21 19 19 20 23 21 21 21 21 19 20 20 21 21 21
17 20 17 17 18 17 15 13 11 11 10 10 8 3 3 10 10 9 11 15 15 16 16 16 16 15 15 16 16 17 18 20 19 18 20 21 20 20 21 20 20 21 22 22 22 22 21 20 19 20 20 20 22 23
16 19 21 19 16 14 13 12 11 12 9 9 7 6 7 5 5 11 13 14 15 18 17 17 17 17 17 17 19 20 21 21 19 21 21 21 22 21 22 21 20 22 22 21 21 20 20 19 19 19 20 21 20 20
20 20 17 16 14 13 11 9 10 10 12 10 11 9 8 8 9 15 16 17 17 14 14 15 15 16 17 18 20 19 19 20 19 18 18 19 20 19 19 18 18 21 21 19 21 20 19 19 20 20 20 19 20 20
19 19 18 14 13 12 10 12 13 13 13 13 12 9 10 12 14 14 16 15 10 13 15 16 17 13 15 15 15 15 15 15 14 13 12 13 14 16 16 15 16 16 16 14 19 22 19 20 20 20 20 20 20 16
17 18 15 13 9 12 11 11 10 8 12 12 12 13 14 14 15 11 13 12 13 13 11 10 10 10 12 10 9 8 10 12 12 10 7 7 9 11 12 14 14 15 15 13 14 15 19 19 18 17 17 16 17 15
15 14 11 10 9 5 4 1 4 10 4 5 3 9 11 10 12 9 6 4 5 7 11 12 12 7 7 8 7 6 7 8 5 7 9 11 12 12 13 15 15 14 12 11 11 11 12 13 12 13 14 15 16 14
12 10 12 11 9 4 -0 0 4 6 -0 3 3 0 3 7 7 11 6 5 10 11 14 12 8 10 8 7 6 6 12 10 8 8 7 9 13 19 20 15 11 9 9 9 9 10 8 8 9 10 14 13 10 8
7 3 10 13 13 6 1 2 0 -1 -1 -2 0 -4 -4 2 5 9 4 1 9 11 10 9 8 6 5 4 4 4 9 6 6 16 17 19 22 22 14 12 11 9 9 8 6 5 4 2 4 3 2 1 1 2

GFSWCAN_sfc_dewp_063.txt.gz
Dewpoint
42 44 43 44 46 47 51 50 50 49 46 46 45 45 44 42 41 39 38 37 33 28 30 29 28 25 24 24 26 26 31 33 37 33 31 28 26 24 24 25 25 24 24 23 24 24 20 29 31 27 28 27 26 25
43 43 43 44 46 51 51 50 49 48 47 45 45 44 43 43 41 39 35 36 35 31 31 31 30 31 32 30 27 31 32 32 34 36 33 30 27 28 26 23 27 25 27 25 25 26 30 27 29 29 27 27 28 28
43 44 43 44 49 51 50 50 49 48 47 46 45 44 43 43 40 40 39 37 33 31 29 29 29 31 32 33 32 28 32 33 31 34 35 33 28 31 25 26 28 28 31 29 29 29 30 24 28 27 27 28 30 29
43 42 43 43 45 49 50 49 48 48 47 46 45 44 44 43 41 39 38 37 36 31 27 27 29 29 31 34 33 33 32 32 31 35 33 32 30 30 27 28 28 29 28 25 23 23 23 25 27 27 30 31 31 30
42 42 42 43 46 50 49 49 48 47 47 46 45 44 43 42 41 40 38 38 37 37 28 27 29 30 31 33 33 32 30 29 29 31 33 31 31 29 26 25 24 25 23 21 18 25 26 26 28 31 31 31 31 32
41 42 42 44 51 50 49 48 48 47 47 46 44 43 42 41 40 36 35 38 37 39 35 29 30 31 30 31 30 30 31 30 31 28 28 28 27 30 25 19 20 24 23 26 26 29 31 31 31 31 31 32 33 32
41 42 43 48 50 49 48 48 47 47 47 45 42 41 41 41 41 35 35 37 36 37 33 30 29 31 32 31 31 30 31 31 30 29 27 25 25 29 25 19 19 21 24 28 30 31 30 30 30 32 33 33 34 32
41 42 44 46 49 48 48 48 47 47 46 44 41 41 41 41 40 35 37 36 37 34 36 32 28 29 31 28 28 31 29 30 31 29 28 25 25 25 22 21 22 23 24 25 29 30 30 31 31 30 32 32 31 32
41 43 45 46 48 48 48 47 47 46 45 43 41 39 39 36 33 36 37 37 38 37 32 31 29 25 30 29 31 30 29 26 29 27 25 26 24 24 23 22 19 21 23 23 25 26 26 28 29 30 30 30 29 30
42 44 48 48 48 48 47 47 46 45 44 42 36 33 34 36 40 39 36 35 36 34 33 28 29 25 30 29 28 29 29 27 27 26 27 25 26 26 25 24 24 25 26 26 29 27 27 28 27 27 30 30 29 30
44 44 48 48 48 47 47 46 45 44 40 35 33 32 37 38 35 30 31 31 25 30 29 28 28 25 30 28 26 29 27 28 26 27 26 27 26 25 26 24 25 24 24 24 26 27 28 27 29 28 30 31 30 31
44 46 48 48 47 46 46 45 44 39 38 37 36 37 34 29 29 28 23 25 25 25 27 26 26 27 29 32 27 30 25 26 24 28 25 24 28 32 31 27 25 22 22 23 23 24 26 25 26 27 29 31 30 31
44 47 48 47 46 46 45 44 40 40 38 35 33 32 30 24 22 24 17 21 24 28 28 28 26 27 29 29 26 26 24 24 29 24 23 26 28 23 23 29 27 25 23 22 24 25 25 25 26 28 29 29 29 29
46 47 47 47 46 45 44 42 41 38 36 35 31 19 26 21 25 27 28 31 28 31 29 28 27 27 26 26 25 23 24 26 21 19 22 28 27 26 25 24 23 25 25 25 27 28 28 28 27 29 31 30 30 29
47 47 46 45 45 43 43 41 35 35 34 30 33 20 21 23 25 25 29 29 29 29 28 27 28 26 27 25 24 25 22 20 21 22 28 28 27 27 25 24 23 24 25 26 27 27 27 28 27 27 30 31 32 32
47 46 44 45 44 43 40 37 35 33 32 32 27 23 22 26 25 27 29 27 29 28 28 28 25 24 23 24 21 21 20 18 24 30 29 23 26 26 24 23 22 22 22 21 25 26 27 27 27 28 30 30 30 32
45 43 44 43 41 39 37 36 35 29 31 31 26 25 28 29 28 27 23 23 27 27 28 27 21 18 24 22 20 22 22 26 30 28 25 25 26 21 21 22 23 22 21 20 24 24 25 26 27 27 27 28 29 32
42 44 43 41 36 35 33 35 32 30 24 26 27 26 22 24 24 23 25 26 27 25 26 26 23 21 18 16 18 24 28 34 31 27 24 23 20 19 20 21 22 23 24 25 26 25 24 25 25 24 27 28 29 32
43 42 41 38 35 35 32 29 33 24 24 26 25 25 25 25 26 27 26 25 25 24 27 26 21 22 20 21 26 30 29 25 18 17 17 19 19 18 20 25 26 25 25 25 23 20 19 22 22 24 26 27 27 30
41 40 38 37 35 32 28 26 32 28 26 24 25 23 23 23 24 27 27 26 27 30 26 24 19 18 17 20 27 26 25 21 18 16 14 13 16 24 25 26 24 25 25 25 24 23 22 22 20 19 20 23 25 27
37 36 35 34 32 29 26 26 23 25 24 21 21 23 22 25 26 27 28 28 30 27 26 22 19 20 23 21 20 21 20 20 18 17 14 18 18 22 23 25 27 24 23 21 18 19 23 27 28 23 20 22 25 27
36 36 33 33 29 28 25 25 24 23 21 20 21 22 23 22 22 21 21 27 27 27 25 22 22 22 21 22 21 24 22 21 20 20 22 22 21 21 21 23 24 24 25 26 23 20 23 28 27 20 21 22 25 26
35 32 31 31 26 24 22 25 22 22 23 20 20 20 17 18 16 17 21 24 25 24 23 23 24 23 22 24 22 22 23 22 19 18 17 17 18 21 23 23 22 24 24 24 25 24 26 27 21 20 19 21 22 23
31 28 25 24 25 20 21 20 20 20 21 20 20 16 16 16 14 18 18 21 20 19 19 22 20 19 20 21 18 20 23 23 20 20 19 19 21 19 18 18 18 20 22 22 23 23 22 20 21 19 18 21 22 22
24 22 25 20 23 20 19 18 18 18 16 16 15 14 13 12 17 17 17 23 21 19 21 19 17 18 17 17 19 19 23 21 20 19 20 21 20 20 21 22 21 21 23 24 23 23 23 23 23 22 21 21 21 21
19 21 21 20 19 20 18 17 17 16 15 14 12 9 10 15 14 15 18 22 19 22 23 22 20 17 17 19 19 19 20 22 21 20 21 23 22 22 22 21 21 22 24 24 24 23 23 22 22 22 20 21 22 22
19 20 20 17 16 16 15 14 14 17 16 13 12 11 14 12 13 17 17 18 21 25 24 23 21 20 20 20 21 21 22 23 22 22 21 21 21 22 22 21 20 21 21 21 21 21 21 21 21 21 21 22 22 22
21 22 19 18 16 17 16 15 16 16 16 14 14 12 12 13 14 22 23 23 25 23 23 22 21 21 21 22 21 19 19 19 18 18 20 20 22 22 18 19 18 19 18 18 19 20 20 21 21 21 21 21 21 22
20 20 21 17 18 18 17 17 17 15 14 17 17 14 14 17 22 22 22 21 19 21 22 22 23 20 21 21 20 17 15 14 13 12 11 11 12 14 17 15 15 16 16 16 19 21 23 22 22 22 22 22 22 20
20 20 18 16 16 17 15 12 16 15 15 16 14 17 17 19 21 17 18 20 21 21 20 19 18 17 16 14 14 13 14 13 13 11 9 8 9 11 12 13 14 16 16 16 15 16 19 20 20 19 19 18 18 18
18 19 17 16 14 12 10 7 11 12 12 14 12 18 17 16 17 15 14 14 16 18 21 20 19 15 14 14 12 10 10 12 9 9 10 12 11 12 13 14 17 17 14 12 12 12 13 14 15 14 14 13 13 17
15 14 17 15 14 11 9 11 12 14 13 17 15 12 15 16 14 19 13 13 18 20 20 18 16 16 14 12 10 9 13 11 10 10 8 9 10 13 18 17 14 13 12 12 12 12 11 10 11 10 14 15 10 8
13 14 16 15 14 13 12 12 11 11 13 13 10 7 8 9 9 15 11 11 17 19 17 16 14 12 10 7 8 9 11 10 9 16 17 19 22 25 21 16 15 13 12 11 11 10 7 4 6 3 3 1 0 1

GFSWCAN_sfc_dewp_066.txt.gz
Dewpoint
43 42 42 42 43 45 45 46 49 50 49 47 46 44 44 44 43 41 38 39 37 30 30 30 30 27 26 26 28 28 32 33 36 33 32 30 28 25 25 27 26 26 25 24 25 23 17 28 31 27 26 27 28 28
43 42 41 42 43 44 44 47 49 49 49 47 46 44 43 43 42 41 36 36 36 33 31 31 31 31 32 31 30 32 32 33 35 33 32 30 26 27 26 23 28 25 28 27 26 27 28 26 29 27 27 27 29 30
43 42 42 42 42 43 45 49 50 49 48 47 46 45 43 43 41 40 38 35 35 31 30 30 28 30 33 34 33 30 32 33 32 34 34 32 28 31 26 27 27 29 30 29 29 29 29 27 29 28 30 30 31 31
43 42 41 42 42 42 45 49 49 48 48 46 45 44 42 41 42 40 38 39 38 34 28 27 30 30 32 34 33 33 33 32 32 35 33 32 29 30 28 28 28 28 28 24 24 24 24 27 28 30 31 31 31 31
43 42 41 42 41 43 45 49 48 48 47 46 45 44 43 42 41 40 39 39 38 37 28 28 31 31 32 33 33 31 30 29 30 31 30 28 30 29 26 25 25 27 24 22 23 27 27 27 31 31 31 31 31 32
43 42 42 42 41 42 45 49 48 48 47 46 45 44 43 42 41 40 35 38 38 40 33 27 31 30 31 31 31 30 31 30 31 29 28 28 27 28 24 21 23 24 24 26 25 29 30 31 31 31 31 31 32 32
42 41 42 41 41 42 49 48 48 48 46 46 44 43 42 41 40 37 36 37 36 38 32 28 27 31 32 31 31 30 31 31 31 29 27 25 26 28 26 20 21 23 24 28 29 30 29 30 29 30 30 31 32 32
41 42 41 41 42 48 48 47 48 47 45 44 42 42 42 41 40 36 38 39 39 36 36 26 24 27 32 28 29 31 28 30 30 28 27 25 26 25 23 23 22 24 23 25 25 27 27 27 27 28 29 30 29 29
41 42 41 40 47 48 47 47 47 45 43 43 43 41 39 37 35 35 37 38 39 37 28 29 23 20 30 29 31 30 29 26 28 27 26 26 24 21 24 22 21 23 23 24 25 26 27 25 25 26 26 27 27 27
43 42 41 43 44 48 47 48 46 44 44 42 38 36 34 35 38 39 38 35 33 33 33 24 29 23 30 29 28 28 28 27 25 27 27 25 25 27 24 25 25 25 26 26 23 23 26 25 27 26 26 26 27 28
42 41 40 44 45 47 47 47 45 44 42 37 34 32 37 40 37 32 28 28 28 26 30 27 27 24 30 27 26 29 26 27 24 27 24 25 24 25 24 24 23 22 22 22 24 25 26 26 26 27 27 27 28 29
42 40 43 47 46 47 47 46 44 38 36 37 36 37 36 33 31 22 21 25 25 24 27 26 26 28 29 31 27 28 25 26 23 27 24 21 30 28 27 26 24 24 23 23 22 23 25 25 25 25 26 27 28 30
42 43 44 47 47 47 46 44 41 41 38 37 34 28 28 23 20 13 12 21 20 27 27 26 24 27 28 28 26 25 23 24 29 24 21 25 28 22 23 25 24 25 24 23 24 25 26 26 27 26 25 26 29 29
42 44 47 46 47 46 45 42 42 38 36 33 24 9 18 17 22 28 28 25 28 28 29 28 26 26 26 26 25 16 24 26 20 13 17 27 26 26 24 24 24 24 25 25 23 23 25 26 26 26 26 26 28 29
43 45 46 46 46 45 42 43 40 35 34 25 27 11 21 25 26 27 27 27 28 30 28 27 25 25 25 21 24 21 20 10 16 16 23 24 23 24 25 25 24 23 23 22 23 22 22 23 25 25 25 26 27 29
44 46 44 46 45 43 43 37 35 33 32 28 25 21 24 25 24 26 26 26 29 28 29 29 22 18 19 20 16 12 12 10 18 22 24 23 22 23 23 22 22 21 22 22 22 23 22 21 22 23 24 25 27 27
45 43 45 45 43 42 38 35 34 29 29 26 24 27 28 27 27 28 25 25 28 28 24 25 13 15 22 16 15 18 14 19 23 24 24 23 22 22 21 20 21 22 22 22 21 23 22 22 20 20 21 24 25 27
42 44 44 43 39 36 33 33 30 27 23 26 26 26 24 26 24 25 26 27 28 26 27 23 23 16 13 9 15 21 22 24 26 25 24 23 21 19 19 20 21 22 22 22 22 21 18 19 19 21 22 23 24 24
43 43 43 39 35 34 29 28 30 22 24 26 26 26 26 26 27 26 25 25 25 26 27 24 16 14 19 20 20 21 21 22 19 17 18 18 19 18 19 20 22 21 20 19 23 24 22 20 20 21 22 22 22 22
43 42 39 38 36 31 27 26 31 26 24 24 26 23 24 24 26 27 26 27 28 27 18 16 18 20 18 22 24 23 23 23 20 17 17 17 16 16 19 21 23 22 22 21 22 25 23 22 22 22 22 22 21 21
41 39 36 34 32 29 27 25 23 25 24 21 23 24 23 26 25 24 23 25 23 18 18 22 20 20 20 20 20 20 20 20 19 18 16 17 18 19 20 21 21 23 22 21 20 21 21 20 21 26 23 20 22 23
37 35 33 33 28 27 24 25 24 24 22 21 21 24 23 19 17 15 18 18 19 21 22 21 20 21 20 19 19 20 21 20 20 20 22 21 19 19 20 21 20 20 20 21 22 22 23 23 22 25 21 21 22 23
34 32 32 31 25 22 21 25 21 22 21 18 21 19 16 14 12 15 13 17 19 20 21 20 18 16 17 18 17 18 18 18 18 18 18 17 18 19 20 20 20 20 19 20 21 22 22 24 23 23 21 19 20 21
33 28 25 24 23 19 22 19 21 22 22 22 19 14 14 11 11 11 12 16 19 19 18 14 16 17 18 17 16 18 19 18 17 19 20 18 18 19 19 19 18 18 20 21 21 21 21 22 23 21 20 16 17 18
25 22 23 19 22 19 18 18 19 19 17 18 15 11 8 9 9 8 9 13 15 16 17 15 15 17 16 16 17 18 18 18 16 18 19 18 19 20 19 20 21 21 22 22 22 21 21 20 21 20 17 15 16 15
19 20 20 19 19 19 20 17 18 17 17 13 7 7 6 8 4 4 11 14 16 16 15 16 18 17 17 18 17 17 18 18 17 18 19 18 18 18 17 17 17 18 20 19 18 17 17 18 19 18 18 18 22 19
16 17 17 18 18 17 16 17 17 18 12 8 8 6 6 1 3 11 16 15 16 16 17 16 16 15 14 15 18 19 18 14 13 17 18 17 17 16 16 17 15 16 18 18 18 16 16 16 17 18 18 16 15 14
20 21 17 19 18 19 17 16 15 10 12 13 13 4 5 7 9 16 16 16 15 14 13 13 13 12 12 13 13 15 12 9 11 13 13 13 13 10 8 10 11 18 16 15 16 17 17 17 18 19 18 17 17 14
20 21 22 19 19 16 14 12 13 14 14 14 11 10 11 15 15 14 16 14 10 11 11 11 11 9 9 11 10 8 7 5 3 1 1 3 4 5 9 10 10 11 13 14 18 18 18 19 21 22 22 22 22 19
19 21 18 18 17 12 9 10 9 10 13 13 14 15 15 15 14 11 11 10 9 9 8 7 6 4 4 3 7 7 4 4 3 2 -0 2 5 8 9 9 11 12 15 15 13 12 16 16 17 15 14 13 9 8
20 22 17 14 11 8 7 7 8 13 10 8 8 12 11 7 11 9 7 5 5 5 7 6 5 2 3 2 -1 -2 1 1 -0 0 4 9 9 8 8 10 12 14 12 11 10 10 11 10 10 9 9 5 7 10
16 16 16 12 9 8 6 6 6 7 7 8 6 4 5 6 5 9 5 3 4 7 14 8 5 6 4 3 1 1 12 3 1 4 4 8 9 12 16 18 14 9 8 10 11 9 6 5 5 4 2 0 2 3
15 15 13 11 8 7 8 7 6 4 4 1 1 -2 -2 2 2 7 5 3 7 8 7 6 4 3 3 -0 -0 -0 6 -1 3 16 16 18 19 19 20 14 9 6 5 9 9 8 5 4 2 -1 -4 -5 -7 -7

GFSWCAN_sfc_dewp_069.txt.gz
Dewpoint
43 43 43 43 43 43 45 43 45 47 50 49 48 48 46 47 46 38 37 38 33 29 29 31 31 28 26 28 30 28 31 33 34 31 29 28 26 24 24 26 26 25 23 23 24 22 19 27 30 27 26 27 29 29
43 43 43 43 43 42 44 44 46 49 49 48 47 46 45 47 42 40 34 36 34 31 29 32 32 32 32 31 30 32 31 32 33 31 30 29 26 27 25 22 27 25 26 25 25 24 27 28 27 29 29 29 30 30
43 44 43 43 43 42 44 44 45 49 48 47 46 45 45 44 42 40 36 35 34 30 28 28 28 30 32 33 33 30 32 33 32 33 32 31 27 30 25 26 25 28 29 28 27 29 28 29 30 31 31 30 31 31
43 44 44 43 43 42 43 43 46 49 48 47 46 44 44 43 42 39 36 38 35 31 26 27 30 30 32 34 33 33 33 32 33 33 30 29 28 29 28 28 27 29 29 25 25 25 27 30 31 31 31 31 31 32
44 44 43 43 42 42 43 44 47 48 47 47 46 45 43 43 42 39 38 38 38 31 27 28 30 31 32 33 32 32 31 30 30 29 26 26 29 29 26 25 25 28 26 24 23 27 26 27 31 31 31 31 31 32
44 44 43 43 42 42 42 45 48 47 47 47 46 44 43 42 41 37 29 34 38 35 29 24 31 30 30 31 31 30 31 30 30 28 27 27 27 27 22 21 23 24 25 26 27 29 30 30 31 31 30 30 32 32
44 43 43 43 42 41 42 47 47 47 47 47 45 44 43 42 38 35 31 33 36 37 29 24 23 31 33 31 31 30 31 30 29 27 26 25 25 25 24 20 22 23 26 28 30 28 28 29 27 28 29 30 31 30
43 43 43 42 42 42 42 48 48 48 47 45 44 44 41 40 38 32 35 38 39 35 30 20 24 25 31 27 27 31 28 29 28 27 26 24 25 24 21 24 23 24 25 24 24 26 26 26 25 26 26 26 27 27
44 44 43 42 43 42 43 48 48 47 46 45 43 43 38 36 32 31 36 39 38 29 26 22 18 15 29 30 29 29 28 26 28 26 26 25 24 19 23 23 23 24 24 24 25 26 27 26 26 27 27 26 25 26
44 44 43 42 41 45 48 48 47 45 45 44 39 34 31 34 38 39 35 28 30 30 28 21 23 23 30 29 28 28 28 28 18 26 26 24 23 25 25 25 25 25 25 24 20 21 24 23 24 25 26 26 27 27
44 44 42 40 46 47 47 46 45 45 42 36 32 32 37 40 34 31 26 20 26 22 25 23 22 24 29 25 26 28 26 27 23 24 22 23 25 23 24 22 21 21 21 22 23 23 24 24 23 24 24 25 25 26
44 44 42 42 47 46 46 45 44 38 37 36 35 37 35 30 26 16 15 23 24 20 25 24 26 26 27 29 25 26 24 25 21 27 23 20 28 29 25 23 22 23 22 22 23 22 23 24 25 25 25 24 24 25
44 44 42 45 44 46 45 43 40 41 38 37 31 26 22 18 8 4 7 18 17 24 25 24 21 26 27 28 25 25 20 22 27 22 20 23 28 24 23 24 23 24 24 24 24 24 25 25 25 25 25 25 25 25
44 43 43 43 45 47 45 42 42 39 35 29 21 10 12 8 15 22 22 21 25 25 26 25 23 24 25 24 24 11 24 24 12 9 11 22 25 23 24 23 23 22 23 23 22 21 22 24 23 24 25 24 24 23
44 43 43 46 46 45 44 43 40 34 32 19 19 6 12 23 24 25 25 26 26 28 26 24 23 24 23 18 23 19 17 5 13 13 21 21 23 22 21 23 23 22 20 19 20 19 20 20 21 22 22 22 23 23
43 43 44 46 45 45 43 36 33 32 30 21 19 18 24 20 19 24 25 26 27 27 25 25 20 16 17 17 14 9 8 7 14 17 22 21 19 21 21 21 20 20 21 22 22 22 22 20 21 21 22 22 22 23
43 43 46 45 44 43 38 34 32 28 26 20 21 26 25 23 23 24 25 25 28 26 20 20 10 12 21 14 14 15 12 15 20 20 21 23 20 20 20 20 19 19 20 21 20 21 21 22 18 17 17 19 21 22
41 45 45 44 41 36 32 32 30 24 21 22 21 22 25 26 24 25 26 27 25 25 24 15 21 13 11 6 12 19 19 17 21 23 24 24 21 20 19 19 19 20 20 19 20 18 17 18 19 20 19 20 21 22
44 44 44 42 36 31 27 27 27 20 22 22 23 25 25 26 26 25 24 24 25 26 25 20 12 11 16 17 17 14 14 19 19 16 18 18 17 18 18 19 20 18 17 17 20 21 22 23 23 22 21 21 21 21
44 44 42 39 35 29 24 24 29 23 19 22 22 20 24 25 26 25 24 26 27 20 15 12 13 18 18 20 20 21 21 23 20 16 15 15 15 14 17 18 19 20 20 18 19 25 22 22 21 22 22 22 21 22
42 41 37 33 30 28 25 23 22 20 22 20 21 20 22 24 23 20 16 23 19 13 15 20 18 19 20 19 20 19 19 19 17 17 16 16 18 18 19 20 19 20 21 22 21 20 22 21 21 22 22 23 24 22
39 36 33 32 27 24 22 24 22 23 21 20 20 22 21 19 15 9 14 15 10 17 19 18 18 20 19 17 18 18 19 19 19 18 20 20 17 18 18 19 18 17 17 19 20 20 21 21 22 23 23 24 24 22
36 33 31 29 22 20 20 24 21 21 19 18 19 18 16 12 9 13 11 10 14 17 19 18 15 13 16 16 15 15 16 15 16 17 17 17 18 19 19 19 18 17 19 19 20 21 21 23 23 23 22 21 21 20
33 28 25 23 20 18 21 16 20 20 21 21 17 14 14 11 11 10 7 10 17 19 17 12 13 16 15 14 14 16 16 14 15 17 18 16 17 18 19 19 19 19 19 21 21 21 20 20 21 19 20 19 18 16
25 22 21 14 17 18 15 16 17 17 16 17 15 12 11 11 9 5 7 11 11 14 14 13 13 14 13 13 14 16 16 16 14 16 18 15 17 16 15 16 17 19 20 16 15 15 15 16 17 17 17 17 16 16
19 19 17 13 15 16 17 15 16 17 17 13 10 9 10 11 4 5 10 11 14 13 13 14 15 15 15 15 15 14 16 14 12 11 14 13 15 13 15 15 15 15 15 14 15 14 13 13 13 13 14 16 20 18
15 12 16 20 18 17 17 19 20 18 14 11 9 10 11 5 4 9 14 12 12 10 11 12 12 12 12 13 16 16 15 9 8 11 14 13 13 13 16 13 8 11 15 16 15 13 13 13 13 14 14 16 17 16
19 17 14 16 18 20 17 17 17 15 13 12 12 10 8 8 9 13 13 11 9 6 8 6 7 8 8 9 9 11 8 2 6 5 5 8 7 3 2 7 9 16 15 13 16 17 16 15 14 14 15 16 17 18
17 21 22 18 17 15 14 16 14 14 15 13 10 10 10 13 10 9 12 10 4 11 9 8 9 -0 3 3 2 3 0 1 1 -1 -2 1 -0 3 1 7 8 8 9 11 17 17 16 18 19 19 16 15 15 10
18 21 18 16 16 13 11 10 9 10 13 12 13 13 14 12 11 7 9 7 8 6 4 2 -0 2 2 2 3 2 -2 -1 1 1 -3 -2 0 5 8 9 9 9 10 12 10 8 14 13 8 6 6 8 9 8
22 21 15 13 11 8 7 7 8 13 7 5 5 9 10 8 10 8 5 2 1 6 7 4 2 -5 1 -1 -4 -4 0 -2 -4 -2 2 6 8 8 8 10 11 11 11 6 5 6 4 1 0 -0 2 4 6 8
18 16 15 11 9 6 4 4 4 4 4 5 5 3 6 7 5 9 5 4 4 6 14 6 3 5 2 -1 -3 -3 11 0 -1 0 3 7 9 11 13 17 8 6 0 1 1 -0 -1 -2 -2 -1 1 -2 -2 -3
17 16 15 13 11 7 6 6 4 4 4 1 2 -1 -3 2 1 7 3 -0 5 6 7 7 2 -0 0 -1 -3 -3 5 -4 2 14 16 18 20 20 15 10 8 7 -0 -1 -2 -3 -4 -6 -5 -5 -6 -6 -6 -5

GFSWCAN_sfc_dewp_072.txt.gz
Dewpoint
44 44 44 44 44 44 44 44 44 47 51 50 49 48 47 47 43 38 36 37 32 29 29 31 31 27 27 31 30 30 31 33 33 30 28 27 25 24 24 25 25 25 23 23 24 23 20 27 30 25 26 29 29 29
43 44 44 44 44 44 44 44 44 48 49 49 48 47 46 47 43 39 33 35 34 31 30 31 31 32 32 31 31 31 30 32 33 30 29 28 26 26 24 22 26 24 26 25 25 25 26 28 28 30 29 29 30 29
43 44 43 43 44 44 44 44 45 48 49 48 47 46 46 45 41 39 35 34 33 29 28 28 28 30 32 33 33 31 31 33 32 32 31 30 27 29 24 25 23 26 29 28 27 27 28 30 30 30 31 30 31 31
43 44 43 44 44 44 43 44 44 48 47 46 46 46 46 43 42 38 36 37 33 30 26 28 31 31 32 33 32 33 33 33 33 32 29 28 28 29 27 27 27 28 28 26 24 26 28 29 30 30 30 31 31 31
44 44 44 44 44 44 43 43 44 47 47 46 46 45 45 43 42 38 38 37 36 30 27 28 30 30 31 31 31 32 31 30 30 28 26 26 28 27 26 25 24 27 26 25 24 26 25 27 30 31 29 29 31 31
44 44 44 44 44 43 42 43 44 48 46 47 45 43 44 43 39 33 30 35 37 35 28 25 31 30 31 31 31 31 31 30 29 27 26 26 27 26 22 21 23 24 25 26 27 27 29 29 31 29 28 29 30 30
45 44 44 44 43 43 42 45 48 47 47 46 44 44 44 41 38 34 30 34 37 34 29 25 26 30 32 31 30 30 30 30 28 27 26 25 25 25 24 20 22 24 29 29 28 28 27 28 25 26 26 28 29 29
45 44 44 44 43 43 42 45 47 47 46 46 45 43 41 40 37 31 34 39 38 33 29 21 26 25 30 27 27 30 27 28 28 27 26 24 25 24 20 23 24 25 24 23 24 25 25 26 25 25 26 26 26 25
46 45 44 44 44 43 43 42 47 47 46 44 43 42 37 35 29 30 38 40 37 30 24 20 18 18 28 28 28 28 28 25 28 26 25 25 23 19 22 23 22 23 23 23 25 25 25 24 24 24 24 24 24 25
45 44 44 44 45 44 43 44 48 47 45 44 38 34 30 33 40 39 34 27 28 28 26 18 22 22 27 27 27 24 27 24 14 26 26 23 24 24 24 24 24 24 24 23 19 18 22 21 22 22 23 24 24 25
45 45 45 45 45 44 42 46 47 46 41 35 32 32 36 40 33 29 23 18 23 19 24 21 21 24 29 23 26 27 25 27 22 25 22 20 25 24 23 21 20 20 21 21 22 22 22 22 22 22 23 24 25 24
45 45 45 44 43 42 43 47 46 39 36 35 35 37 34 29 26 19 19 21 19 17 24 23 25 27 27 28 24 26 21 25 16 27 23 20 23 24 22 20 20 22 21 22 22 22 23 24 24 24 23 22 22 23
45 45 44 42 44 47 47 45 42 41 38 36 30 27 25 20 6 5 2 11 21 24 23 23 21 25 26 26 25 25 15 16 27 23 19 20 25 24 24 23 22 22 22 23 23 23 24 23 24 24 23 23 24 23
45 44 42 42 47 46 45 43 43 39 34 28 19 11 17 15 14 17 20 19 23 24 25 24 22 23 25 21 23 12 23 23 12 7 12 18 25 22 22 22 22 20 22 22 20 20 21 22 22 22 23 23 22 21
44 43 42 46 46 45 44 43 38 34 32 24 20 14 13 23 26 22 18 24 24 27 24 23 22 23 19 19 22 21 18 7 13 12 17 20 23 21 20 20 22 21 18 17 17 17 16 18 20 21 22 22 21 21
44 43 40 42 45 45 44 38 34 32 30 24 17 16 24 23 21 21 22 24 25 26 24 23 18 14 16 19 15 10 9 8 13 16 21 22 20 19 19 21 21 19 19 19 19 19 20 18 19 20 21 21 21 20
43 40 43 43 44 45 39 33 32 27 25 19 17 25 25 18 18 21 25 25 27 23 18 17 7 10 20 14 14 15 13 15 18 20 20 22 18 18 19 19 19 18 17 18 18 19 19 19 16 15 16 19 19 20
39 42 44 46 44 40 33 33 28 24 21 22 19 23 25 23 23 24 26 27 24 24 20 11 19 10 10 8 12 18 20 16 20 21 23 24 22 20 19 19 19 18 19 17 18 17 14 16 18 20 20 21 20 20
39 45 45 43 39 33 30 29 26 21 23 23 25 25 24 25 25 24 24 25 25 25 21 15 9 9 15 17 16 13 13 18 21 16 16 18 17 16 17 18 19 17 16 16 18 19 20 21 22 22 22 22 21 21
44 45 43 41 35 29 26 25 27 24 21 23 23 23 26 24 25 24 24 25 26 16 12 9 11 14 18 20 20 22 20 22 18 13 12 13 15 13 17 17 18 18 18 16 18 23 22 21 21 21 21 21 22 22
44 41 42 34 30 29 26 23 22 23 22 20 19 20 19 20 19 20 14 20 18 10 12 18 17 19 20 20 20 19 19 18 16 15 14 15 17 17 18 18 15 18 18 19 19 19 21 20 21 21 22 22 23 23
40 40 33 31 27 25 23 25 23 24 19 18 17 19 17 17 17 12 12 15 11 16 18 18 18 19 18 17 18 17 18 18 18 18 19 20 16 17 18 19 18 16 14 16 18 19 20 21 22 24 25 24 25 21
38 35 31 29 23 21 20 25 22 21 18 17 17 16 14 15 13 13 13 11 14 16 18 17 13 11 16 15 14 14 14 14 16 16 17 17 18 18 17 17 16 12 17 18 20 20 19 19 17 18 17 18 19 18
35 29 26 23 21 18 22 18 21 21 20 17 13 12 14 14 12 10 8 11 16 18 17 12 14 16 14 14 14 15 15 12 12 14 17 15 13 16 17 16 16 15 18 17 15 14 14 14 16 15 15 15 15 16
28 23 22 16 17 15 13 12 13 15 14 15 14 13 13 12 11 7 8 12 12 15 14 13 13 14 13 13 12 14 15 14 12 13 13 12 12 11 9 13 14 15 16 11 11 12 12 13 13 12 12 12 14 17
23 20 18 14 13 14 15 13 13 15 16 13 12 11 9 13 10 7 12 13 15 13 14 15 15 15 14 14 14 12 14 12 9 8 8 10 10 9 11 13 10 9 12 9 12 12 11 11 11 12 12 13 18 17
16 13 16 20 18 18 18 19 20 19 17 14 11 12 12 7 7 11 13 13 13 11 13 15 14 13 13 12 14 14 12 4 7 7 10 9 9 11 12 8 5 9 12 14 13 12 11 12 12 12 12 13 14 16
17 16 15 17 17 18 18 18 19 17 15 14 14 12 11 10 11 13 13 11 9 11 10 7 7 8 7 7 6 9 3 0 0 0 3 5 3 -1 -1 2 6 16 14 10 13 15 15 13 13 13 14 14 15 17
18 20 21 17 16 14 13 17 16 15 15 15 13 10 9 12 9 9 12 10 5 15 14 12 7 -3 -0 -0 -1 -2 -3 1 2 -0 -2 -1 -1 2 -1 6 7 7 5 6 15 16 15 17 16 15 13 13 13 10
18 21 16 14 15 12 10 12 14 14 14 13 14 13 13 12 9 6 9 9 11 8 5 4 0 2 2 1 -1 -1 -4 -4 -1 1 -4 -4 -2 2 6 6 8 8 6 6 8 6 13 10 6 4 6 8 8 4
21 19 14 12 10 10 11 9 11 12 9 8 6 10 9 7 11 8 6 1 1 5 8 2 -1 -8 0 -2 -3 -3 -0 -4 -6 -3 -1 4 4 5 7 9 10 11 8 1 2 1 -3 -3 -5 -4 -2 -3 -2 0
17 16 16 13 12 12 11 9 7 9 7 7 4 3 6 9 7 10 5 3 2 5 13 7 5 6 2 -2 -4 -4 10 -2 -4 -4 -2 4 6 9 12 12 8 7 -2 -3 -4 -4 -6 -8 -7 -6 -4 -6 -5 -5
18 17 16 15 14 12 9 9 7 6 4 2 2 -0 -1 4 3 9 2 -2 7 9 9 8 -1 -0 1 -0 -2 -3 5 -6 1 14 16 18 19 20 11 6 8 2 -2 -3 -6 -7 -8 -10 -9 -9 -7 -5 -5 -4

GFSWCAN_sfc_dewp_075.txt.gz
Dewpoint
41 42 43 44 45 44 45 45 45 46 50 50 49 49 50 48 42 40 35 35 31 29 29 31 31 27 30 32 30 31 31 32 32 29 27 27 24 24 22 23 23 25 22 22 24 24 19 27 29 23 25 28 29 29
41 42 43 44 45 45 45 45 45 46 50 49 48 47 47 46 42 39 32 35 34 31 29 31 31 32 32 31 31 30 29 31 32 30 29 28 27 25 23 21 25 23 25 24 25 24 27 29 28 29 28 29 29 28
41 43 43 44 44 44 45 45 45 49 48 48 47 45 45 47 42 39 34 34 32 29 28 29 28 30 32 33 33 31 31 33 32 31 30 29 26 28 23 24 21 25 28 27 26 26 27 28 29 30 30 29 30 30
41 42 44 44 44 44 45 44 45 48 48 47 45 45 46 44 41 38 35 36 32 29 26 28 31 30 32 32 32 33 33 33 33 31 28 28 27 28 26 26 26 27 27 26 24 25 26 29 28 29 30 30 30 31
42 43 44 44 44 44 44 44 44 45 46 46 45 46 44 43 41 39 37 37 35 29 27 28 30 30 31 32 32 32 31 31 30 28 26 26 28 27 25 25 24 26 26 25 25 26 26 26 29 30 27 27 29 29
42 43 44 45 44 45 44 43 43 45 45 46 45 46 44 43 40 33 30 35 36 34 29 24 30 30 32 31 30 30 31 30 28 28 26 26 27 26 23 22 23 24 26 26 25 27 28 28 30 28 26 26 28 28
41 43 44 45 45 45 44 43 45 47 46 45 43 45 43 41 38 32 31 34 37 34 28 25 24 30 32 30 30 30 30 29 28 27 25 24 25 25 23 20 21 24 27 27 26 27 26 26 24 26 24 26 27 26
42 43 44 45 45 44 43 45 48 47 46 44 45 44 41 40 37 31 36 40 36 30 28 22 25 25 29 27 26 30 27 27 28 26 25 24 24 23 20 22 23 26 24 23 24 24 22 24 24 24 24 25 24 23
42 43 44 45 44 44 43 43 47 46 45 45 43 42 36 34 28 29 38 38 36 30 23 21 20 19 29 28 28 28 28 24 27 25 25 24 23 18 20 23 23 25 23 22 25 23 23 21 22 21 22 22 21 22
43 44 44 45 45 45 44 42 47 47 45 45 38 34 28 32 40 38 32 27 28 28 27 22 25 22 25 25 24 24 27 24 14 25 25 23 23 25 24 24 24 24 23 23 18 16 20 19 21 21 21 22 23 23
43 44 45 45 45 46 45 43 47 46 43 34 31 30 34 39 32 27 23 20 23 19 26 23 22 24 28 21 23 26 23 25 14 20 20 17 20 24 23 22 21 20 20 20 21 21 22 21 21 21 22 23 24 24
45 45 46 46 46 46 45 43 47 40 35 35 35 36 32 27 23 14 13 20 21 17 24 24 25 26 27 27 24 24 21 24 14 26 18 14 21 24 23 20 19 20 20 21 21 22 22 23 23 22 22 21 21 22
45 46 46 46 46 46 44 45 44 40 38 34 30 27 26 20 4 1 2 11 16 24 25 23 22 24 25 26 23 19 14 15 26 22 16 19 23 24 22 22 21 22 22 21 21 22 22 21 22 22 21 22 22 22
46 46 46 46 46 45 44 45 43 39 34 29 21 16 19 12 12 13 18 21 25 25 24 23 23 23 25 21 21 12 23 21 15 8 12 17 24 24 22 22 21 18 20 21 20 19 20 21 20 21 21 21 21 21
46 46 46 45 45 44 45 45 41 35 31 26 22 13 12 22 25 24 20 24 23 26 24 22 21 22 20 20 22 21 19 8 14 13 17 20 21 22 21 20 19 20 18 17 16 15 14 15 18 19 20 21 21 21
46 45 41 43 46 46 45 42 35 33 29 22 17 16 23 22 24 20 15 19 23 24 24 23 18 16 17 19 15 11 10 9 13 16 21 21 20 20 20 19 19 20 19 18 18 17 18 17 18 18 18 19 19 20
43 38 42 46 45 43 40 35 33 28 27 18 20 25 25 23 22 23 24 24 25 21 17 18 9 11 19 13 13 13 11 14 17 19 20 22 19 16 17 18 19 19 18 17 16 18 18 18 12 14 15 19 19 21
39 42 44 45 41 39 35 33 30 26 20 20 22 24 25 24 23 24 24 26 24 22 19 13 19 11 9 7 11 17 18 14 19 21 22 23 21 19 18 17 17 18 18 17 17 16 12 15 17 19 19 20 19 19
40 41 44 43 39 34 32 31 29 19 19 23 25 25 24 24 25 25 25 24 25 24 18 13 9 10 13 15 14 10 12 18 23 20 16 17 16 14 15 16 17 15 14 13 17 18 19 19 20 21 21 21 20 21
43 43 43 43 38 31 28 27 29 22 21 23 24 24 25 23 24 22 23 24 24 13 11 9 10 12 16 18 20 21 21 21 15 9 9 11 14 12 16 16 18 17 17 15 16 21 20 19 20 21 21 22 23 22
41 41 43 37 32 30 28 24 23 22 23 23 23 23 20 18 16 15 14 20 14 10 15 18 17 19 22 21 20 20 19 15 13 12 12 13 16 16 15 15 12 17 16 18 18 19 20 19 20 21 22 22 23 24
40 40 33 33 28 26 24 25 23 23 21 22 21 21 16 14 12 11 10 10 11 18 19 18 18 19 18 17 17 16 18 17 17 17 18 19 15 15 17 17 16 13 12 13 17 17 17 15 15 16 17 16 18 17
38 35 31 30 25 23 21 25 22 22 21 19 18 17 14 9 10 13 12 9 14 16 18 17 14 13 17 14 15 14 14 14 15 16 17 17 17 17 14 14 13 6 12 16 16 14 13 16 14 14 13 13 13 13
35 31 27 24 23 19 22 20 23 21 21 17 14 12 11 12 13 13 13 12 16 18 17 13 17 16 15 14 14 14 14 11 11 12 15 13 9 14 14 13 13 12 15 14 12 12 12 12 14 11 11 11 11 11
29 24 25 18 21 19 17 17 18 18 15 13 13 10 10 13 14 12 10 12 12 16 16 15 14 15 14 13 12 13 13 13 10 10 9 11 10 8 6 10 12 13 13 6 9 10 10 10 10 10 11 11 13 15
22 21 21 18 16 15 16 15 15 16 15 12 12 12 12 15 14 11 13 15 16 16 16 16 15 14 14 14 13 12 13 11 9 7 6 8 8 5 -1 7 4 7 9 7 10 10 10 10 10 10 11 12 16 14
18 16 18 19 18 18 18 19 19 19 15 12 11 11 14 11 8 12 14 14 15 15 17 17 16 15 15 14 14 13 10 3 5 6 7 7 7 7 5 2 2 8 11 13 11 10 10 11 11 10 11 11 12 13
17 16 15 17 18 19 19 19 19 18 16 16 16 14 11 11 12 15 15 10 10 14 10 8 9 12 12 7 7 9 2 -2 -4 -3 1 3 1 -3 -3 1 4 15 15 9 13 13 13 12 12 12 12 12 12 13
17 19 19 15 16 14 15 18 17 17 16 18 15 11 11 13 12 8 11 11 7 17 15 13 5 2 4 0 -2 -5 -4 -1 1 -2 -2 -2 -3 1 -4 -1 2 4 4 4 14 16 15 17 13 13 9 8 9 8
17 21 16 13 15 12 11 12 15 15 15 14 15 15 15 13 10 7 10 11 15 14 10 11 8 7 5 5 1 -1 -5 -6 -2 2 -2 -3 -2 -1 -1 4 6 6 5 4 4 1 12 5 1 -4 -2 -1 0 -2
21 18 13 12 10 11 12 12 15 14 13 12 11 13 12 11 11 7 5 2 5 8 10 6 -3 -7 5 -4 -3 -3 0 -3 -8 -5 -4 -4 -4 -1 6 7 8 8 3 -4 -5 -5 -7 -6 -9 -9 -5 -6 -5 -1
17 15 15 12 12 14 14 14 13 13 10 10 8 6 6 10 10 11 7 6 7 10 14 12 10 8 3 -3 -4 -4 10 0 -2 -2 -5 -3 0 7 9 6 5 -2 -4 -5 -7 -8 -9 -10 -9 -7 -5 -5 -5 -5
18 17 16 15 15 16 15 15 11 10 8 5 2 -1 -1 6 9 13 4 2 10 15 14 10 -0 1 4 2 -0 -2 6 -6 1 13 15 17 19 21 10 3 2 -1 -2 -3 -6 -8 -8 -11 -9 -8 -5 -3 -2 -3

GFSWCAN_sfc_dewp_078.txt.gz
Dewpoint
40 40 42 44 44 45 45 46 46 48 49 50 50 49 48 45 44 38 33 34 31 28 29 31 31 30 32 32 30 30 31 32 32 28 26 26 23 24 21 22 22 24 21 21 24 22 17 28 28 22 24 27 29 28
40 40 42 44 45 45 44 45 45 49 49 48 48 48 48 44 44 38 32 34 33 30 29 30 31 32 31 31 31 30 29 30 32 29 28 28 26 23 22 20 24 23 25 24 24 23 26 27 27 28 28 28 27 27
40 41 42 44 44 44 45 45 45 49 48 47 46 46 46 43 43 38 32 34 32 28 28 29 28 30 32 32 33 31 31 32 32 31 29 28 26 27 22 23 21 24 27 26 26 25 26 27 28 28 28 28 29 29
40 41 43 44 45 45 45 45 45 48 47 46 44 46 47 45 41 38 34 35 31 29 26 27 31 30 31 32 32 33 33 33 32 31 28 28 27 27 25 25 25 27 27 26 25 25 25 28 29 28 29 28 28 29
40 41 42 43 45 45 45 45 44 44 47 44 46 45 44 42 42 38 36 36 34 30 26 27 29 30 32 31 32 32 32 31 30 28 25 25 27 26 24 25 24 27 26 26 25 26 26 25 28 30 26 25 27 27
39 41 41 43 44 45 45 45 44 43 46 45 46 45 43 42 40 33 30 34 36 34 29 23 29 29 32 30 30 30 30 29 28 28 26 26 26 25 23 22 23 24 25 26 25 26 26 28 29 28 25 25 26 27
40 40 42 43 44 45 45 45 44 45 46 45 45 44 42 41 38 32 30 33 37 33 28 21 22 29 30 29 30 29 29 29 27 26 25 24 25 24 23 20 21 24 27 26 26 26 24 26 23 26 24 25 26 25
41 40 42 43 44 45 45 44 47 47 46 44 45 43 42 40 37 32 35 40 34 30 29 21 22 23 29 27 26 29 27 27 27 25 25 23 24 23 20 22 23 26 26 23 22 23 20 24 22 22 22 23 22 21
41 41 42 44 45 45 44 43 48 47 45 45 43 40 36 33 28 30 39 37 34 28 22 22 19 16 29 28 28 28 28 23 27 25 25 24 22 19 20 21 24 26 23 23 23 22 22 20 19 20 19 19 19 20
40 41 42 44 45 45 45 43 47 46 45 44 37 32 29 31 39 37 32 27 28 29 28 18 22 20 25 25 25 24 26 25 18 25 25 23 22 25 24 24 24 25 24 22 17 13 19 18 18 19 19 21 21 22
40 41 43 44 46 46 46 43 47 46 41 34 31 29 33 38 31 27 23 18 23 19 26 24 23 24 28 23 24 26 20 22 14 21 21 16 19 24 23 23 23 22 20 20 19 20 21 20 19 20 21 22 23 23
41 43 44 45 46 46 45 43 47 41 37 35 34 35 32 27 23 14 15 20 19 16 24 23 24 26 27 27 24 24 19 18 15 24 16 13 19 23 22 21 19 18 18 19 21 20 21 22 21 21 21 19 20 21
42 44 45 45 46 46 46 44 46 41 38 34 30 26 25 20 8 6 3 10 18 24 26 26 23 25 26 26 22 18 13 15 25 21 12 17 21 24 23 21 19 20 21 21 20 21 21 20 21 20 19 20 20 20
42 44 45 46 47 46 46 45 45 40 35 30 24 17 17 10 15 15 16 20 24 26 25 23 24 23 24 21 20 12 23 21 14 7 10 15 20 24 22 21 20 18 18 19 20 19 20 21 20 19 20 20 19 19
43 45 46 46 46 46 45 45 44 37 32 28 23 13 16 20 23 21 20 21 24 26 24 22 21 21 18 19 21 22 19 13 13 12 16 17 18 22 21 21 20 18 17 16 16 14 14 14 16 17 19 19 20 20
44 45 45 45 46 46 44 44 38 36 31 25 17 11 21 18 23 25 18 23 25 24 23 22 17 13 16 18 14 14 10 8 14 16 19 20 20 21 20 18 17 18 18 18 18 16 17 16 17 17 16 17 18 19
44 41 45 45 46 45 43 36 34 31 30 25 15 23 24 23 24 25 24 25 25 22 17 17 5 8 18 10 13 14 11 15 16 17 19 21 21 16 18 18 17 17 17 17 16 16 15 17 11 12 14 17 17 20
41 42 44 45 44 42 35 33 32 29 25 21 19 22 26 24 25 24 25 25 24 22 19 12 17 10 9 8 11 17 17 13 19 20 21 22 19 16 15 16 17 17 16 12 14 12 10 12 15 18 18 19 19 19
41 44 44 43 39 35 32 30 31 24 20 21 24 25 25 25 25 26 26 25 25 23 19 13 7 9 12 15 14 11 14 20 23 22 16 16 14 14 15 15 15 14 11 12 16 17 18 19 19 20 20 20 20 21
44 43 42 41 38 32 28 26 30 24 21 22 24 25 25 25 24 23 24 24 23 15 11 9 10 11 14 18 20 21 21 19 14 8 9 11 14 11 15 14 15 14 13 12 13 20 18 17 17 17 18 18 18 18
43 42 41 37 32 31 29 25 23 24 23 22 24 24 22 22 21 18 16 19 16 11 13 17 17 19 21 21 22 21 17 12 9 6 7 11 15 14 13 13 10 16 15 16 16 16 16 14 14 15 16 16 16 16
40 38 33 34 28 27 25 25 22 24 23 22 22 23 21 20 19 17 14 12 13 18 18 18 19 19 18 16 16 16 17 16 16 18 19 18 14 13 14 14 11 4 5 8 13 13 12 12 13 14 14 12 14 12
38 35 31 30 25 25 21 26 22 22 20 20 20 19 19 17 16 15 15 12 14 16 18 18 15 15 17 14 16 15 14 14 14 15 16 16 16 15 12 12 10 4 7 12 13 12 10 14 12 12 11 11 11 11
36 31 28 26 25 19 23 21 24 21 21 19 19 17 15 16 15 11 12 14 16 18 17 15 17 15 15 15 15 15 14 12 11 11 13 12 8 12 12 11 12 11 13 12 10 10 10 10 13 10 10 10 10 11
28 25 24 19 23 18 13 16 19 20 17 18 16 15 15 15 12 8 11 14 13 17 17 16 16 15 14 12 12 14 12 12 11 10 9 10 9 7 6 8 10 9 11 3 6 9 8 9 9 9 9 10 12 13
23 22 22 21 18 13 14 14 15 16 16 14 16 14 14 15 12 10 14 16 19 19 17 16 15 14 13 15 15 13 15 11 10 8 5 7 7 4 -4 1 1 5 9 7 7 8 8 8 9 8 9 10 15 12
17 18 21 22 18 16 16 18 18 18 16 15 13 12 15 14 13 14 16 17 18 17 20 19 17 16 15 15 15 15 12 5 5 6 7 6 6 6 3 0 0 7 11 11 9 9 9 9 10 10 10 10 11 11
23 19 11 13 14 14 15 17 17 18 18 17 15 14 15 12 12 17 18 15 16 19 14 11 12 17 17 13 15 12 4 -2 -1 -1 2 3 -0 -4 -3 -2 0 14 14 8 13 13 11 11 11 11 10 8 8 9
16 16 16 7 8 11 15 18 19 19 19 17 17 13 11 14 14 14 14 14 17 16 15 13 8 8 6 4 2 -1 1 6 4 -0 -1 -1 -4 -0 -6 -4 -1 -1 -1 1 13 15 15 16 11 10 3 4 5 3
15 13 13 8 10 11 11 14 15 15 15 16 16 15 15 15 13 11 13 15 18 18 17 16 11 13 10 10 3 1 -3 -4 -1 3 1 -2 -1 -2 -6 -3 0 -0 -1 0 -1 -3 11 2 0 -7 -5 -4 -4 -3
16 14 11 11 10 10 12 13 16 15 15 15 14 16 15 15 15 11 9 6 12 14 13 10 2 3 9 6 4 4 2 -2 -8 -5 -5 -5 -6 -5 -2 -0 0 0 -3 -6 -7 -6 -8 -7 -10 -10 -6 -6 -5 -1
15 15 13 10 11 13 14 14 15 14 14 15 12 12 12 15 13 14 10 9 12 12 16 15 13 10 6 1 3 -1 11 5 3 -1 -3 -3 -3 3 4 0 -2 -4 -5 -5 -7 -9 -10 -11 -9 -7 -5 -5 -4 -3
16 15 14 14 14 13 13 15 15 14 13 11 9 7 6 10 11 15 7 5 12 16 16 14 6 11 8 6 4 5 8 -2 3 13 14 17 19 17 8 -1 0 -1 -2 -3 -6 -8 -9 -11 -9 -8 -5 -4 -2 -0

GFSWCAN_sfc_dewp_081.txt.gz
Dewpoint
39 40 41 43 44 45 45 46 47 49 50 50 50 48 47 45 41 35 33 34 32 29 29 31 31 29 30 31 29 30 31 31 31 27 26 25 23 23 21 21 22 23 21 22 23 20 17 27 28 23 25 28 28 29
39 40 41 42 44 45 46 46 46 50 49 48 49 48 46 46 42 37 31 34 33 30 29 31 31 32 30 30 31 30 29 29 31 29 28 27 25 22 21 20 23 23 24 24 24 23 26 28 28 29 28 28 29 28
38 40 40 42 44 45 46 46 46 49 48 47 46 46 45 43 42 37 32 34 31 29 28 29 29 31 31 31 33 31 31 32 31 30 29 28 26 25 22 23 21 24 27 26 26 25 27 28 29 29 29 29 30 30
38 40 40 42 43 45 45 45 45 45 48 46 46 47 45 44 42 38 33 33 31 29 27 27 30 29 32 32 32 33 33 33 32 30 27 28 26 28 25 24 25 26 28 26 26 26 26 28 29 29 29 29 29 30
38 40 40 40 43 44 45 45 45 44 45 45 46 44 43 43 41 37 36 35 32 29 26 26 29 31 32 31 32 32 32 31 30 27 25 25 27 26 23 24 24 27 27 26 25 26 26 26 28 30 27 25 27 28
38 40 39 40 42 43 45 45 45 44 45 46 46 44 43 41 38 33 30 34 35 33 27 22 29 28 31 30 29 29 30 28 28 28 26 26 26 25 23 22 24 25 25 26 25 26 26 28 29 28 25 25 26 27
39 40 39 40 42 44 46 45 45 44 45 46 46 43 41 40 37 31 29 33 36 33 28 20 21 28 30 29 29 28 28 28 27 26 25 25 25 24 23 22 22 24 26 26 27 27 25 27 26 27 24 24 25 24
39 40 40 40 42 44 45 45 46 47 46 46 44 42 42 41 37 31 35 38 33 30 29 20 20 23 29 26 25 29 26 27 27 25 25 23 23 23 21 23 22 25 26 23 23 23 19 25 23 22 21 21 19 19
39 40 39 40 43 44 45 44 48 47 46 46 43 40 35 32 28 30 39 36 33 27 21 21 20 17 28 28 28 28 27 23 27 24 24 23 21 18 22 21 23 26 24 22 23 22 22 21 19 18 18 18 19 19
40 40 40 41 43 44 45 43 47 46 45 42 37 32 28 31 40 36 31 27 26 27 26 19 25 22 26 25 24 24 26 24 15 24 25 23 22 23 24 23 24 26 23 23 18 14 18 17 18 16 18 19 20 20
40 39 39 42 44 45 45 44 47 45 40 36 31 30 33 38 30 26 22 18 22 18 25 22 23 25 28 21 24 26 21 20 12 20 21 17 18 23 23 23 24 25 23 20 16 17 19 18 19 19 20 21 21 21
40 40 40 43 44 45 46 45 46 40 37 35 34 34 30 26 22 13 12 19 19 14 24 24 25 26 27 27 25 24 19 18 14 22 16 13 19 22 22 22 20 19 18 17 19 19 20 20 21 21 21 19 19 20
40 41 42 43 44 45 46 45 46 41 38 34 30 26 24 20 8 8 8 13 16 23 25 26 25 26 26 26 22 18 14 16 23 19 13 16 19 23 22 20 18 18 18 20 20 20 20 20 21 20 19 19 19 19
40 41 42 43 45 46 47 46 44 41 38 31 28 24 21 13 15 18 19 22 25 26 25 24 25 23 24 21 20 12 21 21 15 10 10 14 19 22 23 21 19 18 20 18 18 17 19 20 19 19 19 19 19 18
40 41 43 44 46 46 47 46 43 39 35 31 26 18 19 21 20 21 20 24 26 27 25 23 22 21 19 19 21 21 19 13 13 10 15 16 17 21 21 20 19 18 15 14 14 13 11 13 15 16 17 18 19 19
39 41 42 44 46 47 45 42 38 37 32 27 19 11 16 17 18 23 22 24 26 26 25 24 20 16 16 18 15 14 9 8 13 16 19 20 19 20 20 19 17 17 17 17 15 15 15 13 15 15 15 16 17 18
40 41 44 46 46 46 42 36 35 32 32 27 19 21 22 23 22 24 24 24 26 24 22 20 11 12 18 11 12 15 12 15 16 17 19 21 21 18 17 16 16 16 16 16 13 14 13 14 9 9 13 17 17 19
40 42 45 46 45 41 35 35 34 31 27 21 16 18 25 24 25 25 25 26 25 24 20 14 19 13 13 8 11 17 18 14 19 21 21 20 18 15 15 16 16 17 14 10 12 10 8 10 14 17 17 18 18 18
42 42 45 45 41 36 32 31 32 23 19 16 20 23 24 25 26 26 26 26 24 23 20 16 10 11 13 16 16 15 17 21 22 21 16 14 14 15 16 15 14 12 8 9 15 16 17 16 16 17 16 16 16 16
43 44 45 44 40 33 29 27 29 18 14 19 19 19 24 25 24 25 26 25 24 20 15 11 11 11 13 16 20 22 23 22 17 11 11 12 14 11 15 13 14 12 10 8 11 17 14 13 13 13 14 15 14 13
43 43 45 37 33 33 30 26 21 23 20 18 16 20 22 23 24 23 23 23 20 14 15 17 15 19 21 21 23 22 17 11 6 4 6 11 15 14 12 11 9 14 13 14 13 13 13 12 12 14 14 13 13 13
40 39 34 34 29 28 26 27 25 24 22 19 19 22 21 21 22 21 20 18 15 20 18 19 20 20 20 18 16 16 14 16 18 19 21 20 14 13 13 12 10 7 3 5 11 10 10 11 13 14 12 12 13 11
39 36 32 31 26 26 22 22 22 22 20 20 20 21 21 21 20 18 20 19 19 20 20 19 18 18 17 16 16 15 15 14 15 17 16 16 16 14 11 11 9 3 3 9 10 10 7 13 11 12 10 10 10 10
37 33 28 26 26 20 24 21 23 22 21 20 20 20 17 19 17 17 16 16 19 20 18 17 18 16 16 16 16 16 14 14 14 12 13 12 9 11 11 11 11 9 11 10 8 7 8 9 12 9 9 9 8 10
29 26 26 20 22 14 9 14 16 19 17 19 17 15 16 16 17 15 11 19 19 19 19 18 17 16 14 14 15 16 13 13 13 11 7 9 9 6 5 8 8 8 9 1 3 6 5 7 7 7 8 8 11 12
25 24 22 16 15 13 13 11 13 13 10 10 15 14 15 17 15 13 14 18 20 20 19 18 15 15 14 15 15 16 16 10 10 9 6 8 8 5 -2 1 1 4 8 8 5 4 5 7 7 6 8 8 14 9
19 19 22 22 19 16 14 15 16 14 12 10 12 12 16 15 13 16 17 19 21 22 22 21 18 16 15 15 15 15 12 6 6 7 10 8 7 6 4 1 0 6 8 8 8 8 7 8 8 8 8 7 5 7
24 19 16 16 14 13 11 13 14 14 15 18 15 14 16 15 15 17 18 17 20 23 20 17 18 19 18 18 15 11 3 -0 1 5 6 3 0 -3 -4 -2 -0 13 11 6 11 13 9 8 9 9 6 3 3 2
12 15 18 7 9 12 14 15 16 16 18 16 17 16 17 16 14 15 15 16 19 19 16 14 11 12 10 8 5 3 6 8 7 4 3 1 -2 1 -4 -5 -4 -4 -3 -2 12 12 13 15 6 5 -2 -3 -2 -5
12 16 13 9 13 13 13 13 13 7 13 15 16 16 16 15 14 12 14 16 19 19 18 16 14 15 13 12 6 2 -3 1 3 8 5 3 3 -2 -6 -5 -4 -5 -5 -4 -6 -7 11 -0 -1 -8 -7 -6 -5 -5
17 15 12 11 10 9 7 11 12 16 15 15 17 18 16 16 15 14 13 12 17 17 15 14 15 17 14 12 11 7 6 3 -1 -1 0 1 -1 -3 -4 -5 -4 -4 -6 -7 -7 -7 -9 -8 -11 -11 -7 -6 -5 -1
17 13 12 9 7 11 13 14 15 15 15 16 15 14 13 16 15 15 12 13 17 16 18 17 15 13 12 10 8 6 13 9 4 3 5 1 -2 -1 -0 -2 -4 -4 -5 -6 -8 -9 -10 -11 -10 -10 -7 -8 -4 -3
14 13 11 11 10 10 12 16 15 12 14 13 11 11 12 14 14 16 10 13 17 18 18 18 17 14 9 8 8 9 10 7 9 15 16 15 15 14 3 0 1 -1 -1 -4 -7 -9 -9 -11 -10 -11 -9 -8 -4 -2

GFSWCAN_sfc_dewp_084.txt.gz
Dewpoint
41 40 39 41 43 44 46 46 47 49 49 50 50 49 48 45 40 37 34 36 35 32 31 31 32 32 33 33 31 34 33 33 35 30 27 26 25 26 24 24 25 24 23 23 24 22 16 28 29 24 26 28 28 29
40 39 39 40 42 44 46 46 47 49 48 48 48 48 47 47 41 36 34 34 33 33 31 31 31 32 31 32 33 33 32 33 34 33 30 28 25 26 24 20 27 23 25 23 24 22 26 28 29 29 29 28 29 30
40 38 39 41 42 43 45 46 46 46 48 48 46 47 47 45 42 37 35 35 34 32 30 30 30 31 32 32 33 33 34 34 34 34 33 31 27 26 23 24 25 27 28 26 26 27 28 28 30 30 29 29 30 30
40 38 39 40 41 42 45 46 45 45 46 46 46 47 46 44 42 37 36 36 34 32 32 29 31 30 32 33 33 33 34 34 34 35 34 31 28 30 27 26 25 27 29 28 27 28 28 28 29 29 30 30 29 29
40 38 39 39 40 42 44 45 46 45 44 46 46 45 44 43 39 38 37 36 34 33 30 28 30 30 32 32 33 34 34 33 34 34 35 31 30 29 27 27 27 28 28 26 23 27 27 28 28 30 29 26 25 25
40 39 39 39 40 41 44 45 46 45 45 47 46 44 42 42 39 35 33 36 36 35 34 29 30 30 31 30 30 30 31 30 32 32 31 29 28 30 28 25 26 28 29 28 27 27 27 29 30 30 28 25 25 25
40 39 40 40 40 42 44 46 45 45 45 46 46 44 42 41 39 33 31 36 38 35 32 29 29 29 30 29 30 30 30 30 30 30 28 28 29 31 28 24 24 25 27 27 27 29 28 30 28 29 27 24 25 23
40 39 40 40 39 42 44 46 46 47 46 47 44 42 41 41 39 33 36 39 36 32 33 27 27 28 29 28 28 30 28 29 30 28 26 25 25 26 25 26 23 25 27 27 29 27 21 27 25 24 22 20 18 16
40 40 40 39 39 42 44 45 47 47 47 45 42 39 37 34 31 33 40 38 36 31 31 28 28 26 30 29 29 29 28 26 28 26 25 25 24 25 24 24 24 27 26 24 23 22 23 21 20 18 17 16 16 15
40 40 40 40 40 42 44 45 47 47 45 41 37 32 31 33 40 36 33 31 32 31 29 29 28 27 29 28 27 28 27 26 26 25 27 24 24 24 23 22 24 27 25 24 25 21 21 22 20 15 15 16 18 18
40 40 40 40 41 43 44 45 47 44 40 38 33 32 34 37 33 28 28 27 23 23 27 26 28 26 29 28 26 27 27 26 24 25 24 24 23 23 25 25 25 27 24 21 17 15 17 18 22 19 18 20 21 22
40 40 40 41 42 44 45 45 46 40 39 37 36 35 33 29 27 24 22 20 21 19 25 26 26 28 28 29 28 27 25 25 22 25 24 22 25 25 26 24 24 25 23 18 17 18 20 19 20 21 23 24 24 24
40 41 41 41 42 44 45 46 46 41 38 35 31 30 28 25 20 19 17 19 19 24 27 28 28 27 27 27 25 24 22 22 25 23 21 23 22 24 25 25 22 20 18 19 20 19 20 20 20 20 20 19 18 17
41 41 41 42 43 44 46 46 44 41 38 33 31 25 25 22 20 23 22 24 25 28 27 27 26 26 25 25 23 21 21 23 20 17 19 24 23 25 23 21 20 20 21 20 22 20 20 19 18 18 18 18 17 17
42 42 42 42 44 45 46 46 43 40 36 32 29 25 25 26 24 25 24 25 27 28 27 26 26 24 25 22 22 22 20 18 18 19 24 24 23 26 23 20 20 20 20 20 19 19 18 19 18 18 19 19 19 19
42 41 40 42 44 45 46 42 39 37 33 32 28 23 19 21 23 25 25 26 28 28 26 26 24 22 23 22 21 20 17 16 24 25 25 22 24 24 22 21 18 17 16 17 19 19 19 19 19 18 18 18 17 17
41 39 42 43 44 45 43 37 36 34 33 30 26 25 23 24 26 25 23 24 27 26 26 24 20 21 21 20 19 21 20 26 25 23 24 25 24 21 18 17 16 15 15 16 17 18 19 19 18 18 17 17 17 18
39 39 44 45 45 42 37 36 35 33 30 28 27 26 23 23 25 26 26 26 27 25 22 22 22 20 20 18 19 24 23 22 25 25 23 20 18 16 15 15 16 17 18 18 17 17 18 17 15 14 15 16 16 15
40 41 44 45 41 36 33 32 34 30 27 25 24 25 26 25 26 27 27 27 26 24 23 22 18 20 20 21 25 24 24 26 23 20 17 15 15 15 17 18 19 18 16 17 16 16 15 14 13 13 13 14 13 12
42 44 45 43 40 34 31 30 33 25 23 25 24 24 25 25 26 26 27 27 26 26 22 19 15 14 13 17 22 24 25 24 18 14 12 14 15 17 18 18 17 17 16 16 15 16 13 11 11 12 13 14 12 12
42 42 44 39 34 35 32 26 25 23 21 23 22 25 23 24 24 25 26 26 26 25 22 19 16 16 21 22 22 25 24 19 15 13 12 14 16 17 16 16 16 14 14 13 12 11 12 11 12 13 13 12 13 13
41 40 33 34 30 29 29 28 24 24 22 22 23 22 21 20 21 23 25 24 25 26 21 20 21 22 22 22 19 20 18 13 16 17 19 19 16 16 16 15 14 14 14 14 11 10 10 10 12 13 12 11 13 11
38 36 32 32 27 26 24 27 22 22 18 21 21 18 19 20 22 21 23 26 27 24 22 22 23 21 21 18 18 18 19 17 16 17 16 15 15 16 15 14 14 13 13 13 12 12 11 12 11 12 10 9 10 10
37 33 30 28 27 23 23 20 24 22 22 20 19 17 18 19 18 20 22 23 21 20 21 21 20 17 16 17 15 16 17 18 17 16 16 15 15 11 12 12 12 13 13 11 11 11 10 8 11 9 9 10 10 11
29 27 28 23 24 18 15 17 17 18 16 17 15 14 14 16 17 18 17 22 21 20 22 21 20 18 16 14 17 17 16 17 15 15 14 13 11 11 11 11 9 11 11 11 10 10 10 9 9 9 9 10 12 13
25 27 23 20 16 15 14 12 13 13 14 13 16 15 14 15 14 16 17 22 20 22 21 20 19 16 15 14 15 17 17 16 15 15 14 13 13 13 12 10 10 10 11 11 10 9 9 9 9 9 10 10 13 10
24 22 24 21 19 16 15 15 16 14 10 9 12 11 13 9 11 16 19 21 23 25 24 23 21 19 16 17 17 18 16 15 16 15 14 12 12 11 12 11 9 10 11 11 11 10 9 10 10 10 10 10 9 8
25 22 16 18 14 14 12 13 12 12 14 15 14 9 11 14 18 21 20 18 22 27 25 24 23 22 19 18 17 12 9 9 10 10 10 8 7 8 8 9 9 14 14 11 11 11 12 12 11 11 10 8 7 6
21 19 19 8 8 12 15 15 16 17 17 16 17 15 15 18 16 15 16 18 22 21 20 18 16 17 15 15 14 11 10 12 12 10 9 9 8 10 7 6 7 7 7 7 12 15 13 14 12 10 6 5 5 4
16 17 13 7 13 15 15 14 16 14 15 18 17 15 14 14 14 13 14 18 21 22 22 20 16 17 15 14 10 8 10 13 12 13 12 10 11 9 8 7 8 7 5 5 6 6 12 6 6 3 3 4 5 6
15 12 9 11 13 11 11 13 16 16 15 14 15 15 13 13 14 14 15 18 21 19 18 17 19 19 18 15 14 12 11 9 6 6 7 10 9 9 9 8 7 6 5 5 5 5 4 3 2 2 3 2 2 5
15 10 11 9 9 12 13 15 15 14 11 11 9 8 10 13 15 15 15 17 19 18 20 19 18 18 19 18 17 18 17 11 8 8 11 11 11 10 8 7 4 5 4 4 3 3 1 1 2 2 3 2 2 2
7 6 6 9 9 10 13 14 11 9 8 6 8 9 12 16 17 17 13 17 20 20 19 19 20 17 17 16 15 15 14 11 12 17 19 18 17 14 7 7 6 5 4 4 3 2 0 -1 1 -1 -1 -2 -0 1

GFSWCAN_sfc_dewp_087.txt.gz
Dewpoint
46 42 39 40 42 44 46 46 47 49 49 49 49 49 49 48 43 40 37 37 38 34 33 32 33 34 34 34 31 35 34 34 35 30 26 25 22 24 23 23 22 21 21 20 21 21 17 28 28 25 26 28 29 29
47 42 39 40 41 43 44 46 46 47 49 48 48 49 47 47 44 42 36 36 35 36 33 32 32 32 32 33 35 35 33 33 34 33 29 27 23 24 22 16 26 21 23 22 22 22 26 29 30 30 29 28 29 30
47 42 39 40 41 41 44 46 46 46 46 48 47 48 47 45 43 40 37 37 38 35 32 32 31 31 32 32 33 34 35 36 35 35 34 31 27 27 20 21 24 26 28 25 26 25 28 28 29 30 30 29 31 31
47 43 40 39 40 40 43 44 46 46 45 47 47 46 45 44 42 39 37 37 35 34 35 31 31 31 32 33 33 34 35 35 35 37 35 32 28 29 24 26 24 26 29 26 26 27 28 29 29 30 30 30 30 30
46 43 40 39 40 40 41 43 46 46 45 45 47 44 43 40 40 40 38 37 35 34 32 30 31 31 31 32 34 34 35 35 35 36 37 32 31 30 28 28 26 28 25 26 19 27 27 29 29 30 30 29 27 26
46 44 41 40 40 40 41 44 46 46 45 45 46 45 42 41 39 37 35 37 36 36 36 32 31 30 31 31 31 32 33 33 35 34 33 32 30 32 30 24 24 27 29 29 27 28 27 29 30 30 30 28 26 25
46 43 41 40 40 40 42 44 46 46 46 45 46 45 42 42 40 34 33 38 39 36 34 35 32 30 30 30 31 31 31 32 32 33 31 30 30 33 31 25 24 26 28 29 28 28 28 29 28 30 28 27 26 24
46 43 41 41 41 40 41 45 46 47 47 46 45 42 42 42 41 36 38 38 37 33 36 34 33 30 30 29 29 31 30 31 32 32 28 27 28 29 27 28 26 25 27 28 28 29 23 27 28 28 25 21 18 16
46 44 41 41 41 40 42 45 46 47 48 45 43 39 38 35 33 36 40 40 37 34 34 32 32 30 30 30 30 30 29 28 30 29 27 27 26 27 27 25 25 26 27 26 28 23 22 21 21 20 18 16 14 14
45 43 41 41 41 41 43 45 47 48 46 42 39 33 33 34 40 39 36 34 35 34 32 30 31 29 31 29 29 30 28 29 30 27 28 25 26 27 27 25 26 27 28 26 27 24 24 26 23 17 17 14 15 16
45 43 42 41 42 43 44 45 47 45 41 39 34 33 36 37 35 29 32 31 28 29 29 29 30 28 30 30 27 29 31 30 26 28 25 26 24 24 25 23 24 28 26 25 21 19 20 21 25 19 18 20 22 23
44 43 42 42 42 42 44 45 47 42 41 39 37 36 35 31 31 30 30 24 23 23 24 26 27 29 29 30 29 28 29 27 24 27 25 24 29 28 27 25 25 26 24 20 17 20 20 18 20 20 23 25 25 25
44 43 43 42 42 43 45 46 45 41 39 36 33 34 30 30 25 22 21 25 24 26 29 29 29 28 28 29 28 27 25 25 26 25 23 27 26 26 27 28 26 26 22 18 19 20 20 19 19 19 18 17 17 17
44 43 43 43 43 44 46 47 44 40 40 35 34 26 28 26 25 29 26 30 28 29 29 29 29 28 26 27 25 24 23 23 22 20 21 30 26 25 25 25 22 21 21 23 24 23 21 20 18 17 18 19 18 18
43 43 43 43 43 45 46 46 43 41 38 33 33 28 30 30 29 29 30 28 28 29 29 27 28 25 27 25 22 24 21 20 20 23 31 30 29 26 23 21 21 23 24 24 22 22 20 21 19 18 19 19 17 15
43 42 42 43 44 45 46 44 40 38 34 33 32 29 26 27 30 28 30 29 30 29 29 29 27 25 25 25 22 22 20 20 28 30 30 24 27 26 23 21 20 19 18 19 21 21 21 20 19 18 18 17 16 16
43 39 42 43 45 45 43 38 37 34 33 32 31 31 30 29 32 28 24 23 28 28 28 28 23 23 23 22 21 25 24 31 30 28 26 26 27 24 21 19 17 15 14 16 18 19 20 20 19 18 16 17 17 17
38 39 43 44 44 43 38 37 35 33 32 32 30 31 27 25 25 24 25 26 28 28 26 27 25 21 22 21 24 30 30 28 26 27 26 24 21 19 18 16 15 17 20 20 19 19 20 18 16 13 15 16 16 16
38 41 43 44 42 37 34 33 35 31 31 31 30 27 27 26 26 27 27 27 28 27 26 25 24 24 23 26 28 32 30 27 25 22 19 17 16 15 17 20 21 20 19 19 17 15 14 13 13 13 13 14 13 13
41 43 44 43 40 35 32 32 33 32 28 29 28 29 28 28 27 27 28 28 26 29 27 25 21 22 20 23 27 26 28 27 20 17 15 14 15 20 21 20 18 19 17 17 17 16 13 12 12 12 13 14 13 12
38 42 43 42 35 36 36 31 30 31 29 27 28 28 28 27 28 28 27 29 28 28 28 28 22 19 21 22 22 23 25 23 19 17 14 16 15 19 18 18 18 15 14 14 12 12 12 11 12 13 13 13 13 14
40 42 34 35 32 31 34 31 30 28 26 25 25 27 25 25 26 26 30 27 27 28 28 27 26 24 21 22 24 25 25 22 15 16 18 19 16 18 18 17 17 17 16 16 12 10 10 10 12 13 13 12 13 12
39 37 33 32 29 28 29 29 27 26 23 23 24 24 24 25 27 28 25 27 28 28 27 26 27 26 25 23 22 21 21 19 16 17 18 16 17 19 19 17 17 18 16 14 13 13 13 12 11 12 11 10 10 11
39 35 32 30 31 26 26 23 26 24 24 22 22 21 23 25 22 22 22 27 26 26 25 25 23 20 19 20 19 19 19 18 18 17 16 16 17 13 14 13 13 15 15 14 13 13 11 9 11 9 10 11 11 12
31 30 31 28 28 21 19 20 21 21 19 20 21 22 20 21 21 21 21 26 29 24 25 25 22 21 21 20 19 17 20 18 16 16 17 17 14 13 13 13 12 13 13 14 12 12 12 11 11 11 11 11 13 14
27 29 28 26 22 19 18 17 18 19 19 19 21 21 20 20 19 20 23 27 26 27 25 23 22 21 20 20 17 16 16 19 17 16 17 16 15 16 15 13 11 11 13 13 14 12 11 11 11 11 11 12 14 12
26 26 25 21 20 19 18 18 19 19 18 19 18 16 17 17 17 21 24 26 29 32 29 27 25 23 23 19 18 18 18 20 20 19 17 17 16 16 18 16 14 14 14 13 13 12 11 11 11 11 12 12 12 10
28 24 18 20 19 20 17 18 17 18 19 19 18 15 16 17 20 28 29 23 24 28 31 29 27 27 25 21 20 17 14 14 14 14 13 12 11 13 14 13 15 17 15 14 13 13 12 12 12 12 12 11 10 9
23 22 21 15 16 17 18 18 19 20 19 20 21 20 20 22 26 24 20 21 26 25 24 22 21 22 20 18 17 17 14 15 14 13 13 12 11 11 12 13 13 13 13 13 16 16 14 13 13 13 10 8 8 8
20 24 19 16 14 16 21 21 25 25 21 23 21 20 19 20 18 17 17 21 23 24 25 23 20 20 17 15 14 14 16 18 20 17 15 14 14 15 11 11 11 11 11 11 11 10 16 11 10 8 8 8 9 10
22 20 18 19 18 20 17 16 18 16 18 19 18 21 20 20 18 16 17 21 24 23 21 20 20 21 18 16 15 14 13 14 14 15 17 17 14 13 12 12 13 11 10 10 10 10 10 8 7 6 6 3 1 6
19 19 16 14 14 13 15 18 18 19 17 18 18 17 17 18 18 19 17 20 21 21 23 21 20 19 20 19 19 22 18 15 13 13 15 14 13 13 12 11 10 10 9 9 9 7 5 5 6 6 5 2 1 1
14 14 13 13 12 12 15 16 15 13 14 15 16 16 17 18 17 20 16 20 22 22 22 23 23 22 21 20 20 19 17 15 15 18 18 18 17 15 12 10 10 10 8 8 8 6 3 1 3 1 -1 -2 -2 -0

GFSWCAN_sfc_dewp_090.txt.gz
Dewpoint
52 49 43 41 40 43 44 46 47 47 49 49 48 49 49 48 46 43 39 39 39 36 34 34 33 33 34 35 33 35 34 35 35 31 26 24 22 24 23 23 22 22 21 21 21 19 15 28 28 26 27 28 29 30
52 50 44 41 40 41 43 45 46 46 47 48 48 48 48 47 45 44 38 38 37 37 34 33 33 32 32 33 33 35 33 33 35 33 29 26 23 24 21 17 27 21 24 24 22 24 27 29 30 30 29 29 29 31
52 51 46 42 40 41 41 44 46 46 46 47 48 47 46 46 44 42 39 39 40 36 33 33 32 32 33 33 34 34 36 36 36 35 35 32 27 27 22 22 24 26 28 26 25 26 27 28 29 30 30 29 31 31
52 51 46 42 40 41 41 43 44 46 46 46 47 46 45 43 42 43 39 38 38 36 35 32 31 31 33 33 34 34 34 36 35 37 35 33 29 29 26 26 25 27 28 26 26 26 29 28 30 30 30 30 30 30
51 51 47 43 41 41 41 42 44 46 46 46 46 47 43 43 42 41 40 38 37 36 33 31 31 32 32 32 34 34 34 35 36 34 33 32 32 29 29 28 27 28 27 26 24 27 27 29 29 30 30 29 29 27
51 50 47 44 41 41 41 42 44 46 46 46 46 47 45 43 43 41 38 39 38 37 35 31 32 30 31 31 32 33 34 33 34 34 34 32 31 30 28 26 26 25 27 29 27 29 29 29 30 31 30 29 26 25
51 50 47 44 41 41 41 42 44 46 46 46 46 47 45 44 42 38 37 39 39 38 35 30 31 30 31 30 32 32 32 33 32 33 31 31 30 30 29 27 26 26 28 29 28 29 29 29 29 30 28 27 27 25
51 50 47 44 42 41 41 42 45 46 47 46 46 42 41 41 41 38 38 38 39 36 36 29 28 29 30 30 30 31 30 31 32 32 28 28 28 28 26 29 29 26 28 28 28 27 27 29 29 29 27 24 20 18
50 49 47 44 42 42 41 43 46 47 48 47 44 40 39 37 35 38 40 42 39 35 31 29 26 25 30 30 31 30 30 28 30 28 28 27 27 25 27 28 27 26 27 27 29 24 24 24 25 23 21 18 16 15
50 49 47 45 43 42 42 43 46 47 45 43 39 35 33 36 40 40 37 34 34 34 32 28 30 26 30 29 29 29 29 28 22 28 28 25 25 27 29 29 28 27 28 27 23 21 22 22 20 18 18 16 16 18
50 48 46 44 43 43 42 44 47 46 42 40 35 33 37 37 36 32 30 29 30 27 30 28 28 26 29 27 28 29 26 27 18 25 23 24 26 26 26 26 27 29 27 25 24 25 23 23 22 18 19 20 22 22
49 47 46 44 43 43 43 45 47 43 41 40 38 37 35 33 30 23 23 26 23 24 25 26 27 28 28 30 29 28 24 24 17 26 22 20 27 25 25 24 27 25 23 18 19 19 20 20 21 21 21 20 19 20
49 47 45 44 43 42 43 45 47 43 40 37 34 30 30 27 17 18 12 19 21 25 26 26 24 28 28 29 28 27 21 21 25 21 20 25 27 27 26 25 26 24 19 19 21 21 20 20 19 18 17 18 18 18
48 47 45 44 43 43 45 46 45 40 39 33 27 19 22 20 23 26 26 27 27 28 27 28 25 26 27 26 26 20 25 23 14 15 20 28 27 26 26 25 23 20 22 22 21 21 21 21 18 19 19 19 18 16
48 46 45 44 44 44 46 46 42 41 38 33 31 25 26 28 27 26 26 25 26 29 28 25 26 26 25 22 24 23 18 15 20 20 28 28 27 25 24 23 22 22 21 19 20 17 16 18 19 18 18 18 17 16
47 46 43 44 44 45 46 44 40 38 34 33 32 29 29 23 24 24 24 25 28 29 27 27 23 20 21 24 17 17 17 17 24 28 30 25 26 24 22 22 22 21 20 20 20 20 18 18 18 16 17 17 16 16
45 40 44 44 44 45 44 39 37 34 34 32 30 32 28 25 26 27 29 27 29 27 23 24 17 16 21 16 16 21 21 27 31 28 27 26 26 24 21 19 17 16 16 18 19 19 18 17 14 14 13 15 15 17
40 41 43 44 44 43 39 37 35 33 30 31 30 30 29 29 26 23 25 27 28 26 26 21 22 14 15 13 18 24 25 28 27 28 27 25 23 20 19 17 16 18 20 18 19 17 15 13 14 15 15 16 14 13
41 41 43 44 43 38 35 33 34 31 30 32 31 29 27 27 27 27 27 27 28 27 24 20 17 17 20 23 24 27 25 26 25 24 21 19 18 17 18 20 20 19 18 17 18 17 15 14 14 14 15 15 15 14
43 43 42 44 41 35 32 32 34 32 28 29 29 29 27 27 27 26 27 27 26 22 19 18 20 24 23 23 26 25 24 26 21 18 17 15 16 19 20 19 19 19 18 16 16 18 15 14 13 13 13 15 15 13
42 40 42 42 36 36 34 31 31 32 29 25 28 29 27 28 25 25 23 26 23 25 21 26 25 24 23 19 21 21 22 25 22 20 18 18 16 20 20 20 18 17 16 15 14 14 15 13 13 14 14 14 14 14
37 41 39 37 32 33 33 32 27 28 24 25 27 28 25 24 25 27 29 27 26 25 25 24 26 28 26 21 21 22 22 25 23 18 20 20 16 18 18 18 18 17 17 17 13 12 11 11 11 13 14 13 14 12
39 37 32 32 29 29 30 29 21 23 21 22 25 23 24 24 25 28 24 26 26 26 26 26 27 24 26 22 20 20 22 23 18 17 18 17 17 19 19 19 19 19 17 16 16 15 13 12 12 13 12 10 11 11
38 32 30 30 30 26 27 24 28 25 24 22 22 20 22 24 24 22 20 22 24 26 26 27 25 22 18 18 19 20 20 22 19 18 18 17 18 18 18 15 18 18 18 16 14 14 12 9 11 10 10 8 9 9
30 29 30 27 28 22 19 19 19 22 18 21 20 21 20 21 18 19 17 20 25 25 26 26 26 25 24 23 21 20 20 21 20 18 17 17 15 14 15 14 13 15 15 14 13 13 12 11 11 10 9 7 7 6
27 28 27 26 20 17 18 16 18 19 20 19 20 20 19 19 15 14 17 22 23 25 26 26 25 24 23 23 21 19 19 21 20 18 19 18 15 16 15 13 12 12 15 15 14 13 12 11 10 8 7 8 13 6
25 26 29 23 22 20 18 19 20 20 18 18 19 17 17 12 11 16 22 23 25 26 27 28 26 25 24 24 22 21 21 22 20 19 19 19 18 19 19 16 14 15 14 14 14 13 11 10 10 9 6 5 5 4
27 24 18 19 18 20 18 18 18 19 19 21 19 15 16 15 16 22 23 18 17 19 21 21 21 21 20 20 20 19 16 15 15 15 14 13 14 15 16 16 17 18 15 14 13 12 11 10 9 6 5 4 2 3
23 23 21 16 16 18 19 19 19 21 21 20 19 17 16 20 21 19 15 15 15 17 16 15 13 15 18 17 18 19 15 15 14 14 13 12 11 11 14 16 18 15 14 16 18 14 10 10 8 6 3 2 1 -2
20 23 17 15 17 18 20 21 23 24 23 23 22 19 19 18 14 11 13 14 17 17 17 15 16 15 14 15 15 15 16 18 18 15 14 15 15 14 13 14 13 12 12 12 11 10 19 10 9 -0 -2 -2 -1 -1
23 20 18 18 19 20 19 18 16 17 14 13 12 15 17 12 14 11 10 13 15 17 17 14 15 18 17 17 16 15 14 17 16 19 21 19 16 14 13 13 12 11 10 10 9 8 8 2 -1 -4 -4 -4 -6 -2
21 21 19 18 16 10 11 11 9 9 8 8 9 7 8 10 11 15 13 15 18 19 22 19 17 18 20 20 20 19 18 17 15 18 18 16 15 14 13 13 11 11 10 9 8 6 3 1 -2 -3 -2 -7 -8 -8
14 13 11 9 4 5 10 9 7 3 3 5 7 9 9 13 13 17 9 17 17 19 20 20 17 18 19 19 19 20 20 17 18 21 20 20 19 16 13 12 11 10 9 8 6 4 1 -2 -4 -5 -6 -8 -9 -9

GFSWCAN_sfc_dewp_093.txt.gz
Dewpoint
50 51 52 46 42 41 43 45 46 47 47 48 49 49 49 49 48 42 37 37 37 32 32 33 33 32 33 33 32 34 32 34 34 29 26 25 22 23 20 22 21 21 19 20 21 18 12 27 28 23 25 29 29 30
50 51 52 48 43 41 42 43 45 46 46 47 48 48 47 47 47 45 35 38 38 35 33 33 32 32 32 33 33 34 33 33 34 31 30 26 23 23 21 17 25 19 21 22 20 20 25 29 30 30 29 29 29 30
50 50 52 49 45 42 41 42 45 46 46 46 47 47 46 44 44 44 37 37 39 33 32 31 31 32 32 33 34 34 35 35 35 34 33 31 27 26 22 21 22 25 28 24 23 23 26 28 31 30 29 31 30 31
50 50 51 51 46 43 41 41 43 45 46 46 46 47 45 44 44 42 36 36 36 35 30 31 31 31 32 33 34 34 34 34 35 35 33 31 29 29 25 25 24 24 27 25 25 26 27 29 29 30 30 30 30 29
50 50 51 51 47 44 42 42 42 44 46 46 46 47 46 43 43 39 38 36 35 35 29 30 31 31 32 32 34 34 34 34 34 31 27 30 31 29 28 27 26 28 26 25 23 26 26 28 29 30 30 30 30 28
50 50 51 51 47 44 42 42 42 44 46 46 46 47 47 45 44 39 35 38 38 37 29 26 32 30 32 31 31 33 34 33 33 33 31 31 30 28 26 24 27 27 28 28 26 28 28 29 30 30 30 29 27 25
50 50 50 51 48 44 42 42 42 44 45 46 46 46 45 44 40 37 34 38 39 36 31 24 27 30 31 30 31 31 31 31 31 31 30 29 29 28 27 26 27 28 26 28 28 29 28 29 28 29 28 27 28 24
50 50 50 50 48 45 43 42 42 44 46 47 46 45 41 41 40 36 38 39 39 34 31 20 22 26 29 28 28 31 29 29 29 29 29 27 28 27 26 28 29 28 28 28 28 27 28 30 29 28 27 24 19 16
49 49 50 50 48 45 43 42 43 46 48 47 47 42 38 36 33 35 41 41 38 33 25 22 17 19 29 28 29 29 29 26 29 27 27 27 26 24 27 27 28 27 28 28 26 26 27 28 28 25 21 18 15 14
49 49 50 49 47 45 43 42 44 48 47 45 38 35 30 34 39 39 36 32 30 28 27 23 24 22 27 27 26 27 28 26 17 26 27 25 25 27 28 29 28 28 28 27 22 22 22 21 22 19 17 16 18 20
49 49 50 49 46 45 44 43 46 46 42 37 34 30 35 38 34 29 24 24 27 23 27 25 24 24 28 23 26 28 23 22 13 22 22 22 24 27 26 25 28 28 29 26 25 24 23 22 22 18 19 21 21 20
49 49 49 48 46 45 44 44 47 42 38 38 36 36 34 30 25 16 13 22 21 20 24 23 24 27 27 28 26 26 22 24 16 23 20 20 24 27 25 26 26 26 24 21 22 21 21 20 20 20 20 20 20 20
49 49 49 48 46 45 44 45 47 44 38 35 31 26 26 23 15 13 10 12 14 22 22 23 20 26 26 28 26 22 17 19 23 14 17 22 29 27 25 26 24 20 19 20 20 21 20 19 19 18 17 18 18 18
49 49 49 47 46 45 45 46 47 41 36 30 23 18 20 15 19 20 20 18 23 23 25 25 22 24 26 23 24 14 22 21 10 10 15 22 29 27 26 26 22 19 21 21 20 21 21 20 19 20 19 18 17 15
49 49 48 47 46 45 45 46 44 41 35 29 29 23 23 23 19 20 20 22 22 27 27 24 23 24 21 20 23 19 15 9 14 13 21 26 26 26 26 23 22 22 21 19 18 17 18 19 18 18 18 18 16 16
49 49 47 46 45 44 46 45 41 39 34 32 31 28 29 23 17 17 15 18 24 27 24 25 19 16 19 19 15 13 9 9 13 22 25 24 25 25 25 24 22 22 20 19 19 19 19 19 18 17 17 17 16 16
48 44 46 46 44 45 45 39 38 34 34 32 30 32 29 25 21 22 24 25 27 25 20 21 14 15 18 11 13 18 15 18 24 23 23 25 26 26 22 22 22 20 19 18 20 20 18 19 17 17 15 16 16 17
45 44 45 44 43 44 39 37 35 33 31 32 30 31 31 30 24 25 26 28 27 24 24 19 19 12 13 10 14 20 23 20 22 22 24 25 25 25 21 19 17 18 19 20 19 17 17 16 17 16 16 16 15 15
44 44 44 44 42 38 34 33 34 30 30 29 30 29 29 29 28 25 25 28 26 27 24 16 13 12 16 19 20 20 18 21 17 21 22 22 22 20 20 20 20 20 19 18 17 17 18 17 16 15 15 15 15 15
45 44 43 43 41 34 31 32 34 32 29 29 27 28 28 27 27 26 25 27 25 20 19 17 17 18 19 22 24 23 24 24 21 19 19 18 17 17 20 20 19 19 18 17 18 19 15 14 14 13 14 14 15 13
43 43 43 42 33 33 33 30 31 32 25 24 26 28 26 27 26 24 23 25 17 19 20 22 22 22 23 22 21 23 21 24 21 18 16 17 17 19 19 19 18 17 16 16 16 17 19 14 14 14 14 14 14 14
37 42 39 35 32 31 32 32 30 29 27 27 28 26 25 24 25 26 26 20 24 26 25 22 24 24 25 25 24 21 20 22 23 22 24 22 16 17 19 19 18 17 17 17 17 17 15 13 12 13 14 14 14 12
39 35 32 32 29 30 29 31 25 24 21 22 25 23 22 22 25 29 25 27 26 27 26 25 26 24 25 25 21 20 21 22 22 22 21 20 18 19 19 19 19 18 17 18 18 16 15 13 13 13 12 11 11 12
37 32 30 29 29 27 27 25 27 24 22 21 21 17 17 20 26 23 21 21 24 27 26 27 26 21 18 18 22 24 22 22 21 17 19 18 16 17 18 18 17 19 18 18 17 16 14 12 13 12 10 11 11 11
29 28 30 27 28 21 19 20 20 20 16 18 16 14 20 21 18 18 18 17 23 24 26 25 26 26 25 24 25 25 21 22 22 21 18 19 16 15 15 15 17 18 18 16 15 14 14 12 12 12 11 11 10 9
26 28 27 27 21 18 17 15 16 16 18 15 17 18 18 18 17 16 14 21 23 25 25 24 24 25 25 26 25 21 21 22 21 20 17 18 18 17 18 14 13 14 17 17 16 14 13 12 12 11 11 11 15 10
25 25 29 25 22 19 18 18 20 18 15 15 16 16 18 18 16 17 21 24 25 23 25 27 27 26 25 24 24 20 21 22 19 19 21 20 18 19 19 17 15 16 17 17 16 14 13 12 11 11 11 10 10 9
28 24 21 21 19 18 16 16 14 15 16 18 19 13 17 19 20 23 25 23 15 15 16 15 19 23 20 19 18 18 13 12 14 15 16 13 12 13 18 20 20 21 18 17 15 15 14 12 12 11 10 9 8 5
22 23 21 17 18 17 16 14 16 18 21 21 20 19 21 22 24 24 19 14 12 20 19 17 14 11 13 12 11 8 15 15 13 10 11 12 12 14 16 19 20 17 16 17 19 16 13 12 12 11 10 8 5 1
21 23 18 16 16 15 16 18 18 20 22 25 26 23 20 19 17 11 15 18 19 20 20 18 15 16 13 15 11 7 10 15 18 16 16 15 15 16 16 18 15 16 17 17 16 16 20 17 16 8 5 3 3 3
23 20 18 17 14 12 13 16 19 20 19 20 18 20 17 14 15 12 16 16 16 13 14 10 10 12 13 12 13 12 13 15 12 13 19 18 15 16 17 16 15 15 15 15 15 16 15 9 6 4 3 3 0 2
20 16 16 13 11 13 16 18 18 19 17 17 13 6 9 11 14 18 14 13 15 16 21 19 17 17 18 16 17 13 19 17 17 19 18 16 15 16 16 15 14 13 13 13 13 12 9 8 6 5 3 1 -2 -5
11 10 10 13 13 14 15 17 17 14 10 6 10 10 11 14 15 19 10 16 17 19 19 21 19 14 17 18 17 18 19 16 19 22 21 20 20 18 15 14 13 12 11 11 10 9 7 5 4 2 2 -0 -3 -7

GFSWCAN_sfc_dewp_096.txt.gz
Dewpoint
51 51 51 52 49 44 42 43 45 46 47 47 48 49 48 48 48 40 36 37 37 31 31 33 33 32 33 34 32 33 31 32 33 29 26 25 22 22 22 21 20 18 18 20 21 19 13 28 28 21 20 29 30 30
51 51 51 51 50 46 43 42 43 45 47 46 47 48 47 46 47 42 33 36 38 35 33 33 33 32 33 33 34 33 33 32 34 30 29 28 24 23 21 18 22 22 21 18 20 19 21 28 26 29 28 28 29 30
51 51 51 50 51 48 44 42 42 44 46 46 46 47 47 44 45 42 36 36 38 33 33 31 31 32 32 33 34 33 34 35 34 34 32 30 27 26 23 21 20 24 27 25 22 21 25 27 30 30 29 30 31 31
50 50 50 49 51 49 45 43 42 43 45 46 46 46 47 44 44 40 34 35 36 35 29 31 31 31 32 33 33 34 34 34 35 34 31 30 29 29 26 25 24 24 27 25 24 25 26 27 29 30 30 31 30 30
50 50 50 50 50 50 46 43 42 43 44 46 46 46 47 46 44 39 37 36 35 32 28 28 31 32 32 32 33 34 33 33 33 30 27 29 30 29 28 26 25 27 26 25 22 25 23 24 29 30 30 30 30 28
50 50 50 50 50 50 47 44 43 43 44 45 46 46 47 47 44 39 34 38 38 37 28 24 31 29 31 31 31 32 34 33 32 31 30 31 31 29 26 25 27 27 28 28 26 27 28 29 30 30 30 30 29 26
50 50 50 50 50 50 48 45 43 43 44 45 46 46 47 44 38 36 33 36 38 36 29 22 22 30 29 29 31 31 31 30 30 29 29 29 29 29 25 27 27 29 28 27 29 29 27 29 29 30 29 28 28 24
50 50 50 50 50 50 48 45 43 43 44 45 46 46 44 41 39 33 37 39 38 32 29 18 19 24 29 28 27 30 28 28 29 28 28 27 27 27 25 28 29 29 29 28 28 28 28 29 29 27 26 24 18 15
50 50 50 50 50 50 48 45 44 43 44 48 47 44 37 35 32 34 40 40 36 31 22 20 15 15 29 28 29 28 28 26 28 27 26 27 26 24 27 27 28 28 28 28 27 29 29 29 28 26 22 18 15 15
50 50 49 49 50 49 47 45 43 45 48 45 38 34 30 34 38 38 34 30 29 27 26 22 23 23 26 26 26 26 27 25 17 25 27 25 25 27 27 27 28 28 29 26 24 24 24 25 26 21 18 16 16 19
50 49 49 49 49 49 46 45 44 47 41 37 33 31 33 38 33 28 25 23 26 24 26 23 23 23 28 22 25 28 21 21 13 20 22 20 21 26 28 26 27 28 29 27 26 26 24 24 23 19 20 21 20 20
49 49 49 49 49 48 46 45 47 41 38 38 36 35 34 29 25 19 16 22 22 22 24 24 24 27 26 28 26 26 20 23 16 22 19 16 20 25 26 25 26 26 25 24 24 24 23 22 20 20 21 20 21 21
49 49 49 49 49 48 46 45 47 44 39 36 32 26 26 24 17 16 13 14 12 21 23 24 21 26 26 28 25 21 16 19 22 12 17 18 22 26 26 25 23 20 20 21 21 21 20 20 20 18 18 18 18 18
49 49 49 49 49 47 46 46 47 41 37 32 27 20 21 17 22 23 21 20 22 23 24 23 22 24 26 23 23 14 20 20 13 14 12 18 22 25 25 25 20 19 20 21 22 22 21 20 18 19 19 18 17 15
49 49 49 49 48 47 45 46 45 41 35 32 27 23 21 24 26 24 21 23 23 27 26 23 23 23 20 20 23 19 16 15 13 13 17 20 24 23 24 24 22 20 21 20 20 19 19 20 19 18 18 18 17 16
49 49 48 49 48 46 45 46 42 39 34 32 30 27 27 22 24 24 19 18 24 27 24 24 19 16 17 17 14 14 9 10 14 17 22 21 23 22 23 25 23 21 20 19 19 19 20 19 19 17 18 17 16 16
49 46 48 48 47 45 45 40 38 36 33 32 29 31 28 26 29 27 23 24 27 26 21 20 14 14 20 11 17 16 13 18 19 21 22 24 23 23 24 24 23 22 19 18 18 19 19 18 16 17 17 17 17 18
46 47 48 48 45 43 41 37 34 32 31 32 30 31 31 30 28 27 25 27 27 25 23 17 18 14 15 12 14 19 21 18 21 23 23 24 24 24 24 22 22 21 20 18 19 18 18 16 16 17 17 17 16 15
47 47 47 45 42 34 32 32 33 30 31 31 29 29 31 30 29 27 27 28 26 27 24 18 16 17 17 18 17 16 16 21 22 22 22 22 24 24 24 21 19 17 16 17 18 17 17 16 17 17 16 15 15 15
48 47 46 44 40 33 30 31 34 32 28 29 27 30 29 29 29 29 27 27 26 23 18 18 20 19 18 18 22 22 22 24 20 19 17 19 20 18 19 19 19 18 16 13 15 19 17 16 16 15 15 15 15 15
46 45 44 42 33 32 32 31 31 33 28 28 26 29 28 28 27 26 26 28 22 19 20 24 23 21 22 22 22 23 22 24 20 17 16 17 18 19 18 18 17 18 16 16 15 17 19 15 16 15 14 16 15 14
40 43 39 34 32 31 32 32 31 30 24 21 28 26 25 25 25 26 27 25 21 25 24 23 24 24 24 23 23 22 22 22 22 21 23 23 17 16 17 18 17 17 17 16 15 15 18 18 15 14 14 14 16 14
41 35 32 32 30 30 28 32 26 24 20 24 27 23 23 22 24 27 25 24 25 27 27 27 28 26 24 24 21 22 23 22 22 22 21 22 20 19 18 19 19 18 16 16 17 17 17 18 17 13 13 14 12 12
37 32 30 29 29 26 28 26 26 23 23 22 23 20 20 22 27 25 23 21 24 27 27 28 28 27 19 18 23 25 25 23 24 22 23 21 20 19 19 19 18 19 18 17 17 17 14 14 15 15 12 12 12 11
29 28 29 26 28 23 21 21 20 20 17 19 17 17 19 23 21 21 19 16 21 25 26 27 28 28 26 25 25 25 25 24 24 23 23 21 18 13 12 14 16 17 18 16 15 14 14 14 15 13 12 12 11 11
25 27 26 26 21 18 17 16 18 16 17 15 16 18 19 18 16 16 17 19 22 24 25 26 26 26 26 26 25 24 24 23 23 22 21 21 20 19 17 15 13 14 17 16 15 15 14 13 13 12 12 13 16 12
25 25 29 27 22 19 17 17 19 20 19 18 16 15 17 16 15 17 20 22 26 28 28 28 26 25 25 24 25 22 20 22 20 19 17 20 20 20 20 17 15 17 17 18 17 16 14 13 12 12 12 12 12 11
29 25 23 22 19 16 16 18 17 17 18 19 20 17 17 16 17 23 24 25 25 21 18 18 21 25 22 21 20 18 13 11 10 12 14 13 10 9 15 19 15 22 18 18 18 17 15 14 13 12 12 11 10 10
22 23 21 16 17 18 18 17 18 21 21 21 20 18 19 22 25 26 23 14 11 22 20 20 15 11 12 11 10 8 14 16 16 12 14 14 8 12 9 15 18 18 18 19 21 18 15 14 14 12 11 11 9 6
20 23 15 15 14 15 18 20 21 23 22 24 24 23 22 19 20 19 17 17 20 22 21 18 18 20 17 17 12 7 8 16 20 18 16 16 14 15 17 18 15 16 19 19 18 18 20 17 17 11 7 5 5 4
22 18 14 13 13 12 14 15 19 21 21 23 20 23 19 12 14 10 14 19 20 17 16 12 9 9 14 14 14 13 15 15 14 11 10 14 16 18 18 15 15 18 18 17 17 17 17 12 9 6 6 5 6 7
20 19 19 16 12 12 15 17 20 20 18 19 13 5 8 10 12 15 15 16 16 17 21 21 17 17 17 15 16 13 20 15 17 15 15 14 16 18 17 16 17 18 16 16 17 16 12 10 8 7 6 5 4 3
12 14 15 14 13 13 16 21 19 15 10 8 9 7 9 14 16 19 14 19 22 21 20 21 22 15 16 17 17 17 19 12 16 21 23 21 21 20 16 16 17 16 16 15 14 12 10 8 7 6 5 4 2 1

GFSWCAN_sfc_dewp_099.txt.gz
Dewpoint
52 52 52 52 51 51 48 44 43 45 46 47 47 48 48 46 48 39 36 36 36 31 31 33 33 32 33 33 31 32 31 31 32 28 27 24 22 22 21 22 20 18 18 20 21 19 15 28 28 21 21 28 30 30
52 52 51 51 51 51 50 46 43 43 45 46 46 47 48 46 46 40 33 36 37 35 34 33 33 33 33 33 34 32 31 31 34 30 29 27 25 23 21 18 21 20 20 16 21 20 21 26 25 28 27 28 30 29
52 52 51 51 51 50 51 48 44 43 44 46 46 46 47 46 44 41 36 35 37 33 33 31 31 32 32 33 35 32 33 34 33 33 31 29 28 27 23 22 20 23 25 24 23 22 23 25 28 30 29 28 30 30
52 52 52 51 51 50 51 49 46 43 43 45 46 46 46 47 44 39 34 35 36 34 28 30 31 30 33 33 33 34 33 34 34 33 30 29 28 29 26 25 23 23 26 25 24 25 25 26 27 30 30 30 30 30
52 52 51 51 51 50 50 49 47 44 43 44 46 46 46 47 45 39 36 35 35 31 26 27 30 31 32 32 32 33 33 32 32 29 26 29 30 29 28 26 26 27 25 24 23 24 22 21 27 29 30 30 30 28
51 51 51 51 50 50 50 50 47 45 43 44 45 46 45 46 43 38 34 37 37 36 27 23 29 28 29 30 30 32 33 32 31 30 29 29 30 29 26 24 27 28 28 28 26 26 25 28 30 29 30 30 30 27
51 51 51 51 50 50 50 49 48 45 44 44 45 46 46 43 39 35 33 36 38 35 28 22 22 29 29 29 30 30 30 30 30 29 28 28 28 29 26 27 28 28 29 28 28 29 27 28 28 30 30 29 30 24
51 51 51 51 50 50 50 49 48 46 44 44 45 46 46 41 38 34 36 40 37 31 28 15 18 23 29 27 27 29 28 28 28 28 28 27 27 28 27 28 29 29 29 28 28 28 28 29 30 28 27 23 20 16
50 50 51 51 50 50 50 49 48 46 45 44 45 45 37 35 32 33 40 40 35 30 23 20 15 16 28 27 28 28 28 26 28 26 26 27 25 24 28 28 27 27 27 28 27 27 27 28 28 26 24 20 16 15
50 50 50 50 50 50 50 49 47 45 45 46 38 34 31 33 38 39 33 30 28 27 27 23 23 23 26 25 25 25 27 25 16 25 27 25 25 27 28 28 27 27 26 27 23 24 25 25 27 24 22 17 15 17
49 49 49 50 50 50 50 48 46 47 42 37 34 33 33 38 33 28 25 25 27 24 27 24 24 24 28 23 25 27 21 21 16 21 22 19 20 24 26 27 27 26 27 28 27 27 28 28 27 21 18 19 20 20
49 49 49 50 50 50 50 48 47 42 39 38 36 36 34 30 26 21 18 22 24 23 25 24 25 26 26 28 26 26 21 23 19 22 19 18 20 22 24 25 25 22 24 24 25 25 24 26 23 20 22 21 21 21
48 49 49 50 50 50 49 47 47 43 40 37 33 29 29 27 20 15 15 20 20 22 23 24 23 26 26 27 25 21 17 19 22 12 18 19 21 22 24 24 23 21 21 21 21 21 21 21 21 20 19 19 18 18
48 48 49 49 50 50 49 47 46 42 39 33 30 24 22 19 20 21 24 25 25 24 24 24 23 24 25 23 23 15 21 19 15 15 13 18 19 22 24 25 22 19 20 20 18 20 20 20 18 19 18 18 17 15
48 48 49 49 49 49 48 47 45 42 36 32 29 23 22 23 21 23 26 27 26 27 25 24 23 23 21 19 23 19 17 17 16 15 18 19 19 23 22 24 23 20 18 18 17 16 16 18 18 17 18 18 16 15
49 49 48 49 49 49 47 46 44 40 34 33 30 25 25 20 19 24 26 27 28 27 26 25 22 18 18 18 16 15 12 12 17 19 22 20 22 22 22 24 25 21 20 19 18 17 17 18 18 17 17 17 16 16
49 47 48 48 49 48 46 41 36 32 32 31 30 31 26 23 26 27 27 27 28 27 25 23 16 16 20 16 18 18 15 19 21 20 21 24 22 21 22 24 25 23 21 19 17 18 16 15 13 14 13 16 17 18
46 47 48 48 48 45 39 34 33 32 29 32 29 29 30 29 28 28 27 28 29 27 25 22 19 14 16 18 19 21 21 19 20 22 24 24 22 23 24 24 24 23 21 19 17 15 14 13 13 14 15 17 16 15
47 48 48 48 45 35 32 30 32 29 31 32 32 28 30 30 30 31 28 28 28 27 25 17 14 15 20 23 24 19 19 21 21 22 24 24 22 23 24 23 21 20 19 17 17 17 17 16 15 16 16 16 14 15
48 48 48 47 42 34 30 31 32 31 28 30 29 30 28 29 29 30 29 29 28 27 21 18 19 21 21 25 25 23 22 22 20 17 17 19 21 20 21 22 21 20 18 13 15 20 16 16 16 16 16 15 15 15
47 47 47 44 35 33 32 30 30 32 29 27 27 30 28 26 29 30 29 29 28 24 21 22 21 21 23 23 22 22 21 23 20 19 17 18 17 20 20 20 16 18 17 17 17 18 20 15 15 16 15 16 16 16
43 45 38 36 32 31 31 32 31 30 26 25 29 28 25 25 26 29 30 27 27 29 26 25 25 25 25 25 24 24 23 23 23 21 24 22 18 17 17 19 17 18 18 18 17 16 17 17 16 15 14 15 18 15
40 36 32 32 29 29 28 32 27 26 23 25 27 25 23 23 23 28 25 25 28 27 29 28 28 29 28 27 25 24 24 23 22 22 22 22 21 21 20 19 20 19 18 18 18 17 17 20 20 15 13 15 15 14
37 32 31 29 29 26 28 26 25 22 24 25 24 22 20 22 25 23 22 20 24 27 28 29 29 27 28 22 25 26 26 24 24 24 24 22 23 22 20 20 19 20 20 18 17 17 16 17 20 16 12 13 12 12
29 27 29 26 28 23 21 19 17 20 17 16 17 15 19 24 21 20 20 16 20 25 27 28 28 27 27 27 27 27 26 26 25 25 25 24 24 15 14 16 17 19 18 16 16 16 15 15 16 14 12 12 10 11
26 28 26 26 22 18 16 13 14 13 13 15 17 16 17 19 18 15 15 21 22 25 26 27 26 27 27 27 27 25 26 26 26 25 24 24 23 23 21 18 15 15 18 18 17 15 14 14 13 12 13 14 18 12
24 25 28 27 23 19 16 15 17 16 13 15 15 14 17 17 14 17 19 21 24 27 28 28 27 27 26 27 27 26 23 25 24 22 19 22 22 23 23 20 18 19 18 18 17 15 14 14 13 13 12 13 14 13
29 28 24 23 16 14 13 13 12 16 17 19 19 12 15 17 17 21 23 26 27 25 26 22 24 26 26 24 23 21 13 12 11 12 13 12 9 7 10 12 14 23 18 18 17 17 15 15 14 13 12 12 11 12
24 24 21 18 12 14 15 15 17 19 21 20 19 18 18 20 23 26 25 23 21 21 19 20 16 13 14 14 13 11 15 18 19 16 14 16 9 12 6 12 17 15 17 20 22 19 15 15 14 14 13 12 11 9
21 24 19 14 13 15 17 19 16 19 21 23 23 22 22 20 21 21 21 21 23 23 25 23 22 22 20 21 17 9 9 16 19 19 18 17 16 11 14 15 15 16 18 18 18 18 22 19 18 14 10 8 7 6
23 21 13 13 14 8 10 13 19 22 20 20 20 23 21 19 21 19 21 22 22 19 19 13 9 12 19 16 16 16 16 16 14 13 7 8 12 15 16 15 16 18 19 17 18 19 18 15 11 9 8 7 6 8
19 20 15 12 11 8 9 10 15 17 16 20 20 15 15 19 21 23 19 19 18 18 22 19 17 18 19 21 17 14 22 17 17 16 13 12 13 15 15 16 18 18 17 17 18 17 13 11 10 9 7 6 7 5
17 18 17 15 15 14 12 12 12 12 14 13 14 16 18 20 21 22 18 22 24 24 22 22 22 21 18 19 17 15 18 10 15 21 22 21 21 19 17 17 18 17 17 17 17 14 12 10 9 7 7 6 5 4

GFSWCAN_sfc_dewp_102.txt.gz
Dewpoint
53 53 52 52 52 51 51 49 46 44 45 46 47 47 48 47 47 38 36 36 36 31 31 33 33 31 32 32 30 31 31 30 31 27 27 24 22 22 20 21 18 18 17 19 21 19 15 27 27 21 20 26 29 30
53 53 53 52 52 52 51 51 48 45 44 45 46 47 47 47 45 39 34 35 37 35 32 33 34 33 33 33 33 32 31 30 33 29 28 27 26 22 20 18 20 18 19 16 20 20 22 26 27 27 26 27 29 29
53 53 53 53 52 52 51 50 49 46 44 44 46 46 46 47 44 39 36 35 36 33 33 32 31 32 33 33 35 32 32 33 33 32 30 29 27 27 23 21 19 22 24 22 23 22 23 24 25 28 28 27 28 30
52 53 53 53 52 52 51 50 51 48 45 44 45 46 46 47 46 39 34 34 35 32 28 28 32 30 32 33 33 34 33 34 33 32 30 29 28 29 25 25 23 23 24 23 23 24 25 25 25 26 28 29 30 30
52 52 52 52 52 52 51 51 51 49 46 44 44 46 46 46 47 38 36 35 34 30 26 26 29 30 31 32 33 32 33 32 31 29 26 29 29 28 27 25 24 26 25 23 22 24 23 24 25 28 28 29 30 30
51 51 52 52 52 52 51 51 50 50 47 45 44 46 47 46 44 38 34 36 36 35 28 24 27 27 29 30 30 30 32 31 31 29 28 28 29 29 26 24 27 28 28 28 27 27 26 26 27 29 29 30 30 29
50 51 51 51 52 52 51 51 50 50 48 45 44 46 46 46 39 34 33 36 38 35 28 22 23 28 29 29 29 29 29 29 30 29 28 27 28 28 28 27 28 28 28 28 29 27 27 28 28 29 30 30 32 26
50 50 50 51 51 51 51 51 50 50 48 45 44 45 46 43 39 35 36 40 36 31 28 16 19 23 29 27 27 29 28 28 28 28 28 29 29 28 28 28 28 29 29 28 27 28 28 28 28 28 28 26 23 21
49 49 49 49 50 50 51 51 50 49 48 45 45 45 40 36 32 33 41 39 35 30 24 22 16 17 28 27 28 28 28 26 28 26 27 28 27 26 28 28 28 29 27 26 27 27 27 28 28 27 26 24 22 17
48 48 48 48 49 49 51 51 50 49 47 45 42 38 35 34 38 40 33 31 29 28 27 23 23 20 26 25 26 25 27 25 16 25 27 27 26 27 28 28 28 28 27 26 22 23 25 24 26 25 25 21 20 16
47 47 48 48 49 49 50 50 50 47 46 39 35 33 35 39 33 30 28 26 27 25 27 25 24 23 27 23 25 27 22 23 16 21 22 19 20 24 25 25 27 26 25 26 27 27 27 27 25 25 22 20 18 19
46 46 47 48 48 49 50 50 49 44 41 39 37 36 34 31 29 27 25 23 24 23 26 25 24 26 26 28 26 26 21 22 20 22 20 20 22 23 23 24 24 24 23 25 25 26 26 27 27 24 21 19 20 20
46 45 45 46 48 49 50 50 47 44 41 39 34 32 30 29 20 21 16 17 23 27 26 26 26 26 26 27 25 22 17 20 21 17 19 20 22 21 23 23 23 23 21 22 22 22 23 22 22 21 20 19 19 18
46 46 47 46 47 48 49 50 47 43 40 34 31 25 25 19 21 22 21 23 26 27 26 27 26 25 26 24 23 16 22 19 16 17 16 22 22 21 22 24 24 22 21 21 18 19 21 22 19 19 19 18 17 16
46 46 47 47 47 48 49 49 45 42 37 32 31 26 25 24 19 19 20 23 25 28 26 26 26 25 23 20 23 20 18 17 17 15 20 24 22 20 22 23 24 23 20 19 17 16 14 17 17 17 17 17 16 15
45 46 45 46 47 48 48 48 44 40 35 32 30 28 25 17 15 18 18 23 28 27 27 28 24 23 22 20 16 15 17 17 20 20 24 20 20 23 23 23 24 24 21 19 19 18 17 17 17 15 15 16 15 15
45 42 45 46 47 47 48 44 34 31 31 30 29 31 25 19 21 25 25 27 28 27 26 25 18 18 20 14 15 20 20 25 22 22 23 22 22 21 21 21 24 24 22 20 19 18 17 16 13 11 12 13 13 16
42 43 46 46 47 47 39 34 33 31 28 31 29 30 29 26 25 25 27 28 28 28 26 24 23 17 15 13 17 24 26 26 21 21 22 21 24 21 22 22 24 25 23 21 20 18 16 14 15 15 15 14 12 12
42 43 46 47 47 36 32 31 32 28 30 32 29 27 28 27 28 29 28 29 30 28 25 20 20 15 17 22 26 28 27 25 20 20 21 22 23 21 22 24 22 21 21 18 18 18 17 17 16 16 15 16 15 15
44 45 45 46 43 34 31 31 32 31 29 30 30 29 26 26 29 30 29 29 29 28 26 18 18 18 20 23 28 28 27 23 21 19 19 20 23 24 23 23 24 23 20 15 16 21 17 16 16 15 15 16 14 14
42 43 44 45 37 33 32 29 28 31 25 27 31 30 29 28 28 29 29 31 29 28 25 24 21 22 24 23 25 26 23 22 20 19 17 20 19 22 23 23 22 20 20 19 19 20 23 18 18 16 16 17 17 15
42 43 37 37 32 31 32 32 29 30 27 26 30 29 22 24 26 29 31 29 28 29 29 29 29 29 26 25 24 25 24 22 22 21 26 22 18 19 19 21 20 20 21 21 20 20 20 21 16 16 15 16 19 15
40 37 33 32 30 28 28 32 28 26 24 26 27 26 20 18 24 31 27 28 28 29 30 30 30 30 29 28 28 27 26 24 23 22 22 22 21 22 23 23 22 22 21 21 21 20 20 21 21 16 14 16 16 15
38 33 30 29 29 26 29 26 26 24 25 25 25 19 17 15 26 25 23 23 26 28 29 31 31 30 29 28 27 28 28 26 26 26 24 23 23 22 22 23 20 21 22 20 20 20 18 18 21 19 14 14 14 14
30 28 29 26 28 24 23 16 15 19 16 21 22 13 17 22 20 20 15 16 23 26 28 29 30 30 29 29 29 29 30 29 26 26 26 25 24 21 19 21 21 20 20 17 17 17 16 17 19 17 14 14 12 11
26 28 25 24 19 18 19 15 13 11 11 15 20 18 16 21 19 15 15 19 23 26 27 28 27 28 29 29 28 28 27 29 28 27 27 27 26 26 26 23 20 20 19 21 19 17 16 16 17 15 13 15 19 12
25 24 25 28 22 19 16 14 16 15 12 17 16 16 18 18 14 16 19 21 26 28 28 29 29 29 29 29 28 28 25 27 27 25 22 26 26 26 26 23 21 21 19 20 19 17 16 15 15 15 14 14 15 13
22 23 23 23 15 13 10 11 11 13 15 16 17 16 17 16 18 21 22 23 25 23 23 24 28 30 30 29 22 21 14 14 12 13 17 17 13 10 12 13 15 24 18 19 18 17 17 16 15 15 14 13 12 12
22 24 22 19 12 10 15 16 15 18 20 19 18 16 16 18 18 19 22 21 22 24 20 23 23 19 17 14 13 15 17 20 21 21 20 20 13 18 11 13 15 16 15 19 23 19 15 17 15 14 13 13 13 12
23 25 21 18 20 15 17 18 15 14 18 22 23 20 20 18 20 22 22 22 23 23 24 26 24 23 21 21 17 14 14 21 25 23 22 20 20 13 13 15 15 13 16 19 18 18 23 19 19 14 11 10 10 10
24 20 13 13 14 11 8 8 12 21 13 13 14 20 20 18 20 20 22 25 26 23 22 20 20 23 23 22 22 22 21 20 18 16 12 13 13 14 14 14 14 16 17 18 19 19 19 14 11 10 10 10 10 9
16 20 14 8 8 4 5 7 9 11 9 13 16 14 16 18 18 21 19 22 22 22 25 26 23 21 23 25 25 22 25 25 22 17 16 13 13 13 14 15 16 17 17 18 19 18 13 12 11 11 10 10 9 6
15 13 9 15 14 11 11 14 9 10 8 10 15 17 19 19 18 22 18 24 27 26 27 27 26 24 24 24 24 23 20 16 18 23 23 22 21 18 16 17 17 17 17 18 17 13 11 10 10 10 10 8 7 5

GFSWCAN_sfc_dewp_105.txt.gz
Dewpoint
54 54 54 53 53 52 52 52 51 48 46 45 46 47 47 48 46 38 36 36 34 30 30 32 33 31 31 31 30 30 30 29 30 28 26 25 23 22 20 19 19 20 18 20 21 20 16 26 27 20 20 23 27 30
54 54 54 54 53 53 52 52 51 50 47 45 45 46 47 47 46 39 35 35 37 34 30 33 34 33 33 33 33 31 30 29 32 29 28 27 26 21 20 19 19 19 17 16 20 21 22 26 26 26 24 26 28 29
53 53 53 53 53 53 52 52 52 51 48 46 45 45 46 46 46 40 36 35 35 31 31 31 31 32 33 33 35 32 31 32 32 32 30 28 27 26 23 21 19 22 23 21 21 22 22 23 24 26 27 28 28 29
52 53 53 53 53 53 53 52 52 51 49 47 45 44 46 46 47 41 35 34 34 31 27 28 31 29 32 33 33 33 33 33 32 32 30 29 28 29 26 25 23 24 23 22 22 24 24 24 25 25 26 27 29 29
52 52 52 52 52 52 52 52 52 51 50 48 46 44 46 46 46 40 36 35 34 31 28 27 28 30 31 32 32 32 33 31 31 28 27 29 29 27 27 26 25 26 25 23 23 24 23 23 25 25 27 27 29 29
51 52 52 51 51 52 52 52 52 51 50 49 47 45 46 47 44 38 34 36 36 35 28 25 28 27 28 30 31 31 31 30 30 30 28 28 28 28 26 24 27 28 28 27 26 27 27 27 27 27 28 28 29 30
51 51 51 50 50 51 51 52 52 51 51 49 46 45 46 47 41 37 33 36 38 34 28 24 25 28 29 29 29 29 29 29 29 29 28 27 27 28 27 26 25 28 28 28 28 27 27 27 27 29 29 30 31 29
49 49 49 50 50 50 51 51 51 51 51 49 46 45 46 46 41 37 38 41 36 31 29 21 23 22 29 27 27 29 28 27 28 28 29 28 28 29 26 28 27 28 28 28 29 28 28 28 27 28 28 28 27 25
48 48 49 49 50 49 50 50 51 51 51 49 46 46 41 38 35 34 40 39 35 31 26 24 22 19 28 27 28 28 28 26 28 27 27 28 27 25 28 28 28 28 28 28 27 27 26 25 26 27 27 26 25 23
48 48 47 47 48 48 47 49 50 51 50 47 43 40 36 36 40 40 34 31 29 30 28 25 26 21 27 26 27 26 27 25 16 25 28 27 26 27 28 29 29 29 28 28 23 22 24 24 27 27 27 26 25 21
47 47 47 47 47 48 48 49 50 50 46 41 38 35 36 39 34 31 30 29 27 25 28 27 26 25 28 24 25 27 24 24 17 22 24 22 23 24 26 27 28 28 27 26 25 26 27 27 26 27 26 24 23 20
46 46 46 47 47 47 47 48 49 45 42 41 38 37 36 33 30 28 26 26 25 23 26 24 24 27 27 29 28 27 22 23 20 22 23 21 24 24 23 25 26 25 24 24 26 27 27 27 27 27 25 23 21 20
45 45 46 46 45 45 46 47 48 46 42 40 36 32 31 30 24 22 17 17 18 25 25 24 23 26 27 29 27 24 20 22 21 20 19 22 23 22 23 24 23 23 23 23 24 23 23 24 26 25 22 20 19 18
45 45 45 46 46 47 46 46 47 44 41 34 30 26 27 24 23 21 21 21 23 25 26 26 24 24 26 26 25 18 22 20 17 18 18 23 22 23 22 22 22 22 23 23 22 21 22 23 23 22 21 19 18 17
44 44 44 45 46 46 47 47 46 43 37 32 31 26 25 25 19 18 17 21 24 27 26 25 23 24 22 20 23 19 19 15 16 19 24 24 23 23 22 23 23 23 21 20 19 18 18 19 20 19 19 19 17 16
44 44 42 44 45 45 46 46 45 41 35 32 31 29 27 20 15 19 16 23 28 28 28 28 24 21 19 19 17 14 13 12 21 25 27 21 21 21 21 22 22 23 23 21 20 19 18 18 18 18 17 17 16 15
42 38 42 43 44 45 45 43 37 33 32 29 28 32 25 18 23 23 24 25 28 27 26 26 22 17 20 11 12 17 16 24 29 27 25 24 21 19 21 22 22 23 24 22 20 19 17 17 15 15 15 16 15 16
38 39 42 44 44 43 41 39 34 31 27 28 29 30 31 27 24 24 26 28 28 28 28 25 24 20 14 12 14 20 24 28 27 25 23 22 21 21 21 21 21 23 25 24 21 19 17 16 16 16 17 16 15 14
38 40 42 43 43 39 33 32 33 27 27 27 27 24 29 27 27 27 28 29 30 30 28 25 24 19 18 19 21 25 28 27 25 23 22 21 21 21 22 23 24 24 25 24 21 21 19 18 17 17 17 15 14 15
42 42 42 43 43 34 31 31 32 31 27 29 30 27 26 27 27 28 28 28 29 29 26 23 22 21 18 21 25 27 28 27 22 19 20 20 22 23 24 24 23 25 25 23 22 24 19 18 18 17 16 16 15 14
40 39 42 41 37 36 32 30 27 30 25 29 31 29 25 24 23 26 27 29 29 28 27 28 27 27 23 21 24 26 26 24 23 22 21 21 20 23 24 25 25 24 23 22 22 22 26 20 21 18 17 18 17 15
37 40 34 37 34 33 31 32 31 31 29 28 30 29 26 26 27 29 31 29 28 29 29 29 29 29 28 25 23 25 24 24 24 24 28 26 19 21 22 24 25 25 24 24 22 22 22 23 21 18 17 17 20 16
39 38 33 34 31 30 26 32 28 27 24 27 29 28 25 19 20 30 27 29 28 29 30 30 31 31 31 31 30 28 27 25 23 23 23 23 23 24 25 25 25 27 27 24 24 23 23 23 24 19 17 18 18 16
39 33 30 29 29 27 29 26 28 23 26 25 25 23 17 13 26 26 24 22 27 27 29 30 30 30 30 30 30 30 30 30 28 28 27 26 26 24 24 25 24 25 26 24 23 23 22 21 22 21 16 16 16 15
30 28 29 25 30 26 23 19 16 17 14 23 23 20 15 22 21 21 15 17 24 27 28 29 29 29 29 29 30 30 30 30 30 28 28 28 27 26 23 23 23 22 24 23 21 21 20 20 21 20 16 16 15 14
25 28 24 21 21 20 17 12 14 10 12 14 19 15 19 20 19 18 16 22 24 25 27 28 28 28 28 29 29 29 30 31 30 29 30 29 28 28 28 27 25 24 22 23 23 21 19 18 19 18 16 17 21 14
23 24 25 27 24 18 16 13 15 12 8 12 13 17 20 19 16 18 18 19 23 27 28 29 29 28 28 28 29 30 28 30 30 28 25 28 29 28 28 27 27 25 21 22 22 20 18 17 18 17 16 16 17 14
27 25 23 25 16 12 11 11 10 11 13 15 16 10 16 18 19 22 22 25 25 23 26 29 28 28 30 28 26 25 20 18 16 17 18 18 13 12 15 16 18 25 20 21 21 20 19 18 18 16 14 14 15 14
24 23 24 21 18 16 12 13 13 16 19 18 17 15 16 21 19 20 24 24 24 23 19 21 23 15 12 17 19 20 20 21 22 21 22 24 16 20 14 16 16 21 18 21 24 19 16 17 16 15 14 14 14 12
23 23 20 17 21 20 18 17 13 12 16 20 20 18 18 18 19 19 18 18 21 23 25 25 21 21 22 23 22 16 16 21 26 26 25 24 24 19 17 17 19 17 17 18 18 18 24 19 20 14 12 12 12 11
20 17 8 14 15 15 11 7 7 20 13 10 9 15 21 16 19 20 21 23 26 26 22 18 20 22 24 23 24 23 23 22 22 24 21 20 19 18 17 18 17 17 18 18 18 18 19 13 10 8 8 9 11 12
19 23 14 11 11 2 1 6 6 10 4 8 12 5 10 11 15 24 21 23 24 24 26 27 25 24 24 27 27 28 28 25 23 22 22 20 20 18 17 17 18 18 17 17 18 17 13 11 9 9 8 9 11 9
18 17 12 9 11 12 9 8 6 5 2 2 10 14 16 20 21 23 16 23 26 26 26 27 27 28 27 26 27 28 26 23 26 26 26 24 22 20 17 17 17 17 17 17 16 12 11 9 9 8 9 10 8 7

GFSWCAN_sfc_dewp_108.txt.gz
Dewpoint
54 54 54 54 54 53 53 53 52 52 49 46 45 46 47 47 46 41 39 38 36 33 32 32 33 33 34 34 27 31 31 32 33 30 27 24 23 22 22 20 20 22 24 24 25 24 22 26 28 20 20 23 25 28
54 54 54 53 54 54 53 53 52 51 51 48 45 45 47 47 47 40 38 36 38 35 33 34 34 35 34 34 33 34 32 31 33 31 29 29 27 25 22 18 21 19 19 16 21 20 23 27 27 27 26 26 28 29
53 53 53 53 53 53 53 53 53 52 51 50 47 45 45 46 46 41 38 38 38 35 34 33 33 33 34 34 36 32 34 35 35 35 33 32 29 29 23 23 23 23 22 20 20 20 22 22 23 24 25 25 27 28
52 52 53 53 53 53 53 53 53 52 52 51 49 46 45 46 46 43 40 37 36 33 32 31 32 32 33 34 34 35 35 35 35 36 35 32 30 30 27 26 25 24 24 23 22 23 24 25 26 26 26 27 27 29
51 52 52 52 53 52 52 52 53 52 52 52 50 47 45 46 46 44 41 38 36 34 31 31 30 30 32 33 33 34 35 35 35 34 35 33 32 31 30 29 28 27 25 24 22 24 23 23 25 27 28 29 29 29
51 51 52 52 52 52 51 51 52 52 52 51 50 48 46 46 45 40 36 37 36 36 33 31 31 30 31 32 33 33 34 34 34 33 33 33 31 32 31 28 28 29 29 27 24 26 26 26 29 29 28 29 28 30
50 50 51 51 51 50 49 49 51 52 52 51 50 48 46 47 44 38 35 38 38 36 32 31 30 29 31 31 31 32 33 33 33 33 32 32 31 34 31 26 23 27 28 29 29 29 28 29 28 29 29 28 29 31
49 49 49 49 49 50 50 50 50 51 51 52 50 47 46 47 43 41 40 41 38 34 33 29 28 25 30 29 29 31 31 32 32 32 30 30 30 32 29 29 28 27 27 28 28 29 29 29 28 28 28 28 29 29
48 48 48 48 49 49 49 49 48 49 50 51 49 47 43 41 38 36 41 40 37 34 32 28 27 28 29 28 30 29 30 28 30 30 30 30 29 28 28 27 27 29 29 29 29 29 28 28 27 25 26 28 28 29
47 48 48 48 48 48 48 48 47 48 49 48 43 40 36 38 41 40 36 34 34 34 32 29 29 25 29 28 29 29 28 28 27 27 29 28 27 28 28 29 29 30 30 30 30 29 27 27 28 27 28 28 28 28
46 46 46 47 47 47 48 48 48 49 45 42 39 37 37 42 35 33 31 30 31 29 31 29 28 25 29 28 27 29 28 28 24 26 26 26 25 26 27 28 29 29 30 30 30 29 26 27 29 28 28 28 28 27
45 46 46 46 47 47 47 47 47 45 42 41 39 38 37 35 33 30 28 28 28 26 28 27 26 28 28 29 29 28 26 26 23 26 24 22 26 28 26 27 27 28 28 28 26 26 28 28 28 29 29 30 28 28
45 45 45 45 46 46 46 46 46 46 42 41 36 32 32 32 26 24 21 24 24 27 28 27 26 27 28 29 28 27 25 23 24 23 21 24 28 24 25 28 27 26 25 24 25 26 26 26 26 27 28 26 24 21
44 44 44 45 45 45 46 46 46 45 41 34 31 27 28 28 27 27 26 28 27 28 27 27 27 27 27 27 26 24 23 22 20 19 20 28 27 26 23 25 24 25 24 25 27 28 27 26 26 26 26 23 21 19
43 43 44 44 44 45 45 46 45 45 38 32 31 26 27 29 27 26 27 27 27 29 29 27 27 25 26 26 24 23 21 19 20 21 28 32 27 26 25 23 23 24 26 27 26 25 25 25 24 23 23 23 21 19
42 42 41 43 43 44 45 44 43 42 36 33 32 30 31 29 26 25 25 27 29 29 30 30 26 24 24 24 21 20 19 18 24 28 31 27 25 24 25 24 23 22 22 23 26 25 26 24 24 24 22 21 19 18
41 38 40 41 42 44 43 41 38 35 32 31 29 32 31 28 31 28 25 24 29 29 29 29 25 25 23 22 19 21 21 27 31 32 29 27 26 23 22 21 22 22 22 23 24 24 25 24 22 21 21 21 21 19
38 39 41 41 41 41 40 38 35 33 31 31 29 30 30 30 29 27 26 28 29 30 30 28 27 23 22 21 20 24 25 29 29 28 27 25 22 22 21 22 22 23 25 28 27 27 25 22 21 21 22 23 20 20
39 39 40 41 40 37 33 34 34 30 29 29 30 30 30 31 30 29 28 28 30 32 31 29 28 25 25 26 27 29 30 28 25 23 23 24 25 23 22 25 26 26 27 28 25 23 22 22 21 21 20 19 17 17
41 41 41 41 40 34 32 32 33 31 30 30 30 30 30 30 30 29 28 28 29 30 28 25 27 28 27 27 28 27 28 27 26 23 22 23 22 25 26 25 24 25 26 28 27 27 23 22 21 21 20 19 18 17
39 39 40 40 36 34 33 32 29 29 30 30 30 31 29 28 29 27 28 30 29 28 28 29 27 28 29 29 28 25 24 26 24 23 20 24 25 24 25 26 27 25 24 23 23 24 27 24 24 22 21 21 20 19
37 38 36 37 32 33 32 34 30 31 29 29 30 32 29 29 29 30 30 28 29 30 29 28 29 29 29 29 29 30 27 25 24 24 28 28 25 25 24 26 27 27 26 26 24 23 23 24 25 22 21 20 22 19
38 37 33 32 29 29 26 33 29 28 26 25 30 28 27 25 28 32 27 30 30 30 30 30 30 31 30 30 31 31 31 30 27 26 25 25 25 26 28 28 27 29 30 29 27 27 28 29 27 25 21 21 20 19
38 33 30 29 29 25 28 27 30 27 27 26 26 22 23 24 28 28 27 26 27 28 30 30 30 30 30 30 30 30 31 31 31 30 29 28 28 27 25 25 25 26 27 27 31 31 30 29 30 28 21 21 20 19
29 27 28 25 29 26 23 19 21 22 22 22 24 23 20 23 23 23 21 23 27 28 29 30 30 30 29 29 29 30 31 31 31 30 31 31 30 30 30 30 27 26 27 30 28 28 28 25 25 24 21 21 20 20
23 24 25 25 25 20 19 15 15 15 15 19 23 21 21 21 20 20 21 26 26 27 28 27 28 28 28 29 29 29 29 32 32 31 31 32 31 30 31 30 30 29 25 27 28 26 24 23 23 23 21 21 23 20
21 18 26 26 24 20 19 15 16 16 16 18 18 18 20 19 19 21 22 23 26 30 30 30 29 29 29 29 29 30 31 33 33 32 30 32 33 32 32 31 30 30 26 26 26 26 24 22 22 22 21 20 21 19
25 23 21 23 18 17 16 14 14 13 15 17 19 17 17 20 21 24 24 26 27 26 26 28 31 31 31 32 32 30 30 28 24 24 25 25 24 27 27 28 26 28 26 25 25 25 24 23 22 21 20 19 20 18
21 24 24 18 11 13 15 14 15 18 19 19 19 18 17 20 23 22 24 23 21 23 24 25 27 24 23 24 24 26 25 25 27 26 25 27 28 28 23 24 25 27 24 25 26 24 23 22 22 20 19 18 18 17
22 23 16 11 17 17 21 19 16 15 18 20 20 20 20 21 21 20 20 20 22 25 27 28 29 25 27 27 27 24 21 25 28 29 28 28 29 28 22 22 23 23 23 25 23 24 25 23 22 18 15 15 15 14
20 19 11 14 17 19 15 11 14 19 19 19 14 19 22 21 21 20 22 24 26 27 23 25 26 26 26 25 26 26 26 24 23 26 30 27 24 22 21 22 23 22 23 22 22 23 22 17 15 13 13 13 14 14
21 20 18 14 15 4 3 12 13 16 13 14 17 13 12 13 16 24 23 22 24 24 26 27 26 27 29 27 28 29 31 29 26 25 27 26 23 22 21 21 22 22 21 21 22 20 15 13 12 12 11 12 12 11
19 10 4 6 12 15 11 8 11 8 8 7 10 14 19 21 21 23 21 25 27 26 26 27 28 29 29 28 28 28 30 29 28 27 27 27 25 22 21 21 21 21 20 20 18 14 12 11 11 10 11 10 10 10

GFSWCAN_sfc_dewp_111.txt.gz
Dewpoint
54 54 54 54 54 54 54 54 53 52 52 49 46 46 47 47 47 42 41 40 38 34 33 32 33 31 33 33 25 32 32 33 34 29 24 23 21 19 20 16 18 22 24 24 24 23 21 25 27 20 20 23 24 27
54 54 54 54 53 53 53 54 53 52 52 51 48 46 46 47 47 42 39 37 37 36 34 34 33 34 34 33 32 33 30 30 31 31 29 26 24 24 20 15 20 17 17 16 22 23 24 27 22 26 27 26 26 27
53 53 54 53 53 53 53 53 53 53 52 52 50 47 46 46 46 44 41 39 39 36 35 35 33 35 35 35 36 30 31 32 35 36 33 30 29 26 22 22 22 22 22 21 18 19 21 22 24 24 25 25 26 27
52 52 52 52 53 53 53 52 52 53 53 52 51 50 47 46 46 45 42 39 37 35 33 31 32 32 33 34 35 35 35 36 37 38 34 31 27 28 26 23 24 24 24 23 22 22 23 24 24 25 25 26 27 29
50 51 51 52 52 52 52 52 51 52 52 53 52 51 48 46 47 46 45 41 39 35 33 31 33 31 32 33 34 35 35 35 35 35 36 32 32 31 30 30 28 27 25 24 22 22 22 23 24 26 27 28 29 29
50 50 51 51 51 51 52 51 50 51 51 52 52 51 49 46 46 41 36 39 39 37 35 33 33 30 32 33 33 33 35 34 35 34 33 34 34 33 30 26 25 24 27 27 24 25 25 25 28 27 28 30 30 28
48 49 50 50 51 50 50 50 49 49 50 51 52 51 49 47 45 37 34 39 39 38 33 33 33 30 31 32 33 33 34 34 35 34 33 32 32 34 32 26 23 22 26 27 28 27 27 29 28 29 30 30 30 28
47 49 48 49 49 49 49 50 50 50 50 50 51 51 48 47 46 42 42 41 38 35 34 31 34 28 31 30 29 32 32 33 34 32 32 31 31 32 30 28 27 26 27 26 28 29 29 29 30 29 30 29 27 26
47 48 47 48 48 48 48 48 49 48 48 49 50 48 45 43 40 39 42 42 38 35 33 31 31 33 30 30 30 30 31 28 31 29 29 30 27 28 28 28 27 27 28 29 29 29 29 30 30 29 27 25 26 28
47 47 47 47 47 48 47 47 48 48 48 48 44 40 36 39 42 40 37 35 34 35 34 31 32 30 30 29 29 30 29 28 27 27 30 29 26 28 28 29 29 29 30 31 32 31 31 32 30 26 28 28 28 29
46 46 47 47 47 47 47 47 47 48 45 43 39 37 38 42 38 36 33 32 32 31 32 31 32 29 29 30 28 29 30 30 25 28 27 26 26 27 27 27 28 28 29 31 31 32 29 29 30 29 29 30 30 30
46 46 46 46 46 46 46 46 46 45 44 42 40 39 38 35 33 31 31 30 29 27 30 30 29 29 29 30 29 29 29 27 24 28 25 23 28 30 30 28 27 28 28 30 30 30 30 27 28 29 30 32 32 32
45 45 45 46 45 45 45 46 46 45 43 41 37 34 33 33 27 27 25 27 28 30 31 29 28 28 28 30 30 29 27 24 25 24 23 25 30 27 25 30 29 28 29 30 28 26 27 28 30 30 29 29 29 28
45 45 45 45 45 44 45 45 45 44 42 35 32 28 30 30 28 31 30 32 31 31 30 29 29 28 28 28 27 26 25 24 23 21 22 31 31 29 25 27 28 28 27 27 29 30 30 29 28 28 29 28 26 24
44 44 44 44 44 44 45 45 45 44 40 33 32 28 30 32 34 34 36 30 29 31 30 31 31 30 29 29 27 27 23 21 22 24 32 36 32 27 27 26 26 27 29 29 30 29 28 29 27 25 26 27 25 23
43 43 42 43 43 43 44 44 42 41 36 34 32 31 32 32 34 30 31 33 32 30 31 31 30 28 27 28 25 23 23 21 28 31 34 32 30 28 26 27 25 24 23 25 30 29 29 28 27 27 26 25 24 22
42 38 40 41 43 43 44 41 39 34 33 32 31 32 32 33 33 34 30 29 30 31 31 32 26 25 27 24 23 25 24 29 33 34 33 32 30 27 24 24 25 25 23 23 26 27 29 30 29 26 25 25 24 23
39 40 41 41 42 41 39 38 35 32 29 31 30 31 32 28 27 27 28 29 30 30 33 31 32 27 26 25 27 30 31 31 31 30 28 27 27 25 24 24 24 24 25 28 28 29 29 27 25 24 25 27 25 24
40 41 41 42 41 37 33 33 33 29 31 30 27 27 28 30 31 30 31 30 31 32 34 31 30 28 26 27 28 30 32 32 30 26 25 25 25 24 24 27 28 27 29 28 27 25 25 26 24 24 23 24 22 21
42 41 41 41 40 34 32 32 34 31 25 25 31 30 28 27 28 29 30 31 30 32 30 29 27 26 27 27 30 30 30 29 29 27 26 26 26 29 29 29 28 28 27 29 30 28 26 24 23 23 23 23 23 22
40 40 41 41 37 35 32 32 30 30 33 28 31 31 29 33 32 32 32 33 30 29 28 28 28 28 28 27 27 28 28 28 26 25 25 27 26 27 28 29 30 27 25 24 24 25 28 25 24 23 24 26 26 24
38 39 38 37 33 32 31 33 32 33 30 30 31 33 30 29 31 31 34 30 29 30 30 29 29 29 29 28 28 29 29 29 29 29 32 30 27 28 28 29 29 30 29 28 25 23 23 24 25 26 26 27 28 24
37 37 34 33 31 30 29 34 28 28 23 25 30 27 27 28 31 33 28 30 30 29 29 30 30 31 31 30 30 30 31 30 30 30 30 29 29 30 31 30 30 32 31 30 29 28 28 32 31 28 27 29 28 27
38 33 31 29 29 26 30 26 28 25 25 23 22 20 21 24 30 29 27 27 28 28 28 29 30 29 30 30 30 31 31 32 31 31 31 31 31 30 30 30 29 29 30 29 29 30 29 27 29 30 29 28 26 26
29 27 29 26 29 25 24 24 24 23 20 21 21 22 25 26 25 25 23 24 26 27 29 30 30 30 29 29 29 30 31 31 31 31 31 32 32 31 32 32 31 30 30 32 30 29 30 31 31 31 29 26 26 25
23 26 25 25 25 23 22 18 20 20 21 22 24 26 25 24 22 22 23 27 27 28 28 29 30 29 29 30 30 30 30 32 32 31 32 33 32 32 33 32 32 32 31 30 31 30 30 29 28 28 28 27 29 26
22 23 27 27 24 24 22 19 19 21 20 20 24 21 21 19 20 21 21 28 27 30 32 32 31 30 30 29 30 31 32 34 34 32 33 34 34 34 34 33 32 32 31 30 30 29 28 28 26 27 27 25 24 25
26 25 20 23 24 23 19 19 19 19 20 22 22 19 18 20 22 27 31 34 33 34 32 32 33 33 33 32 33 32 33 33 33 30 30 30 30 30 31 33 33 31 31 30 29 29 28 28 26 25 25 24 23 24
25 26 26 19 21 20 22 21 21 21 22 22 21 21 21 23 26 29 29 31 31 29 28 29 31 31 30 30 30 31 32 32 29 27 27 28 29 32 31 29 30 30 29 29 28 27 27 26 26 25 24 23 22 21
23 27 23 21 18 19 23 23 24 25 24 23 24 24 23 24 27 29 29 28 27 27 29 30 31 32 30 29 29 29 29 29 30 29 29 29 30 33 29 26 27 28 27 27 26 25 26 25 24 22 19 18 18 17
25 26 23 21 19 21 23 22 20 19 22 24 25 23 24 26 28 29 27 28 29 29 29 29 29 30 29 28 28 28 27 29 27 29 31 32 31 29 26 26 27 26 26 25 24 25 25 21 19 17 16 16 16 16
22 21 20 17 19 21 14 18 22 21 22 19 22 20 22 22 22 24 25 28 27 27 28 29 28 27 29 30 30 30 31 30 29 28 28 30 30 28 25 25 25 25 24 24 24 23 20 18 16 16 15 15 14 13
23 21 19 19 17 17 17 17 18 18 17 18 19 22 23 22 20 22 27 30 28 26 26 27 29 29 29 29 30 30 31 30 31 31 30 30 30 26 24 24 24 24 24 23 21 19 17 15 14 13 14 12 11 11

GFSWCAN_sfc_dewp_114.txt.gz
Dewpoint
54 54 54 54 54 54 53 54 54 54 53 52 49 47 46 47 48 44 42 41 40 37 36 33 33 31 33 33 27 33 33 34 34 30 26 24 22 20 21 18 25 25 24 24 24 22 20 27 27 20 21 23 23 26
54 54 54 54 54 53 53 53 53 53 53 52 51 48 46 47 47 46 41 38 37 37 36 36 35 35 34 35 34 33 31 31 33 31 30 28 25 24 21 17 20 16 22 21 24 24 26 28 26 28 27 26 26 26
52 53 53 53 53 53 53 53 53 52 53 53 52 50 47 45 46 45 43 41 40 37 37 36 35 36 35 35 36 32 32 34 35 37 35 32 29 29 24 23 23 22 21 21 20 20 20 22 27 27 27 27 27 27
50 51 51 52 52 52 52 53 52 52 52 53 53 52 50 46 46 46 43 41 39 36 33 32 33 33 34 34 35 36 35 36 36 38 35 33 29 29 26 26 26 25 25 23 22 22 22 23 23 23 24 26 26 28
49 49 50 50 51 52 52 52 52 51 51 51 52 52 51 47 46 46 45 43 41 36 33 33 34 32 32 33 34 35 35 35 35 33 33 32 33 31 30 29 28 28 24 23 22 23 22 22 25 26 26 27 28 29
48 49 50 50 51 51 51 51 51 50 49 50 51 51 51 48 46 43 36 41 41 38 34 32 33 31 32 33 33 33 34 34 35 34 33 33 34 32 30 28 27 28 28 27 24 26 26 26 28 27 27 29 30 30
48 48 48 50 50 50 49 49 49 50 50 50 50 51 51 48 45 39 37 40 40 38 34 31 32 30 32 32 33 33 34 34 33 34 33 32 32 32 30 26 23 24 25 28 28 28 27 28 27 29 29 30 32 29
47 46 47 48 49 48 48 49 49 49 49 49 49 50 51 48 46 42 43 41 39 35 34 30 30 29 32 30 29 32 32 32 34 32 33 31 31 32 29 28 27 28 27 27 26 27 28 29 29 29 30 30 29 29
47 46 47 47 47 47 47 47 47 48 48 48 50 47 45 43 40 40 43 42 39 35 32 31 29 29 31 30 31 30 30 26 32 31 30 30 28 27 28 28 27 27 28 28 29 29 28 28 29 30 30 29 27 26
47 46 47 46 47 47 47 46 46 48 48 47 44 40 37 40 43 40 37 35 34 35 33 30 32 28 30 29 28 28 29 27 26 27 29 29 25 27 27 27 27 28 30 29 26 26 27 27 29 29 29 27 28 28
46 46 46 46 46 47 46 46 46 48 46 43 40 37 38 42 38 37 33 31 32 30 32 30 29 30 30 30 29 31 30 28 24 26 26 26 25 26 27 27 28 28 28 28 30 31 30 29 28 27 27 28 29 29
46 46 46 46 46 46 45 45 45 45 43 42 40 39 39 35 33 31 30 31 30 27 30 29 29 30 30 30 30 29 26 28 23 27 24 21 25 27 28 27 27 28 27 28 30 31 30 29 28 27 28 27 28 28
45 45 45 45 44 44 44 45 45 45 43 42 37 33 32 33 27 26 24 26 27 29 29 27 25 28 28 29 29 29 24 24 25 22 20 22 27 25 27 26 26 27 28 29 29 30 29 27 28 29 28 29 30 30
45 45 45 45 45 44 44 45 45 44 41 35 32 29 28 26 29 28 27 27 29 30 29 29 27 28 28 29 29 26 27 25 18 17 18 25 28 29 27 25 26 26 26 26 26 26 26 27 28 28 28 28 28 27
44 44 44 44 44 44 44 45 44 43 37 31 32 25 27 28 29 28 30 27 27 31 31 28 28 27 26 28 29 28 24 20 20 18 26 32 31 28 26 25 25 26 27 28 26 26 27 26 27 27 27 27 27 26
44 43 42 43 43 44 44 44 41 39 36 33 31 28 31 30 29 26 25 26 29 30 28 28 29 26 26 27 26 17 19 16 20 26 31 31 28 27 26 25 24 25 24 25 28 28 27 27 27 27 26 26 26 25
43 39 40 42 43 43 43 39 35 33 32 32 29 31 30 27 27 28 30 29 31 29 24 29 25 22 27 23 21 25 21 24 28 29 29 29 29 27 26 25 23 23 24 24 25 26 27 26 25 25 25 26 25 25
38 40 41 41 42 40 38 36 33 31 29 29 26 26 28 29 27 27 27 30 30 28 29 26 27 24 21 16 20 24 26 28 29 30 29 25 26 27 26 26 25 24 25 27 27 28 26 24 25 25 25 26 24 24
38 40 41 41 40 36 33 32 33 27 26 26 26 26 25 25 29 29 30 31 31 32 32 31 28 24 22 23 24 27 28 28 27 26 25 27 28 26 25 26 27 26 26 26 25 25 25 26 25 25 25 25 24 23
42 41 41 41 41 33 30 30 33 27 18 21 25 26 27 26 25 25 25 25 26 27 28 26 25 25 24 25 26 26 25 25 24 25 26 26 25 27 27 28 28 28 27 25 27 29 26 25 25 25 24 24 23 23
40 39 41 41 38 34 32 31 29 29 25 23 24 23 22 24 25 26 27 28 27 27 26 27 26 25 25 25 25 26 25 26 25 25 25 26 27 27 28 29 29 28 27 27 26 25 29 26 25 24 24 25 24 24
37 41 39 39 32 32 30 32 29 29 28 25 23 25 22 23 24 25 28 29 28 28 28 27 27 27 27 26 27 28 28 28 28 29 31 30 29 29 29 30 30 30 30 30 28 27 27 25 26 26 25 24 26 26
40 39 33 32 30 30 28 32 28 29 25 22 21 18 18 21 23 26 25 25 27 30 29 28 29 29 29 29 29 29 29 29 29 29 29 29 29 30 31 31 31 31 31 31 31 31 30 31 29 27 25 26 29 30
38 32 29 28 28 24 29 26 24 20 19 16 13 10 13 18 20 23 20 21 23 26 26 27 27 28 28 28 28 29 29 30 30 30 30 30 30 30 30 31 31 31 31 31 31 31 30 29 30 28 30 31 31 30
28 27 29 25 28 26 24 19 15 17 13 14 13 14 14 18 14 14 16 19 22 22 23 24 24 25 24 25 25 26 28 30 29 29 30 31 31 31 31 31 31 31 31 30 29 28 28 27 28 29 30 32 30 29
22 26 25 22 20 18 18 13 15 15 15 11 14 15 15 18 17 17 18 20 20 22 23 24 25 25 27 30 29 30 30 30 30 29 31 32 32 31 31 31 31 31 32 33 33 31 30 29 29 30 32 32 33 29
21 20 23 26 24 22 19 17 16 15 12 13 12 14 17 15 15 16 21 24 24 26 28 30 33 32 33 32 31 31 31 30 31 31 29 30 32 33 33 32 31 32 32 32 31 31 30 30 30 30 30 29 28 29
22 19 16 20 18 18 15 13 10 10 13 18 18 11 13 15 14 18 20 22 29 29 30 32 33 33 32 32 33 31 29 27 23 21 26 30 31 32 32 32 32 33 34 31 31 30 29 28 29 29 28 27 25 26
21 23 22 14 15 14 17 15 15 18 19 19 17 16 16 18 21 23 24 26 22 20 20 25 27 29 29 28 29 30 30 24 23 24 23 24 26 29 32 32 31 30 29 28 32 29 28 27 26 26 25 24 23 22
19 22 18 15 13 14 18 21 19 22 21 21 20 20 20 21 23 26 25 26 26 26 27 27 28 24 28 28 28 27 27 28 28 27 25 25 26 29 28 27 26 27 27 26 26 25 28 24 25 22 20 19 18 17
21 23 20 20 19 21 22 22 18 22 17 15 19 22 22 24 24 25 27 27 28 29 28 28 28 29 28 28 27 26 25 26 27 27 28 29 29 28 27 25 25 25 27 25 25 25 24 20 19 17 17 15 16 16
20 19 18 16 18 19 10 10 14 16 20 15 19 17 11 13 19 22 23 25 26 26 28 28 26 26 26 27 27 28 30 29 27 26 25 27 28 29 25 24 24 25 25 25 24 24 20 19 17 16 15 15 14 13
12 13 16 19 19 9 9 9 6 8 6 16 18 20 20 20 18 20 22 26 26 25 25 25 26 27 26 26 27 28 30 30 30 32 32 31 30 29 25 23 25 25 24 24 23 21 18 16 15 14 14 13 12 11

GFSWCAN_sfc_dewp_117.txt.gz
Dewpoint
55 55 54 54 54 54 53 53 53 53 53 53 51 48 47 48 48 43 40 39 37 34 35 34 32 31 32 32 26 29 29 33 33 29 27 25 22 21 21 20 25 24 23 24 25 22 19 26 26 19 21 22 23 24
54 54 54 54 54 54 53 53 53 52 52 52 53 51 47 46 47 46 39 38 38 35 31 38 36 35 33 33 32 32 30 32 34 31 30 28 25 24 22 19 24 21 24 25 25 24 25 28 26 27 25 23 24 25
52 52 53 53 53 52 53 53 53 52 51 52 53 53 50 47 46 44 41 40 38 35 34 35 34 35 35 35 36 31 32 33 35 36 34 33 29 29 25 24 24 24 23 22 21 23 26 26 27 28 28 27 27 27
50 50 51 51 51 51 52 52 52 52 51 51 52 52 52 49 46 46 40 40 37 35 29 30 33 32 33 34 35 35 35 36 37 36 33 32 29 30 26 25 25 26 27 23 22 22 22 23 23 23 24 26 27 27
48 48 49 49 50 50 51 51 51 52 51 50 51 51 52 51 47 46 43 42 40 33 30 31 34 32 32 33 33 34 34 34 34 31 28 31 32 31 30 29 26 27 25 25 24 23 22 22 23 25 25 25 27 27
48 48 48 48 49 50 50 50 50 50 49 49 49 50 51 51 47 42 35 39 41 38 32 30 34 30 32 33 33 33 34 33 33 32 30 32 33 31 27 26 29 26 27 26 25 25 25 25 26 26 25 27 28 29
47 47 47 47 49 49 49 49 48 49 49 49 50 50 50 50 45 40 38 38 41 38 34 31 29 30 31 32 33 32 33 32 32 31 31 30 31 31 29 27 25 26 26 27 28 28 28 28 27 28 28 28 32 30
47 47 46 47 47 48 48 48 47 47 48 49 49 50 50 50 45 43 44 42 39 35 34 30 29 28 30 29 29 32 32 33 32 32 33 31 31 32 28 28 28 29 29 28 28 28 27 28 29 29 29 29 29 29
47 47 45 47 46 47 47 47 47 47 47 49 48 47 44 43 40 40 44 41 38 35 32 31 28 29 29 28 29 29 31 28 30 31 31 31 29 27 28 28 28 28 28 27 28 29 29 28 29 29 29 29 29 29
47 47 46 47 46 47 47 46 46 47 47 47 43 40 36 39 43 42 38 35 34 34 33 29 28 27 28 27 28 28 29 27 25 28 28 29 27 28 27 27 27 27 27 27 27 27 27 26 28 29 29 29 29 28
46 47 46 47 46 46 46 45 46 48 46 40 38 37 38 42 37 36 33 32 32 29 31 31 30 29 31 29 29 31 27 27 22 24 25 26 24 26 27 28 28 28 28 27 28 29 29 28 27 28 28 27 27 28
45 46 46 46 46 45 45 45 45 43 41 41 40 39 39 35 33 31 30 31 29 25 28 29 29 29 29 31 30 30 26 28 22 28 25 20 23 26 27 27 26 25 27 27 29 29 30 29 28 28 27 26 26 28
45 45 45 45 45 43 44 45 45 44 42 40 34 33 33 31 27 26 18 24 25 28 28 27 25 29 27 29 29 29 26 24 23 23 21 21 24 25 25 27 25 26 26 26 28 29 30 30 30 28 27 28 29 29
45 45 45 45 44 44 44 45 44 43 38 31 30 25 27 23 27 26 24 25 28 28 28 28 25 27 28 27 27 24 26 26 21 17 16 21 24 25 27 26 24 24 25 26 25 26 28 28 28 28 29 29 29 29
44 44 45 44 45 44 44 45 44 41 34 30 31 24 25 26 21 24 23 23 25 29 30 28 29 28 25 23 28 23 22 15 15 15 21 24 27 26 26 26 24 24 26 27 27 26 27 27 26 25 27 28 28 28
43 43 41 44 44 44 44 43 40 38 35 32 30 25 27 29 26 25 17 20 25 28 26 27 27 26 26 25 24 20 15 13 17 21 24 25 27 28 28 27 26 25 24 24 25 27 27 27 27 25 25 27 27 27
42 38 41 42 44 44 43 37 33 32 32 31 29 30 23 19 20 24 28 27 30 29 27 28 25 21 24 24 22 19 16 21 24 26 27 27 26 23 24 26 26 27 26 24 24 25 25 25 23 23 25 26 27 26
37 38 41 41 42 41 38 36 31 30 25 28 22 25 27 27 25 25 27 29 29 27 27 25 23 22 21 15 19 21 23 24 26 26 25 24 23 24 25 26 27 27 28 27 27 26 21 23 24 25 26 26 24 24
37 38 41 41 40 37 32 32 32 24 23 20 25 24 24 25 26 27 28 29 30 29 31 31 27 24 22 22 23 26 27 26 25 24 25 26 25 23 24 27 29 28 28 27 27 26 26 26 26 26 25 24 24 24
40 40 41 41 40 33 30 30 32 28 16 22 21 21 21 22 22 23 24 25 25 24 23 23 20 20 20 20 24 26 27 26 21 19 20 21 23 25 27 28 27 28 28 28 27 30 28 25 26 25 25 25 24 24
37 37 40 40 37 36 31 30 29 26 18 19 20 22 19 17 21 25 25 26 21 22 22 22 21 21 22 22 22 23 23 23 22 22 23 24 25 26 27 28 29 29 29 29 28 29 31 28 28 28 26 26 26 26
35 38 33 36 33 32 30 32 29 28 22 19 16 18 10 15 20 21 19 19 20 23 23 24 24 25 25 24 25 25 25 26 26 27 30 29 28 28 28 29 30 30 31 31 31 30 29 29 28 27 27 27 27 26
37 36 33 33 29 29 26 32 27 27 21 18 10 15 13 11 17 21 17 21 22 23 25 25 26 26 26 27 28 28 29 28 28 28 28 28 28 29 29 30 30 31 31 31 31 31 31 32 32 31 29 27 26 25
37 33 30 27 28 25 29 26 28 26 17 17 13 8 4 13 13 14 14 18 20 21 23 24 25 26 27 28 28 28 28 28 28 28 29 28 29 29 29 30 30 31 32 32 31 31 31 31 32 29 29 28 26 26
26 26 28 24 28 24 22 21 22 17 9 11 9 3 9 10 9 3 11 16 19 20 21 22 22 22 22 22 22 23 25 26 27 29 32 32 31 30 30 31 31 31 32 33 32 32 31 29 29 28 30 31 31 31
22 26 24 23 23 22 19 14 15 12 9 4 6 9 6 10 6 10 13 17 18 20 20 21 21 21 22 24 24 28 32 35 35 34 34 33 31 30 30 30 30 30 32 32 32 32 31 30 31 31 31 32 34 33
21 22 24 29 25 22 19 17 15 11 7 7 7 8 13 14 12 14 17 19 20 23 24 25 25 25 26 27 31 33 34 35 35 34 32 31 30 31 32 31 30 30 30 31 32 32 31 31 32 32 31 31 30 30
18 18 19 21 20 17 13 9 5 7 11 14 14 6 9 11 12 16 18 20 21 23 25 26 25 28 30 31 32 32 32 32 32 22 23 27 29 31 31 32 32 32 33 33 32 31 32 31 30 29 30 29 28 27
24 20 17 9 7 10 14 13 12 15 17 16 14 13 14 16 18 20 20 22 23 19 24 25 26 28 28 28 29 30 30 30 28 26 24 24 25 26 27 29 30 31 30 29 32 33 30 26 26 27 26 25 23 22
19 22 16 10 12 13 16 18 14 19 19 18 18 17 17 18 21 23 23 23 18 22 24 25 26 27 26 26 26 27 28 28 29 27 26 25 25 25 23 25 26 26 25 25 25 23 29 26 25 19 17 17 17 19
19 18 11 13 13 17 19 20 18 20 17 18 20 20 19 21 22 23 24 25 26 26 26 26 26 26 26 27 27 26 26 28 26 27 28 28 28 28 28 25 25 24 25 24 23 22 24 19 19 15 17 16 17 16
19 17 16 11 16 19 12 14 16 20 20 19 19 21 21 14 19 21 23 25 24 23 25 25 24 25 26 27 27 28 30 28 28 25 22 26 27 28 28 23 23 23 23 22 22 22 22 20 18 18 16 14 13 13
13 14 18 17 8 7 8 10 5 5 3 16 18 19 20 19 17 20 21 24 23 23 23 24 25 25 25 26 26 27 29 28 28 31 32 32 31 30 23 22 23 23 22 21 22 21 21 20 18 17 16 14 13 13

GFSWCAN_sfc_dewp_120.txt.gz
Dewpoint
55 55 55 54 54 54 54 53 53 52 52 53 52 50 49 48 48 42 40 38 34 32 32 34 31 30 32 31 25 26 28 32 32 28 27 26 23 21 20 18 23 23 24 24 25 23 19 26 26 20 20 21 21 23
54 55 55 54 54 54 54 53 53 52 51 51 52 52 50 48 47 44 37 40 38 33 32 38 37 36 33 32 31 31 28 32 33 28 30 29 26 25 22 19 26 20 22 23 25 24 25 27 25 26 25 22 22 23
53 53 53 53 53 53 53 53 52 52 51 51 51 52 53 49 47 43 39 39 37 34 33 33 34 35 36 35 35 31 31 33 34 35 33 31 28 28 25 24 22 23 24 24 24 24 26 26 27 28 28 27 27 26
51 52 52 52 51 51 51 51 52 52 52 51 51 51 52 52 48 46 41 39 36 34 28 31 33 32 33 34 35 35 34 36 36 35 32 30 29 30 26 26 25 25 25 23 22 22 23 23 23 23 24 25 27 28
49 49 48 49 49 50 50 51 51 51 51 50 49 50 51 51 50 47 44 42 40 33 29 30 33 32 32 32 33 34 34 34 33 31 28 30 31 31 29 29 26 27 26 25 23 25 24 24 24 24 24 25 25 26
48 48 48 48 48 49 49 50 50 50 49 49 49 49 50 50 49 43 37 39 40 38 30 30 34 30 31 32 32 33 34 33 33 31 29 31 32 30 26 25 28 28 26 26 25 26 27 27 27 27 26 27 26 27
47 47 47 46 47 48 48 48 48 48 48 48 49 49 49 50 46 41 40 38 42 38 34 32 30 31 31 31 31 31 32 31 31 30 31 29 30 31 30 26 27 27 28 29 29 28 27 27 27 28 28 28 29 30
47 47 46 45 47 47 47 47 46 46 46 47 48 49 49 50 46 43 44 44 41 36 35 31 29 28 31 29 29 31 30 32 32 32 32 31 31 31 28 28 29 29 29 28 28 28 28 28 28 28 29 29 29 29
47 47 46 46 46 46 46 46 46 46 46 48 48 45 44 43 41 41 43 42 39 36 33 30 23 25 30 29 29 30 31 28 30 31 30 31 30 26 28 28 28 28 27 27 27 27 27 27 28 29 29 29 29 29
46 47 46 45 46 45 46 45 45 46 46 47 42 39 34 39 43 41 38 35 35 35 33 30 29 27 28 27 28 27 28 27 25 28 31 29 27 28 27 27 27 28 27 27 25 25 26 27 27 28 28 29 29 29
45 46 46 46 46 45 46 45 45 47 46 41 38 36 38 42 38 36 33 32 32 29 32 31 31 30 31 30 30 32 26 28 23 25 26 26 24 25 26 26 27 28 27 26 27 27 28 28 28 28 28 27 27 27
45 46 46 46 46 45 44 45 45 42 40 39 39 39 39 36 33 31 30 31 29 25 28 28 28 29 30 31 30 32 27 28 22 29 26 20 24 26 26 26 26 25 24 25 26 28 29 30 29 28 28 28 27 26
45 45 45 45 45 44 44 44 45 44 42 40 35 31 32 29 26 25 19 22 22 24 25 25 23 28 27 29 29 28 24 23 26 24 21 22 25 25 25 26 26 26 25 25 25 26 26 26 28 29 29 29 29 28
44 45 45 44 44 44 44 44 44 43 37 28 26 18 25 18 25 24 21 20 25 25 25 25 22 24 26 25 27 23 24 26 17 13 15 23 23 25 25 27 27 26 25 24 26 26 26 27 27 27 27 26 27 26
44 44 44 44 44 44 45 45 44 40 35 29 28 22 19 24 18 23 22 22 23 27 28 25 26 28 27 25 26 25 24 21 18 15 21 23 26 28 27 27 27 25 25 25 26 27 27 27 26 26 26 26 27 27
42 43 41 43 43 44 44 43 40 38 33 32 30 24 25 26 26 25 22 28 27 29 29 29 26 26 25 26 24 21 19 13 17 20 23 22 26 26 25 22 21 23 22 24 26 27 27 27 26 26 26 25 26 26
41 37 41 43 43 43 43 39 35 33 31 30 28 29 22 18 19 22 27 26 29 30 27 25 24 19 19 23 22 22 16 19 23 25 25 25 26 24 22 23 24 23 23 24 26 27 28 28 26 22 23 26 26 26
36 37 41 41 42 41 39 37 33 29 26 27 26 25 28 26 24 25 27 27 27 26 24 20 21 18 16 14 17 20 22 24 24 24 24 25 24 24 24 24 23 22 23 26 27 29 29 28 26 26 26 26 25 24
37 37 40 41 40 37 32 32 32 25 22 19 23 22 24 25 27 27 27 28 29 26 25 26 18 15 19 20 21 24 26 26 25 23 21 20 22 24 22 22 23 25 27 28 27 27 27 28 28 28 28 27 25 26
39 39 40 40 40 34 30 31 32 28 21 21 19 21 22 22 22 24 25 27 28 25 24 23 21 20 19 18 20 20 20 20 20 20 20 21 21 22 23 24 25 26 27 28 29 31 29 29 29 28 27 27 26 26
37 36 39 38 34 34 31 30 28 29 20 18 21 21 17 15 20 20 20 24 17 15 15 20 19 19 20 20 20 21 21 21 20 20 19 21 22 24 25 26 28 27 27 27 27 28 30 29 30 30 29 29 28 27
34 37 32 34 30 32 30 32 29 29 25 25 17 14 5 10 18 19 16 15 14 21 22 21 21 22 22 21 22 23 23 23 23 24 28 27 25 26 26 28 28 28 29 29 29 29 30 31 31 31 30 29 30 29
36 35 33 32 28 25 20 31 27 26 23 21 18 11 10 8 12 19 14 16 20 19 20 22 22 23 23 24 24 25 26 26 25 26 26 27 27 28 29 28 28 29 29 30 32 31 31 33 33 32 32 31 30 29
37 31 28 28 27 22 27 24 25 24 24 21 20 19 12 9 12 14 14 18 19 20 21 22 23 22 22 23 23 24 25 27 27 28 28 28 28 28 28 28 29 31 32 31 31 31 31 32 33 32 30 30 31 32
28 26 28 24 26 24 22 19 18 14 15 14 18 11 11 12 16 13 9 14 18 20 21 21 21 21 20 20 20 21 23 24 25 26 30 31 33 33 33 34 34 33 32 32 31 31 31 31 31 30 30 31 32 32
22 24 23 18 17 18 18 15 16 16 9 0 11 15 9 15 9 8 10 17 16 18 19 20 19 20 20 21 21 22 23 26 28 29 31 33 33 33 32 31 31 30 31 32 32 31 31 31 31 31 31 33 35 34
21 20 23 28 25 24 20 17 17 16 13 16 12 10 15 14 14 12 16 18 18 21 22 22 22 21 21 22 24 25 26 27 29 30 30 31 32 33 32 30 30 30 31 30 30 30 30 30 30 31 31 33 33 31
19 17 20 19 21 20 20 18 18 16 19 20 17 14 14 13 12 15 17 17 21 23 23 23 24 25 25 26 26 25 26 28 31 32 30 29 29 30 30 31 31 32 32 31 31 30 30 30 30 30 29 30 30 27
19 22 18 16 14 16 18 15 14 16 17 16 14 13 12 15 17 17 19 19 15 14 15 20 22 24 24 25 26 27 27 28 26 25 24 24 25 26 28 27 28 29 29 26 31 32 30 29 28 27 28 27 21 19
20 20 13 8 13 14 17 18 17 20 18 18 17 16 16 17 19 20 17 16 15 18 22 23 23 24 23 23 24 24 26 27 27 26 25 25 26 28 27 26 23 24 19 20 22 21 30 23 23 18 19 20 18 19
17 17 9 11 13 18 19 18 14 18 13 13 15 17 18 19 20 22 22 23 23 24 24 23 24 24 24 24 24 24 24 26 26 27 28 28 29 29 29 29 29 21 16 17 19 20 19 17 19 15 16 17 19 17
16 17 15 7 13 19 9 8 7 11 12 14 18 19 19 15 18 20 21 23 23 23 25 25 23 23 24 25 25 26 28 26 26 27 22 26 27 28 28 28 24 18 18 19 20 19 15 20 21 18 17 17 17 15
5 3 4 9 8 7 5 14 9 10 4 12 17 18 18 17 16 18 20 22 22 22 23 24 25 25 25 24 25 25 28 27 27 30 31 32 32 30 26 25 22 20 19 19 19 18 17 20 19 18 18 17 16 14